GFSGBSN_con_mlcape_000.txt.gz
CAPE
11 14 37 38 0 0 0 17 10 14 21 35 17 2 2 3 5 0 0 0 0 1 0 0 5 1 0 0 0 0 0 0 0 0 0 0 0 0 0 0 0 0 0 0 1 1 0
4 4 3 14 39 4 0 0 21 14 23 41 42 9 1 0 5 0 0 0 0 0 5 0 4 1 0 0 0 0 0 0 0 0 0 0 0 0 0 0 0 0 3 0 0 0 3
4 3 0 1 17 38 10 0 10 16 30 50 40 29 4 0 2 1 0 3 6 0 0 1 7 0 0 0 0 0 0 0 0 1 0 16 0 19 18 0 0 0 0 0 0 0 0
17 21 5 0 0 5 49 15 7 10 33 45 44 38 18 0 0 4 0 17 0 11 0 12 13 2 0 0 0 0 0 0 0 0 0 0 0 24 3 18 3 0 0 0 0 0 0
5 9 12 15 2 5 19 66 15 0 4 50 49 29 28 1 0 0 9 8 0 0 1 9 0 0 0 0 0 0 0 0 0 0 0 0 0 0 1 16 15 12 0 0 1 0 7
5 9 5 21 13 3 6 15 87 10 0 32 46 43 33 3 0 0 10 6 4 12 3 9 5 0 0 0 0 0 0 0 0 0 0 0 1 0 0 15 1 2 1 0 0 5 3
10 10 16 14 32 13 2 11 6 88 8 28 43 51 33 11 1 7 3 0 0 0 0 0 0 0 0 0 0 0 0 0 0 0 0 0 0 0 0 0 0 1 2 0 0 3 0
21 14 40 22 22 28 9 12 4 9 37 7 35 58 35 16 0 9 0 0 0 0 0 0 0 0 0 0 0 0 0 0 0 0 0 1 2 0 0 0 0 0 0 0 0 0 0
13 5 22 40 16 12 30 11 9 6 88 8 24 73 48 19 5 15 1 0 0 0 0 0 0 0 0 1 1 1 0 0 0 1 1 0 0 0 0 0 0 0 0 0 0 0 0
28 28 20 35 28 17 18 28 5 10 39 24 33 101 69 30 4 0 5 0 0 9 0 0 0 0 1 9 13 3 0 0 2 0 1 1 0 0 0 1 0 0 0 0 0 0 0
41 50 29 40 36 26 27 46 32 47 6 45 47 104 48 4 0 0 0 0 1 21 0 0 0 0 10 2 1 0 0 2 1 0 0 0 0 0 0 0 0 0 0 0 2 3 3
40 41 27 49 26 54 30 4 3 32 32 18 54 117 8 0 0 0 0 1 17 0 0 0 0 0 6 7 9 3 11 14 6 4 1 0 0 0 0 0 0 13 9 9 11 24 1
29 38 28 33 36 86 67 10 14 42 6 40 2 88 0 0 0 0 1 15 0 0 0 0 1 0 0 0 2 14 0 11 0 1 0 0 0 0 0 0 0 6 13 6 1 2 0
36 41 42 40 23 41 33 20 42 55 8 26 7 14 0 0 0 0 8 2 0 0 0 0 0 0 0 0 3 2 14 2 5 0 0 0 0 0 0 0 0 0 0 0 0 0 0
56 51 40 41 32 23 33 9 88 35 3 0 23 15 1 0 1 0 2 1 0 0 0 0 1 2 1 2 0 4 7 2 0 1 3 0 0 0 0 0 0 0 8 0 2 4 4
39 54 55 49 25 24 26 10 42 22 6 22 15 2 2 3 4 6 9 0 0 0 0 0 0 0 0 0 2 2 3 0 2 0 0 0 0 0 0 5 1 0 0 0 3 0 0
24 39 48 25 27 12 27 18 25 32 26 7 4 3 11 7 3 16 3 0 0 0 0 0 1 1 0 0 0 0 0 0 0 0 0 0 0 0 0 0 2 5 11 3 0 1 19
19 31 39 21 23 27 27 41 27 22 30 5 27 1 10 6 3 3 3 0 0 0 1 1 0 1 0 0 0 0 0 0 0 0 0 0 0 0 0 0 0 1 0 0 1 0 0
32 24 29 18 34 20 26 42 31 48 14 33 17 6 8 4 0 2 1 0 1 5 4 1 1 1 0 3 0 0 0 0 0 0 0 0 1 0 0 1 2 14 0 0 0 5 3
23 29 27 20 27 13 18 23 42 20 17 25 1 2 12 6 10 0 2 4 2 6 3 10 6 2 3 12 0 0 0 0 0 0 0 1 0 0 0 0 1 8 6 3 0 6 0
26 31 33 16 28 12 12 23 29 24 5 19 7 2 3 3 4 0 1 2 0 5 1 2 1 1 2 1 0 0 0 0 0 0 9 1 0 0 0 0 0 2 0 0 4 0 0
27 26 33 24 26 13 12 31 34 23 0 41 8 3 5 1 2 2 0 4 4 8 4 2 1 2 0 2 0 0 0 0 0 0 3 3 0 0 0 1 4 1 2 11 1 1 1
30 29 27 18 19 17 10 5 37 6 6 0 14 0 3 0 0 2 2 1 0 9 1 0 2 3 3 0 5 20 12 10 0 2 0 0 0 0 0 3 1 3 0 0 0 1 0
22 27 32 31 21 24 11 13 34 6 20 12 2 0 12 3 0 1 2 0 0 1 0 13 1 4 0 1 4 11 9 0 7 0 0 0 1 1 0 2 0 0 0 0 0 0 0
34 26 28 29 17 24 15 29 35 5 5 4 2 6 0 3 0 0 0 0 0 0 0 8 9 2 0 0 12 4 1 4 0 0 0 0 0 0 0 0 0 0 0 0 0 0 0
31 28 22 27 14 8 6 16 34 10 11 6 1 0 0 0 0 1 0 0 2 0 0 0 0 0 1 7 6 0 0 0 0 0 0 0 0 0 0 0 0 0 0 0 0 0 0
26 27 17 16 20 16 12 17 25 21 16 5 0 0 0 6 1 0 0 0 0 0 0 0 2 5 3 2 2 0 0 0 0 0 0 0 0 0 0 0 0 0 0 0 0 0 0
27 22 11 11 25 17 8 20 28 13 6 5 1 0 5 1 1 0 0 0 0 0 0 1 2 1 3 2 1 1 0 0 0 0 0 0 0 0 0 0 0 0 0 0 0 0 0
15 20 23 6 15 9 4 10 14 7 4 5 1 0 0 0 0 0 0 0 0 0 0 4 1 2 0 4 0 0 0 0 2 0 0 1 0 0 0 0 0 0 0 0 0 0 0

GFSGBSN_con_mlcape_003.txt.gz
CAPE
9 2 1 1 2 4 8 27 0 2 17 17 24 27 15 3 5 11 6 8 4 8 0 0 0 0 4 1 0 0 0 0 0 10 0 7 0 0 0 0 0 0 0 0 0 0 0
10 13 8 3 1 3 2 4 46 3 17 17 35 32 26 4 4 9 7 5 1 10 13 0 0 2 0 0 0 0 0 0 0 0 0 0 0 3 0 0 0 0 0 0 0 0 0
10 8 6 9 17 5 0 3 15 36 9 24 41 26 32 12 1 6 10 12 15 12 9 0 9 1 0 0 0 0 0 0 0 0 0 0 0 19 21 1 0 0 0 0 0 0 0
10 10 14 11 18 21 9 0 2 17 48 34 29 32 39 27 7 3 10 12 30 15 18 12 19 3 0 0 0 0 0 0 0 0 0 0 0 0 13 10 3 9 2 0 0 0 0
4 6 8 8 14 30 25 13 2 10 7 46 2 21 41 41 18 0 9 15 10 0 14 15 0 0 0 0 0 0 0 0 0 0 0 0 0 0 6 7 5 1 0 0 1 0 4
4 3 2 5 2 15 14 19 11 4 1 11 21 27 48 55 27 0 0 20 20 15 7 9 0 0 0 0 0 0 0 0 0 0 0 0 1 1 0 6 0 1 2 5 1 0 0
11 10 6 4 8 5 10 17 15 13 2 8 8 12 63 74 28 3 0 0 0 0 3 0 0 0 0 0 0 0 0 0 0 0 0 0 1 1 0 0 1 6 0 3 0 0 0
17 25 14 11 5 7 8 19 28 8 11 0 6 40 75 78 17 8 0 0 0 0 0 0 0 0 0 0 0 0 0 0 0 0 0 0 0 0 0 0 0 0 8 5 3 0 1
25 36 32 37 16 27 36 29 28 31 14 7 10 51 56 78 33 16 0 0 0 0 0 0 0 0 0 0 1 0 0 0 0 0 0 0 0 0 0 0 0 0 0 4 3 0 0
40 45 38 38 25 20 32 34 28 29 32 3 17 3 53 91 14 3 4 0 0 0 0 0 0 0 0 7 6 0 0 0 0 0 0 3 0 0 0 0 0 0 0 0 0 0 0
35 36 23 37 31 32 27 26 55 43 45 26 45 16 80 12 0 2 0 0 3 1 0 0 0 0 4 0 0 0 0 1 0 0 0 0 0 0 0 0 0 1 0 0 0 0 0
29 34 45 36 28 50 48 51 89 47 19 12 39 26 121 0 0 0 0 0 9 0 0 0 0 1 5 5 6 2 0 11 5 0 1 0 0 0 0 0 0 3 5 0 4 0 0
33 41 90 57 39 45 89 75 47 33 18 39 42 41 5 0 0 0 0 0 1 0 0 0 0 1 0 1 2 6 6 9 5 0 0 2 0 0 0 0 0 0 4 0 0 4 0
25 39 80 97 43 38 27 23 23 25 48 49 36 31 11 0 0 0 0 0 0 0 0 0 0 2 0 0 1 0 7 1 18 0 0 0 0 1 0 0 0 0 0 0 0 0 0
46 58 56 92 43 41 34 22 15 24 30 24 11 26 25 0 0 1 0 0 0 0 0 0 2 1 3 0 0 3 7 0 0 0 0 0 0 0 0 0 0 1 2 0 0 0 0
45 54 62 34 17 29 32 38 18 32 37 30 6 1 33 5 0 7 0 0 0 0 0 0 0 0 0 2 1 3 1 0 1 0 0 1 0 0 0 0 0 0 0 0 0 0 0
37 45 52 30 21 21 22 47 24 30 28 0 1 0 21 1 10 11 0 0 0 0 0 0 0 0 1 0 0 0 0 0 0 0 0 1 0 0 0 2 0 1 0 0 0 0 0
43 34 36 25 18 6 15 28 22 30 35 4 0 1 20 10 2 6 0 0 0 0 0 0 0 0 0 0 0 0 0 0 0 0 1 0 0 0 0 0 0 1 0 0 5 0 0
46 39 40 22 15 14 17 21 12 41 42 8 5 10 28 8 0 2 3 0 0 0 0 0 0 1 0 1 0 0 0 0 0 0 0 0 0 0 1 0 1 0 0 0 0 2 0
42 33 47 29 26 25 21 22 4 37 18 14 6 0 12 14 4 1 1 0 0 0 0 6 5 1 1 0 0 0 0 0 0 0 3 1 0 0 0 1 1 0 0 0 0 0 0
45 41 47 43 20 19 17 8 7 36 5 14 1 1 0 2 2 0 1 1 0 0 4 1 3 5 1 1 1 0 0 0 0 0 3 3 0 0 0 0 1 1 1 0 2 0 0
40 41 53 22 31 12 15 5 2 26 2 15 9 6 2 0 6 1 0 0 10 0 4 2 2 1 2 3 1 0 0 0 0 0 2 4 0 0 0 0 0 1 1 15 0 0 0
36 36 39 32 19 8 7 5 3 37 23 1 1 2 0 2 4 2 0 0 1 4 2 0 0 1 4 3 0 0 0 1 12 1 3 0 0 0 0 1 1 0 0 0 0 1 0
33 46 40 34 35 10 6 4 11 38 26 16 5 0 17 1 1 1 4 0 0 0 0 6 4 5 1 1 2 0 0 0 23 4 0 0 0 0 0 0 0 0 0 0 0 0 0
33 46 49 31 15 15 10 13 26 33 25 4 3 2 13 3 1 2 2 3 1 2 0 0 0 0 3 6 9 7 0 1 0 0 0 0 1 0 0 0 0 0 3 4 0 0 0
25 23 36 27 12 15 11 6 27 30 4 1 0 1 2 0 3 2 2 2 1 1 0 0 0 0 4 2 6 0 0 0 0 0 0 0 0 0 0 0 0 0 0 0 0 0 0
18 16 19 17 10 12 16 10 32 21 0 8 1 2 0 1 2 2 0 0 0 0 0 0 0 4 1 3 4 6 0 0 0 0 0 0 0 0 0 0 0 0 0 0 0 0 0
21 20 22 7 13 6 14 8 23 15 3 10 0 0 3 9 0 0 0 1 0 0 0 0 1 3 3 3 6 0 0 0 0 0 0 0 0 0 0 0 0 0 0 0 0 0 0
23 19 14 12 9 5 10 6 12 10 10 5 1 0 1 1 0 0 0 0 0 0 1 0 2 3 5 1 0 0 0 0 0 0 0 0 0 0 0 0 0 0 0 0 0 0 0

GFSGBSN_con_mlcape_006.txt.gz
CAPE
13 10 6 7 3 1 3 4 1 1 42 27 59 48 62 30 6 0 6 4 9 6 1 7 9 1 17 12 1 0 0 0 2 15 7 2 0 0 0 0 0 0 0 0 0 0 0
4 9 5 9 12 10 3 12 11 0 0 78 48 32 33 48 22 2 1 2 8 3 15 0 16 12 0 0 0 0 0 0 2 27 20 18 0 0 0 0 0 0 0 0 0 0 0
8 5 4 10 7 2 9 19 21 5 3 20 65 34 57 44 32 9 0 4 0 0 5 1 14 3 0 0 0 0 0 0 0 0 1 18 18 0 3 0 0 0 0 0 0 0 0
6 3 5 5 3 8 8 9 14 12 5 3 11 46 7 49 42 16 2 6 16 20 18 10 24 2 0 0 0 0 0 0 0 0 0 0 0 0 0 0 0 1 1 0 0 0 0
5 6 7 3 5 10 10 5 9 21 6 6 10 8 44 20 75 28 4 7 17 2 17 18 0 0 0 0 0 0 0 0 0 0 0 0 0 0 0 0 0 0 0 0 0 0 0
18 7 7 6 5 14 9 10 27 26 14 6 9 1 3 26 85 24 3 7 20 15 5 0 0 0 0 0 0 0 0 0 0 0 0 0 0 1 2 0 0 0 0 0 0 1 0
16 15 16 16 7 7 8 9 16 48 22 21 12 10 0 4 57 25 4 0 4 6 11 0 0 0 0 0 0 0 0 0 0 0 0 0 0 0 0 0 0 0 0 0 0 0 0
18 31 23 30 16 1 0 4 35 43 29 19 31 13 6 2 79 8 0 0 0 0 0 0 0 0 0 0 0 0 0 0 0 0 0 0 0 0 0 1 1 3 1 0 0 0 0
29 41 34 30 36 27 20 18 35 38 34 45 23 18 5 1 30 3 0 0 0 0 0 0 0 0 0 0 0 0 0 0 0 0 0 0 0 0 0 0 0 0 0 0 0 0 0
31 24 27 38 36 26 30 29 36 44 46 46 27 7 11 0 8 1 2 0 0 0 0 0 0 0 0 0 0 0 0 0 0 0 0 0 0 0 0 0 0 0 0 0 0 0 0
14 14 21 38 26 45 21 60 49 59 74 20 15 7 8 7 7 2 0 0 0 0 0 0 0 0 0 0 0 0 0 1 0 0 0 0 0 0 0 0 0 1 0 0 0 0 1
26 29 30 44 47 47 50 73 58 46 18 4 17 16 25 2 4 0 0 0 0 0 0 0 0 11 4 0 9 0 2 6 2 1 0 0 0 0 0 0 0 0 1 0 1 4 1
33 33 37 55 63 80 53 35 19 27 25 65 67 37 25 6 4 0 1 3 0 0 0 0 1 3 3 2 4 1 1 2 2 2 0 2 0 0 0 0 0 0 1 0 0 0 0
41 36 42 61 64 37 25 20 20 12 22 22 53 43 2 12 41 0 0 0 0 0 0 0 0 1 1 0 1 3 4 5 3 3 0 0 0 0 0 0 0 0 0 0 0 0 0
43 41 45 46 44 35 16 12 8 43 27 28 23 42 46 0 37 0 1 0 0 0 0 0 1 2 2 1 0 3 4 3 0 3 2 0 0 0 0 0 0 1 0 0 0 0 0
36 40 39 37 35 28 19 26 24 49 33 20 19 8 5 4 19 19 0 0 0 0 0 0 0 0 0 1 0 3 0 0 3 0 1 0 1 0 0 0 0 0 0 2 0 0 0
40 49 41 32 30 20 23 22 28 29 22 21 1 10 17 0 24 5 0 0 0 0 0 0 0 0 0 0 0 1 0 0 0 0 0 0 0 0 5 0 0 0 0 0 0 0 0
43 41 50 37 38 18 24 19 29 31 20 9 2 0 30 35 2 2 0 0 0 0 0 0 0 0 0 0 0 0 0 0 0 0 0 0 0 0 0 0 0 0 0 0 0 0 0
49 45 34 58 41 42 20 15 15 31 57 13 3 17 16 13 0 0 0 0 0 0 0 0 0 0 2 0 0 0 0 0 0 0 0 0 0 0 0 0 0 0 0 0 0 0 0
46 44 36 56 53 35 16 10 14 43 4 5 1 5 11 12 4 0 0 0 0 0 0 1 3 0 0 2 0 0 0 0 0 0 0 0 0 0 0 0 0 0 0 0 0 0 0
54 40 40 38 45 27 14 3 8 32 1 5 1 1 0 0 1 0 1 0 0 0 0 2 4 3 1 0 0 0 0 0 0 0 7 1 0 1 0 0 0 1 0 1 0 0 0
57 35 40 43 32 19 10 3 11 26 11 0 2 0 0 0 0 0 0 1 0 0 7 0 0 0 0 4 0 0 0 0 0 0 1 2 0 0 0 0 0 0 1 1 1 0 0
45 45 28 30 23 6 12 3 8 30 22 1 0 0 1 5 1 0 0 0 0 1 0 0 1 4 3 1 6 2 0 0 0 0 1 1 0 0 0 0 1 0 1 2 0 0 0
34 45 15 23 15 5 10 6 8 26 31 6 1 2 22 1 2 0 0 0 0 5 1 3 3 9 5 13 8 3 0 0 0 0 0 0 0 1 0 0 0 1 0 0 0 0 0
26 29 22 15 12 8 12 6 8 24 25 6 1 2 18 1 5 0 0 0 0 2 2 1 0 2 22 25 3 4 0 0 0 0 0 0 0 0 0 0 0 0 1 0 0 0 0
25 27 32 21 16 14 11 8 3 19 14 2 0 1 1 0 0 0 3 9 2 1 1 5 1 0 9 14 2 1 0 0 0 0 0 0 0 0 0 0 0 0 0 0 0 0 0
10 22 29 16 11 12 10 14 2 7 7 3 1 1 1 2 0 3 0 0 2 0 0 0 0 0 9 4 1 0 0 0 0 0 0 0 0 0 0 0 0 0 0 0 0 0 0
23 12 19 16 11 9 4 13 4 6 8 9 0 1 1 1 1 0 0 0 0 0 0 0 0 1 1 4 2 1 0 0 0 0 0 0 0 0 0 0 0 0 0 0 0 0 0
29 29 22 27 8 9 4 14 6 7 18 9 1 0 1 1 0 0 0 0 0 0 0 0 0 2 3 20 1 3 1 0 0 0 0 0 0 0 0 0 0 0 0 0 0 0 0

GFSGBSN_con_mlcape_009.txt.gz
CAPE
7 7 5 6 6 5 5 2 6 5 7 11 9 30 61 82 64 19 0 0 0 0 9 0 0 0 3 8 10 0 0 0 11 17 3 3 0 0 0 0 0 0 0 0 0 0 0
10 6 10 10 8 6 10 6 3 4 4 8 5 14 20 28 14 39 2 0 0 0 8 0 0 0 0 0 0 0 0 0 18 37 18 1 0 0 0 0 0 0 0 0 0 0 0
11 11 8 8 7 5 10 10 10 8 9 10 6 20 5 23 11 48 7 0 0 0 5 7 0 0 0 0 0 0 0 0 1 8 12 7 6 0 0 0 0 0 0 0 0 0 0
9 11 4 5 4 10 9 9 8 6 4 19 11 7 13 2 14 43 16 6 0 3 22 10 10 0 0 0 0 0 0 0 0 0 0 14 20 2 0 0 0 0 0 0 0 0 0
5 5 15 6 18 16 19 18 13 9 10 22 30 8 21 1 7 25 11 14 7 21 18 35 0 0 0 0 0 0 0 0 0 0 0 0 0 0 0 0 0 0 0 0 0 0 0
9 17 13 26 15 6 6 14 11 15 23 50 31 26 26 3 4 33 11 7 31 9 8 1 0 0 0 0 0 0 0 0 0 0 0 0 0 0 0 0 0 0 0 0 0 0 0
23 26 31 35 41 33 11 1 12 13 22 28 23 45 50 6 9 13 16 14 7 3 3 0 0 0 0 0 0 0 0 0 0 0 0 0 0 0 0 0 0 0 0 0 0 0 0
31 37 49 34 37 35 40 29 21 35 32 44 48 35 38 4 5 5 2 0 0 0 0 0 0 0 0 0 0 0 0 0 0 0 0 0 0 0 0 0 0 0 0 0 0 0 0
33 27 32 31 36 32 27 32 20 41 47 70 68 41 42 31 7 6 2 0 0 0 0 0 0 0 0 0 0 0 0 0 0 0 0 0 0 0 0 0 0 2 1 1 0 0 0
30 28 24 24 21 20 49 51 34 34 45 42 72 28 28 33 2 1 1 0 0 0 0 0 0 0 0 0 0 0 0 0 0 0 0 0 0 0 0 0 0 0 0 0 0 1 0
30 25 32 26 20 33 55 52 60 66 18 4 11 24 41 46 15 39 0 0 0 0 0 0 0 0 2 0 0 0 0 0 0 0 0 0 0 0 0 0 0 0 0 0 0 0 1
28 27 26 30 34 43 44 34 26 19 22 21 13 45 47 28 12 0 1 0 0 0 0 0 0 5 2 0 12 0 6 15 1 0 0 0 0 0 0 0 0 0 1 1 0 0 0
33 26 34 25 49 46 32 26 19 28 27 21 16 22 16 36 2 1 5 7 0 0 0 0 0 9 3 1 4 4 1 6 1 2 0 0 0 0 0 0 0 0 0 0 0 0 0
18 22 27 42 50 49 30 21 31 24 32 59 21 29 5 38 1 0 3 0 0 0 0 0 0 3 2 0 3 3 0 3 2 1 0 0 0 0 0 0 0 0 0 0 1 0 0
19 25 27 47 46 58 43 19 31 19 30 29 15 42 18 17 0 3 5 0 0 0 0 0 1 3 1 0 0 1 3 0 0 0 0 0 0 0 0 0 0 0 0 0 0 0 0
15 17 44 49 42 59 21 41 22 32 25 35 3 26 9 9 0 7 0 0 0 0 0 0 0 0 0 0 0 1 1 0 0 0 1 0 0 0 0 0 0 1 0 1 0 0 0
27 26 43 41 36 54 29 30 28 27 27 43 0 7 24 6 0 5 0 0 0 0 0 0 0 0 0 0 0 1 0 0 0 0 0 0 0 0 1 0 0 0 1 1 2 0 0
19 31 41 46 47 50 32 22 16 14 20 20 4 0 5 17 0 0 0 0 0 0 0 0 0 0 0 0 0 0 0 0 0 0 0 0 1 0 0 0 0 0 0 0 0 0 0
8 30 36 45 56 56 24 9 5 17 36 27 1 6 12 0 0 0 0 0 0 0 0 0 0 0 0 0 0 0 0 0 0 0 0 0 1 0 0 0 0 1 0 0 0 0 0
0 28 40 48 40 36 10 9 7 24 27 26 1 0 5 10 1 0 0 0 0 0 0 0 0 0 0 0 0 0 0 0 0 0 0 0 0 0 0 0 0 0 0 0 0 0 0
1 27 36 33 31 28 5 11 8 7 31 12 4 1 0 0 0 0 0 0 0 0 0 0 3 2 0 1 1 0 0 0 0 0 0 0 0 1 0 0 0 0 0 0 0 0 0
4 16 27 30 25 28 5 5 12 10 20 0 2 1 0 0 0 0 0 0 0 0 0 0 0 0 0 5 0 0 0 0 0 0 0 1 0 1 0 1 2 0 1 1 0 0 0
15 4 25 26 15 29 5 8 10 7 26 1 0 0 0 2 0 0 0 0 0 0 0 0 0 0 6 0 1 1 1 0 1 0 0 1 0 0 0 0 0 0 0 1 2 3 0
20 17 19 26 32 26 12 5 8 9 22 11 1 1 4 2 0 0 0 0 0 0 0 3 1 4 4 12 4 2 0 0 1 0 0 3 0 0 0 0 0 0 0 0 0 0 1
22 15 12 22 11 11 27 2 4 4 14 6 2 2 10 3 3 0 0 0 0 0 0 0 0 0 6 20 0 0 1 1 0 0 0 0 5 0 0 0 0 0 0 0 0 0 0
13 23 11 11 8 14 18 8 3 0 2 5 1 1 1 7 0 0 1 0 0 0 0 2 0 0 3 7 2 0 0 0 0 0 0 0 1 0 0 0 0 0 0 0 0 0 0
7 13 18 17 22 9 15 9 6 0 0 6 1 4 2 2 0 0 0 0 0 1 0 0 0 0 12 1 2 0 0 0 0 0 0 0 1 0 0 0 0 0 0 0 0 0 0
2 4 10 9 9 15 17 8 12 0 0 6 0 4 2 1 0 0 0 0 0 0 0 0 0 0 1 2 1 1 0 0 0 0 0 0 0 0 0 0 0 0 0 0 0 0 0
2 2 7 6 16 26 18 24 1 1 5 5 3 0 1 2 0 0 0 0 0 0 0 0 0 0 0 2 1 2 1 0 0 0 0 0 0 0 0 0 0 0 0 0 0 0 0

GFSGBSN_con_mlcape_012.txt.gz
CAPE
10 12 15 10 13 7 7 10 5 5 2 1 5 3 10 11 8 37 43 0 0 0 0 0 0 0 8 5 2 0 0 0 23 42 14 4 0 0 0 0 0 0 0 0 0 0 0
12 11 11 6 9 9 16 11 13 9 3 2 3 16 5 14 7 39 38 3 0 0 0 3 0 0 0 3 0 0 0 3 35 67 30 2 3 0 0 0 0 0 0 0 0 0 0
6 6 6 15 7 24 29 27 27 16 10 6 8 20 8 0 11 4 31 10 3 0 0 6 0 0 0 0 0 0 0 0 2 75 49 5 2 1 3 7 7 0 0 0 0 0 0
13 9 6 4 8 6 15 21 21 17 14 10 7 30 27 1 20 4 31 24 8 0 0 1 0 0 0 0 0 0 0 0 0 2 41 25 24 6 0 1 1 0 0 0 0 0 0
11 32 25 18 8 30 18 15 20 8 9 9 29 17 17 11 15 1 6 69 26 23 15 17 0 0 0 0 0 0 0 0 0 0 12 23 0 0 0 0 0 0 0 0 0 0 0
47 22 31 42 22 34 33 40 28 15 7 17 24 17 20 18 26 5 3 62 62 32 22 0 0 0 0 0 0 0 0 0 0 1 0 0 6 3 0 0 0 0 0 0 0 0 0
22 15 39 36 20 35 27 48 27 31 28 29 19 42 42 42 16 9 0 38 7 16 7 0 0 0 0 0 0 0 0 0 0 12 12 6 6 0 0 0 0 0 0 0 0 0 0
26 44 31 31 29 37 34 36 35 34 27 30 64 58 76 29 37 13 11 3 0 0 0 0 0 0 0 0 0 0 0 0 0 0 8 1 1 0 0 0 0 0 0 0 0 0 0
36 32 21 41 33 39 43 47 35 41 41 61 23 55 62 45 25 1 0 3 0 0 0 1 0 0 0 0 0 0 0 0 0 2 0 0 0 0 0 1 1 0 1 0 0 0 0
19 13 37 28 37 45 49 49 44 45 51 35 48 49 41 42 5 3 3 6 0 0 0 0 0 0 0 0 0 0 0 0 0 0 1 1 0 0 0 1 0 0 0 0 1 0 0
28 44 35 30 41 56 65 40 35 24 17 28 46 44 42 34 19 0 7 23 0 0 0 0 1 4 6 0 0 0 0 0 0 0 0 0 0 0 0 0 0 0 0 0 2 4 0
38 34 38 36 52 50 41 31 27 20 18 15 17 27 18 5 17 1 3 1 0 0 0 1 5 8 9 5 2 4 7 7 1 1 0 1 0 0 0 0 0 0 5 5 2 2 0
19 22 41 45 51 34 37 30 34 14 5 3 20 25 19 20 10 57 11 1 0 0 0 1 4 5 0 1 10 3 6 9 2 1 2 3 2 0 0 2 1 7 6 0 0 0 0
29 38 34 43 39 26 41 26 33 3 6 14 29 23 5 17 6 40 4 0 0 0 0 0 10 3 8 7 13 9 5 8 8 1 0 0 0 0 0 0 0 1 1 0 0 0 0
21 33 31 32 39 42 28 19 11 5 3 10 42 15 9 15 41 0 2 0 0 0 0 1 10 5 9 1 2 3 3 2 0 0 0 0 0 0 0 0 0 2 1 0 10 0 1
23 34 29 28 33 34 27 16 10 6 12 11 14 1 45 40 10 0 0 0 0 0 0 0 0 0 0 3 1 1 2 0 3 1 1 1 0 0 0 0 0 3 2 2 3 0 4
22 27 39 25 32 34 27 8 12 9 17 22 1 6 47 6 0 0 0 0 2 0 0 0 0 0 0 1 2 2 0 0 0 0 1 5 1 1 3 2 0 2 2 1 3 14 3
25 24 33 34 24 28 17 6 14 18 27 10 1 0 26 1 0 0 0 0 5 0 0 0 0 0 0 0 1 1 0 0 0 0 2 0 3 1 0 0 0 0 0 1 0 0 0
24 18 24 28 24 17 10 5 6 13 11 13 2 3 13 25 0 0 1 0 0 0 0 0 0 0 0 0 0 0 0 0 0 0 0 2 1 0 0 0 0 3 0 0 2 0 0
19 25 20 26 19 18 9 1 5 6 18 4 1 0 1 2 11 0 0 0 0 0 0 0 0 0 0 0 0 0 0 0 0 0 0 0 4 0 0 0 0 0 1 1 1 0 0
27 35 19 28 20 15 10 1 1 4 4 0 1 2 1 1 0 1 0 0 0 0 0 0 0 0 0 0 0 0 0 0 0 0 0 2 0 1 0 1 1 2 2 3 0 0 0
16 15 31 25 28 6 6 1 0 0 0 0 0 1 2 5 0 0 0 0 0 0 0 0 0 0 0 1 0 1 0 0 0 0 0 6 1 1 0 0 1 1 3 3 1 2 2
20 24 27 29 17 6 3 1 5 3 0 4 0 1 2 3 3 0 0 0 0 0 0 0 0 0 1 0 0 5 2 0 0 0 1 3 0 0 0 0 0 1 0 1 1 1 1
18 22 30 21 27 10 3 1 7 1 7 3 5 1 2 1 2 0 0 0 0 0 0 0 0 2 5 7 13 6 5 7 10 6 1 0 0 0 0 0 0 1 0 1 1 0 1
16 12 21 17 25 9 2 3 7 3 4 0 1 1 1 2 0 0 0 0 0 0 1 2 1 1 0 4 6 2 1 3 0 2 6 4 8 0 0 0 0 1 0 4 1 0 0
5 5 6 8 4 13 4 1 10 0 4 0 0 3 1 2 0 0 0 0 0 0 0 0 0 0 2 18 12 0 1 0 0 0 0 0 1 1 0 0 0 0 0 0 0 0 0
3 2 5 8 9 14 11 2 8 0 1 0 0 2 1 1 0 0 0 0 0 0 0 0 0 0 5 7 5 1 0 0 0 0 1 0 1 0 0 1 0 0 0 0 0 0 0
3 3 4 2 1 3 11 1 0 0 0 2 0 2 1 2 0 0 0 0 0 0 0 0 0 1 2 1 1 0 3 0 0 0 0 0 0 0 0 0 0 0 0 0 0 0 0
3 4 4 1 1 1 2 2 1 1 1 4 1 0 0 2 1 0 0 0 0 0 2 0 2 0 0 2 1 2 4 0 0 2 0 0 0 0 0 0 0 0 0 0 0 0 0

GFSGBSN_con_mlcape_015.txt.gz
CAPE
3 3 3 9 11 7 11 13 17 17 8 5 1 1 7 6 4 8 7 52 55 0 3 2 0 0 2 26 10 0 0 0 56 38 9 8 11 6 2 0 0 0 0 0 0 0 0
9 9 7 10 4 9 16 15 10 12 15 7 4 2 2 14 2 4 8 23 75 2 1 1 0 0 1 9 0 0 0 0 6 43 38 13 15 11 18 9 1 3 0 0 0 0 0
6 9 25 18 11 4 17 16 14 7 1 4 6 6 3 8 0 2 7 7 45 29 1 14 0 0 7 0 0 0 0 2 26 28 49 30 11 3 4 5 5 0 0 0 0 0 0
26 37 26 27 24 28 43 55 40 41 26 12 5 10 12 8 13 3 6 6 4 32 2 21 0 1 5 0 0 0 0 1 26 35 41 4 1 8 3 1 0 0 0 0 0 0 0
16 9 27 45 48 35 36 33 57 39 37 34 9 23 22 14 7 12 8 3 1 49 32 31 0 1 1 0 0 0 0 8 5 3 22 20 26 5 3 1 0 0 0 0 0 0 0
25 30 39 49 51 33 41 48 37 51 44 39 26 14 25 25 33 26 19 1 0 33 39 20 3 0 0 0 0 0 0 9 4 2 5 1 0 1 0 1 0 0 0 0 0 0 0
39 31 42 42 46 33 50 64 84 89 61 54 53 18 45 58 42 27 13 0 39 12 45 12 0 0 0 0 0 0 0 9 10 5 1 5 5 0 0 0 0 0 0 0 0 0 0
17 21 44 42 26 42 54 78 73 87 66 67 80 98 73 82 77 54 27 5 1 6 12 10 0 1 1 0 0 0 0 3 3 8 7 0 1 0 0 0 0 0 0 0 0 0 0
10 46 58 30 27 27 57 67 68 67 68 83 65 37 69 88 60 27 10 0 0 1 8 9 2 2 0 0 1 0 0 1 7 3 0 5 0 0 0 0 0 0 0 0 0 0 0
29 28 28 28 24 39 49 42 49 47 45 33 22 22 53 53 6 18 24 9 1 0 0 2 3 1 0 0 0 1 0 1 3 1 0 5 0 0 0 0 0 0 0 0 0 0 0
44 27 33 27 25 40 43 37 59 45 42 19 20 25 32 42 13 9 10 26 7 1 0 0 2 3 2 0 0 3 2 1 2 0 0 1 0 0 0 0 0 0 0 0 0 1 0
16 24 30 22 23 30 35 46 42 29 29 19 20 23 5 0 14 0 17 38 0 0 0 3 2 2 2 4 6 10 9 5 3 0 2 0 0 0 0 0 0 0 0 1 1 0 0
37 28 25 23 25 27 38 36 19 21 20 5 18 31 25 23 1 24 7 52 0 0 0 2 3 10 7 1 2 0 2 9 0 0 0 1 1 0 0 0 1 1 0 0 1 1 0
32 27 25 36 28 37 30 24 19 20 14 16 23 20 18 0 8 42 0 0 0 0 0 0 12 13 9 1 1 4 4 3 1 1 0 0 0 0 0 0 1 0 1 0 0 0 0
32 22 27 26 36 24 21 23 23 31 20 20 17 7 6 29 20 4 5 0 13 0 1 7 6 7 8 1 2 13 2 6 2 2 0 0 0 0 0 0 0 1 0 0 3 0 0
35 21 30 36 23 27 28 13 15 20 11 4 10 4 14 21 9 0 1 9 1 1 0 2 2 3 1 3 3 7 4 0 1 0 1 0 0 0 0 1 0 0 0 0 1 0 0
45 27 26 25 31 7 30 8 17 18 16 17 1 2 22 31 12 3 0 0 9 3 4 3 1 2 1 1 2 0 0 0 1 1 3 1 0 0 0 0 0 0 1 1 0 2 1
44 36 36 24 23 7 21 6 8 19 24 2 0 0 18 19 6 4 1 1 9 1 0 0 0 0 0 0 1 0 0 0 0 0 2 2 2 0 0 0 0 0 0 0 0 0 0
25 27 35 26 23 19 15 6 8 10 13 1 0 2 1 4 1 0 1 3 10 4 20 4 0 0 0 0 0 0 0 0 0 0 1 0 2 0 0 0 0 0 0 0 0 0 0
16 27 20 22 16 11 24 6 6 0 7 0 1 0 2 6 6 0 1 14 10 21 5 0 0 0 0 0 0 0 0 0 0 0 0 4 3 0 0 0 0 0 1 1 1 0 0
16 30 28 17 15 15 19 8 7 0 0 0 2 3 6 0 8 1 2 3 5 3 0 0 0 0 0 0 0 0 0 0 0 0 0 1 1 2 0 0 1 0 0 0 0 0 0
16 15 28 7 19 8 15 9 7 1 0 0 0 1 0 0 7 0 0 9 10 0 0 0 0 0 0 2 2 0 3 2 3 0 0 3 1 3 1 1 0 0 0 1 2 1 2
17 9 13 7 11 11 10 11 10 2 1 1 0 1 1 5 2 0 1 2 0 0 0 0 1 0 2 5 2 7 2 0 1 1 2 3 1 0 0 0 0 0 1 2 0 1 2
9 5 5 4 0 5 10 8 14 0 9 1 1 2 1 2 3 0 0 0 0 0 2 0 1 4 4 0 0 2 5 4 7 1 0 3 0 1 0 0 0 0 0 0 2 1 2
6 4 3 5 3 1 14 12 12 0 2 0 0 2 2 9 1 2 1 0 0 0 4 2 1 1 0 0 3 1 4 0 0 0 9 3 5 0 0 2 0 1 0 0 1 0 0
6 7 2 2 0 0 2 9 1 0 0 0 1 0 1 1 4 2 0 0 0 4 1 0 0 1 0 8 15 1 2 1 1 2 0 5 0 2 0 0 1 0 0 0 0 0 0
9 7 6 1 0 0 0 0 1 1 1 0 0 0 1 3 1 2 0 0 0 2 8 3 1 2 3 5 4 2 0 1 1 6 1 1 2 1 0 0 0 0 0 0 0 0 0
10 8 6 6 0 0 1 0 2 3 1 0 0 1 0 2 0 0 3 8 9 2 5 2 0 1 5 9 2 3 7 11 0 0 6 1 1 1 1 0 0 0 0 0 0 0 0
9 13 10 9 6 0 1 4 2 4 4 7 2 0 4 2 0 0 8 6 14 21 15 0 9 3 5 0 2 2 2 0 4 0 0 0 0 1 0 4 0 0 0 0 0 0 0

GFSGBSN_con_mlcape_018.txt.gz
CAPE
7 9 5 22 15 16 19 15 10 12 14 14 10 12 6 7 4 11 4 6 7 34 31 1 0 0 0 25 28 11 17 35 59 49 0 11 0 0 0 0 0 0 0 0 0 0 0
4 16 36 32 21 29 25 35 41 39 33 19 15 17 20 18 11 12 10 4 9 10 21 9 0 0 0 11 28 0 0 1 30 51 40 14 12 10 12 7 1 1 0 0 0 0 0
30 28 11 13 34 31 30 32 55 67 77 63 52 33 7 20 30 11 15 3 11 11 56 26 8 0 2 0 0 0 0 4 18 56 50 37 32 16 17 7 6 0 0 0 0 0 0
42 25 36 47 55 41 28 42 56 67 60 61 94 82 48 10 26 15 17 5 12 4 39 23 54 1 5 0 0 0 0 3 9 69 59 32 1 9 10 2 3 0 0 0 0 0 0
18 43 22 37 41 36 36 43 63 29 53 68 91 84 61 20 20 27 28 35 6 1 14 7 25 12 1 0 0 0 0 2 47 52 50 13 6 2 0 0 0 0 0 0 0 0 0
28 20 26 40 40 29 27 45 47 59 74 82 78 69 65 39 37 42 27 33 0 0 73 42 43 18 0 0 0 0 0 2 33 40 45 50 1 0 0 0 0 0 0 0 0 0 0
22 29 26 37 36 41 33 38 44 57 62 69 80 82 105 78 54 65 25 0 26 49 14 3 0 1 0 0 0 0 0 1 7 23 1 4 1 0 0 0 0 0 0 0 0 0 0
8 26 23 27 32 31 32 37 42 44 38 49 61 66 61 66 90 111 57 10 0 1 2 12 3 16 0 0 0 0 0 2 0 1 2 0 0 0 0 0 0 0 0 0 0 0 0
17 16 25 31 33 29 30 29 23 39 32 30 26 24 13 37 95 63 47 3 6 2 3 2 7 12 3 0 0 0 0 1 0 3 0 1 0 0 0 0 0 0 0 0 0 0 0
17 19 24 37 24 23 19 21 36 38 21 21 17 4 21 34 11 14 0 34 8 17 0 2 0 10 0 4 2 0 0 0 5 3 4 1 0 0 0 0 0 0 0 0 0 0 0
35 18 26 34 23 29 25 25 22 28 23 19 20 18 20 3 9 3 3 17 4 0 0 2 2 2 0 0 0 2 1 1 2 0 0 1 0 0 0 0 0 0 0 0 0 0 0
19 20 31 31 29 27 22 20 19 16 17 12 20 34 41 17 2 0 1 21 0 0 0 1 1 2 7 14 6 1 3 0 0 0 1 0 0 0 0 0 0 0 0 0 0 0 0
19 20 32 33 32 24 25 18 10 17 26 32 36 53 36 32 8 2 11 2 0 0 0 1 3 7 4 8 12 4 2 1 0 0 0 0 0 0 0 0 0 0 0 0 0 0 0
22 23 37 31 36 31 21 28 1 6 36 29 24 58 17 6 1 4 3 0 0 0 0 0 4 2 1 4 5 6 2 3 4 0 0 0 0 0 0 0 0 1 0 0 0 0 0
15 29 28 31 43 24 23 19 4 16 18 8 90 27 23 31 33 0 4 0 0 0 4 4 10 3 2 3 1 6 6 3 2 1 0 0 0 0 0 0 0 0 0 0 0 0 0
22 31 32 26 38 26 24 9 12 25 14 63 6 7 15 38 6 1 2 2 0 1 0 0 0 4 1 0 4 5 1 0 0 0 0 0 0 0 0 0 0 0 0 0 1 0 0
25 23 33 32 18 9 17 4 8 19 31 2 1 2 7 25 1 3 0 0 2 3 0 4 0 1 0 0 5 1 0 0 0 0 1 0 1 0 0 0 0 0 0 0 0 0 0
23 18 25 35 24 12 18 3 4 14 25 0 1 1 6 8 1 0 0 0 4 2 6 0 1 0 0 0 0 0 0 0 0 0 1 0 0 0 0 0 0 0 0 0 1 0 0
15 20 35 28 24 11 11 0 0 4 11 2 11 4 0 0 1 1 0 1 0 4 14 0 0 0 0 0 0 2 0 0 0 0 2 0 0 0 0 0 0 0 0 0 0 0 0
15 18 21 23 32 10 11 2 0 0 1 0 0 0 0 0 0 0 1 3 1 11 6 1 0 0 0 0 1 0 0 0 0 0 0 0 1 0 0 0 0 0 0 0 0 0 0
17 12 8 16 32 16 7 5 0 0 0 0 1 1 0 0 0 0 3 4 1 0 0 0 0 0 0 1 0 0 2 0 0 0 0 0 0 0 0 0 0 0 0 0 0 0 1
14 9 4 5 6 16 5 5 0 0 0 0 0 0 0 0 0 0 0 0 1 0 1 0 0 0 0 1 8 0 0 0 0 0 0 0 0 0 0 0 0 0 0 0 0 2 2
13 7 4 5 3 15 11 6 0 0 0 1 0 0 1 1 0 0 0 1 1 1 0 0 0 0 4 2 1 0 1 0 0 0 0 1 0 0 0 0 0 0 0 0 1 1 2
11 9 7 4 0 1 12 1 0 0 0 1 2 2 1 0 0 0 1 0 0 2 0 0 2 1 3 0 0 0 0 0 5 0 0 1 0 0 0 0 0 0 0 0 1 0 1
10 9 8 10 1 0 2 0 0 0 0 0 2 1 2 0 3 0 0 0 0 0 0 0 0 1 0 0 0 1 2 0 0 1 0 1 0 0 0 0 0 0 1 0 0 0 0
13 7 7 8 9 2 0 3 0 0 0 0 0 0 1 1 1 1 2 5 0 0 1 0 0 0 0 0 0 0 1 2 0 0 1 0 3 0 1 3 0 0 0 0 0 0 0
26 8 9 9 7 9 6 5 2 1 0 0 0 0 1 1 0 0 3 2 3 5 4 3 0 0 0 0 0 1 0 1 0 1 0 2 2 0 0 0 0 0 0 0 0 0 0
30 12 13 14 11 9 5 9 12 4 1 1 0 0 0 1 0 0 2 8 8 0 2 2 0 0 0 1 0 4 1 5 0 0 0 0 0 0 1 1 0 0 0 0 0 0 0
36 16 5 19 19 11 14 12 15 18 3 3 1 4 0 1 0 0 0 0 4 12 12 3 9 0 3 0 0 0 0 0 0 0 0 2 1 3 0 0 0 0 0 0 0 0 0

GFSGBSN_con_mlcape_021.txt.gz
CAPE
16 33 20 19 26 33 31 26 38 43 42 41 44 41 31 44 22 26 7 17 1 6 9 99 19 21 0 12 0 3 50 10 45 10 0 0 0 0 0 0 0 0 0 0 0 0 0
22 25 14 39 43 45 21 26 38 53 71 63 38 63 57 54 44 28 23 12 6 4 7 70 31 32 1 0 0 2 3 53 53 0 0 6 0 0 0 0 0 0 0 0 0 0 0
13 39 8 13 16 38 30 34 36 59 59 41 58 102 85 80 58 25 11 20 9 8 6 13 19 13 8 0 0 0 0 0 6 28 0 28 37 25 10 1 0 1 0 0 0 0 0
41 30 22 33 40 28 24 36 34 46 70 70 84 71 77 66 47 18 23 21 12 5 5 6 11 33 0 0 0 0 0 0 2 35 28 32 18 21 15 0 0 0 0 0 0 0 0
20 14 21 27 25 26 32 31 31 47 55 76 66 64 82 85 83 52 37 30 5 15 1 2 23 18 0 0 0 0 0 6 8 79 33 17 8 15 1 9 2 0 0 0 0 0 0
24 18 30 23 28 30 32 26 30 40 53 45 38 43 62 79 95 68 62 33 5 6 0 81 12 15 0 0 0 0 0 0 41 64 35 15 5 1 0 0 0 0 0 0 0 0 0
21 17 25 22 23 15 35 23 18 32 34 29 26 35 26 49 55 66 27 0 1 13 10 10 1 0 0 0 0 0 0 1 27 16 0 11 0 0 0 0 0 0 0 0 0 0 0
27 11 26 37 27 19 25 27 22 40 30 18 25 23 25 19 55 104 63 0 6 1 0 12 1 6 0 0 0 0 0 14 6 10 0 0 2 0 0 0 0 0 0 0 0 0 0
24 9 31 40 29 31 28 23 23 26 26 23 15 21 16 29 7 16 11 22 11 0 0 20 18 4 0 0 0 0 0 0 0 3 0 0 0 0 0 0 0 0 0 0 0 0 0
17 6 24 27 32 34 23 26 21 21 19 12 7 7 12 11 0 0 1 37 2 0 0 2 4 3 0 2 0 0 3 0 2 3 1 0 0 0 0 0 0 0 0 0 0 0 0
15 9 28 29 32 36 23 23 32 24 14 19 29 38 47 59 0 0 6 0 0 0 0 0 1 5 8 0 0 1 0 1 2 1 0 0 0 0 0 0 0 0 0 0 0 0 0
9 24 42 26 39 38 18 17 27 14 10 20 36 50 95 35 2 0 0 1 0 0 0 1 0 11 15 14 2 0 0 0 0 5 0 0 0 0 0 0 0 0 0 0 0 0 0
9 22 30 24 34 32 22 20 15 16 25 18 26 87 45 25 3 0 6 2 0 0 0 0 4 5 3 8 1 1 1 0 0 0 0 1 0 0 0 0 0 0 0 0 0 0 0
16 9 22 24 38 19 6 23 17 26 16 4 58 46 24 19 14 0 1 0 0 0 0 0 2 7 2 0 3 2 2 2 0 0 0 0 0 0 0 0 0 0 0 0 0 0 0
14 11 32 32 43 11 23 24 8 20 3 19 0 3 11 20 8 4 1 0 0 0 0 6 2 2 8 6 0 2 1 0 0 0 0 0 0 0 0 0 0 0 0 0 0 0 0
7 17 34 36 31 14 16 20 22 8 20 0 0 0 10 28 25 0 5 0 0 2 0 0 0 3 1 5 0 4 2 0 0 0 0 0 0 0 0 0 0 0 0 0 0 0 0
10 13 13 31 26 9 11 11 10 7 4 0 0 0 1 16 1 0 0 0 1 0 2 0 0 0 0 1 0 0 0 0 0 0 0 0 0 0 0 0 0 0 0 0 0 0 0
11 13 8 22 28 5 6 7 1 3 0 0 0 0 0 0 0 1 0 0 6 3 11 7 0 0 0 0 0 0 0 0 0 0 0 0 0 0 0 0 0 0 0 0 0 0 0
7 13 5 13 13 2 4 4 0 1 0 0 0 0 0 0 0 0 0 0 5 5 0 0 0 0 0 0 0 0 0 0 0 0 0 0 0 0 0 0 0 0 0 0 0 0 0
11 6 3 5 9 4 4 5 0 0 0 0 0 0 0 0 0 0 0 0 0 0 0 0 0 0 0 0 0 0 0 0 0 0 0 0 0 0 0 0 0 0 0 0 0 0 0
12 5 1 6 5 4 4 1 0 0 0 0 0 0 2 0 0 0 0 0 0 0 0 0 0 0 0 0 0 0 0 0 0 0 0 0 0 0 0 0 0 0 0 0 0 0 0
15 12 1 2 2 2 0 0 0 0 0 0 0 0 0 0 0 0 0 0 0 0 0 0 0 0 0 0 0 0 0 0 0 0 0 0 0 0 0 0 0 0 0 0 0 0 1
17 13 10 2 1 2 1 0 0 0 0 1 0 0 1 0 0 0 0 0 0 0 0 0 0 0 0 1 2 0 2 1 0 0 0 0 0 0 0 0 0 0 0 0 0 1 0
12 12 12 11 3 0 2 1 0 0 0 0 1 1 0 0 0 0 0 0 0 0 0 0 0 0 0 0 0 0 0 2 1 0 0 0 0 0 0 0 0 0 0 0 0 0 0
1 15 11 10 15 8 0 1 2 0 0 0 1 1 1 0 0 0 1 0 0 0 0 0 0 0 0 0 0 0 0 0 0 0 0 0 0 0 0 0 0 0 0 0 0 0 0
3 25 2 13 8 11 15 2 0 2 0 0 1 0 1 0 0 0 5 0 0 0 0 0 0 0 0 0 0 0 0 0 1 1 1 0 0 0 0 0 0 0 0 0 0 0 0
1 20 12 4 15 12 8 5 21 7 0 0 1 0 0 2 0 0 9 1 17 1 1 0 0 0 0 0 0 0 0 0 0 0 2 2 1 0 0 0 0 0 0 0 0 0 0
0 12 11 3 5 21 9 13 13 17 16 0 0 6 0 0 0 0 0 0 7 5 2 2 0 0 0 0 0 0 0 1 1 0 0 0 0 0 0 0 0 0 0 0 0 0 0
7 6 6 0 6 9 20 12 17 13 11 7 0 0 16 0 0 0 0 0 0 0 11 11 4 0 0 0 0 0 0 0 0 0 0 2 0 0 0 0 0 0 0 0 0 0 0

GFSGBSN_con_mlcape_024.txt.gz
CAPE
4 11 39 5 20 20 20 27 25 37 43 57 44 45 65 83 64 59 36 17 9 5 0 1 3 50 4 1 0 0 92 186 64 19 0 0 0 0 0 0 0 0 0 0 0 0 0
22 25 11 16 22 30 25 25 26 34 33 44 75 92 105 105 44 63 22 8 1 10 0 0 1 54 0 0 0 0 105 103 35 2 0 0 0 0 0 0 0 0 0 0 0 0 0
17 19 13 17 32 32 29 32 41 35 34 44 46 68 78 75 67 46 23 24 10 16 3 3 0 35 0 0 0 34 152 76 61 18 0 0 9 5 0 0 0 0 0 0 0 0 0
16 22 18 28 26 25 27 21 23 40 42 33 35 36 39 76 82 83 69 45 3 2 5 8 1 27 0 0 0 0 0 1 34 40 12 24 41 16 1 0 0 0 0 0 0 0 0
20 22 15 39 25 27 36 30 34 25 29 30 29 23 34 42 59 82 66 55 19 11 4 6 2 14 0 0 0 0 0 0 7 48 42 40 45 26 5 0 0 0 0 0 0 0 0
17 28 28 36 36 35 34 26 30 27 26 26 31 32 44 45 42 46 62 56 7 5 0 0 16 3 0 0 0 0 0 0 66 80 67 38 24 10 1 6 0 0 0 0 0 0 0
15 27 19 30 33 37 35 41 27 41 27 23 25 18 23 29 31 50 24 0 2 0 1 6 8 0 0 0 0 0 0 0 54 37 7 5 1 0 0 0 0 0 0 0 0 0 0
18 18 12 28 31 44 37 31 27 38 38 29 12 11 2 10 31 13 0 0 2 0 0 0 6 1 0 0 0 0 0 18 37 6 1 0 3 0 0 0 0 0 0 0 0 0 0
7 12 25 31 30 26 33 31 37 43 24 14 15 21 15 20 10 0 0 0 3 2 0 0 22 8 0 0 0 0 0 1 30 0 0 0 0 0 0 0 0 0 0 0 0 0 0
9 15 23 33 30 27 26 23 30 28 17 26 37 61 67 76 9 0 2 21 0 0 0 1 4 13 1 0 0 0 5 2 0 2 0 0 0 0 0 0 0 0 0 0 0 0 0
15 20 19 19 27 27 20 11 24 21 18 27 43 67 94 128 0 1 0 0 0 0 0 1 7 10 9 0 0 2 0 1 0 0 0 0 0 0 0 0 0 0 0 0 0 0 0
10 14 24 25 36 33 12 29 24 19 25 44 109 113 94 12 5 3 1 0 0 0 0 0 2 0 13 1 0 6 2 0 3 11 0 0 0 0 0 0 0 0 0 0 0 0 0
15 10 23 25 30 27 22 15 22 22 56 95 18 29 23 6 5 2 3 0 0 0 0 0 2 9 1 5 5 13 1 4 3 6 0 0 0 0 0 0 0 0 0 0 0 0 0
14 7 21 26 28 30 16 18 22 20 60 6 6 14 24 16 0 0 1 0 0 0 0 0 7 7 1 3 9 4 1 1 0 0 0 0 0 0 0 0 0 0 0 0 0 0 0
11 7 13 8 22 23 14 11 4 3 18 1 0 0 3 2 0 0 0 0 0 0 1 2 0 0 2 0 0 0 0 0 0 0 0 0 0 0 0 0 0 0 0 0 0 0 0
6 5 4 12 18 12 9 8 3 5 4 0 0 0 0 0 0 0 0 0 0 0 0 0 0 0 0 0 0 0 0 0 0 0 0 0 0 0 0 0 0 0 0 0 0 0 0
6 7 2 2 4 6 10 5 1 2 0 0 0 0 0 0 0 0 0 0 3 6 0 0 0 0 0 0 0 0 0 0 0 0 0 0 0 0 0 0 0 0 0 0 0 0 0
1 2 1 2 4 5 5 1 0 3 0 0 0 0 0 0 0 0 0 0 0 10 0 0 0 0 0 0 0 0 0 0 0 0 0 0 0 0 0 0 0 0 0 0 0 0 0
6 1 1 1 2 1 0 0 0 0 0 0 0 0 0 0 0 0 0 0 0 0 0 0 0 0 0 0 0 0 0 0 0 0 0 0 0 0 0 0 0 0 0 0 0 0 0
8 1 0 1 1 0 0 0 0 0 0 0 0 0 0 0 0 0 0 0 0 0 0 0 0 0 0 0 0 0 0 0 0 0 0 0 0 0 0 0 0 0 0 0 0 0 0
4 3 0 0 2 0 0 0 0 0 0 0 0 0 0 0 0 0 0 0 0 0 0 0 0 0 0 0 0 0 0 0 0 0 0 0 0 0 0 0 0 0 0 0 0 0 0
0 6 1 0 3 1 0 0 0 0 0 0 0 0 0 0 0 0 0 0 0 0 0 0 0 0 0 0 0 0 0 0 0 0 0 0 0 0 0 0 0 0 0 0 0 0 0
0 14 4 3 0 4 0 0 0 0 0 0 0 0 2 0 0 0 0 0 0 0 0 0 0 0 0 0 0 0 0 0 0 0 0 0 0 0 0 0 0 0 0 0 0 0 0
0 10 0 7 8 2 2 0 0 1 0 0 1 1 1 0 0 0 0 0 0 0 0 0 0 0 0 0 0 0 0 0 0 0 0 0 0 0 0 0 0 0 0 0 0 0 0
1 6 15 0 18 12 12 0 0 0 0 0 0 0 1 0 0 0 0 0 0 0 0 0 0 0 0 0 0 0 3 1 0 0 0 0 0 0 0 0 0 0 0 0 0 0 0
3 11 22 2 1 17 16 11 3 2 0 0 1 0 0 1 0 0 0 0 0 0 0 0 0 0 0 0 0 0 0 0 0 0 0 0 0 0 0 0 0 0 0 0 0 0 0
1 11 17 7 0 0 17 7 18 21 7 0 0 0 0 1 0 0 0 2 0 0 0 0 0 0 0 0 0 0 0 3 0 0 0 1 2 0 0 0 0 0 0 0 0 0 0
16 12 12 15 4 0 0 15 9 17 18 4 0 0 0 0 0 0 0 0 1 0 7 0 0 0 0 0 0 0 0 0 0 1 0 0 0 0 0 0 0 0 0 0 0 0 0
24 11 10 16 13 0 0 12 5 12 13 9 0 0 0 8 0 0 0 0 0 0 2 9 0 0 0 0 0 0 0 0 0 0 0 2 0 0 0 0 0 0 0 0 0 0 0

GFSGBSN_con_mlcape_027.txt.gz
CAPE
25 7 5 12 9 31 37 29 37 30 46 34 28 36 46 49 76 51 87 62 41 4 2 1 0 1 8 2 0 0 66 196 15 59 4 5 0 0 0 0 0 0 0 0 0 0 0
23 14 13 15 31 25 25 18 27 39 35 32 26 35 35 40 44 64 80 74 17 17 12 7 0 3 4 0 0 0 0 204 149 32 9 1 1 0 0 0 0 0 0 0 0 0 0
11 17 13 14 34 26 43 23 40 36 21 34 31 35 37 23 34 65 93 84 53 33 15 16 7 5 9 0 0 1 42 99 142 52 5 0 0 0 0 0 0 0 0 0 0 0 0
16 10 15 13 14 32 37 49 47 42 50 34 39 32 30 34 37 55 99 115 86 70 11 16 7 12 3 0 0 0 104 90 102 80 21 4 23 29 0 0 0 0 0 0 0 0 0
10 13 26 3 27 32 38 45 49 44 61 61 51 41 44 38 36 55 67 95 91 73 14 21 3 11 0 0 0 0 0 56 76 87 33 21 14 24 2 3 0 0 0 0 0 0 0
14 13 21 11 27 33 32 31 51 44 59 58 42 24 20 10 20 27 35 36 39 45 3 3 0 1 0 0 0 0 0 26 125 101 75 29 33 8 5 10 0 0 0 0 0 0 0
16 19 11 23 31 29 31 30 42 41 45 65 42 8 11 10 9 27 0 0 0 0 19 0 8 1 0 1 1 0 0 25 128 76 3 27 28 0 0 0 0 0 0 0 0 0 0
5 5 23 22 17 28 19 26 30 29 36 48 29 23 50 31 39 10 0 0 0 2 0 0 0 1 0 4 1 0 0 20 50 19 2 1 4 11 0 0 2 2 1 0 0 0 0
6 10 17 31 21 34 38 11 18 25 22 18 22 31 51 81 44 0 0 0 5 2 0 0 2 2 6 10 0 2 0 28 14 3 4 0 1 7 2 3 6 0 0 0 0 0 0
5 16 10 36 14 21 17 21 15 14 61 129 123 41 19 59 1 0 0 24 1 0 0 2 2 6 16 0 0 0 0 8 8 4 0 0 0 0 2 0 0 0 0 0 0 0 0
14 10 15 41 11 29 17 20 25 60 56 56 91 102 34 39 0 0 0 1 0 0 0 0 2 3 5 3 0 1 0 3 7 0 0 0 0 0 2 0 0 0 0 0 0 0 0
7 12 13 19 20 31 14 18 19 28 29 16 21 19 14 0 0 0 7 0 0 0 0 0 2 2 0 1 0 2 6 0 0 0 0 0 0 0 0 0 0 0 0 0 0 0 0
10 8 16 12 11 16 11 22 7 32 23 12 10 3 0 0 1 0 0 0 0 0 0 0 1 3 3 8 10 4 3 2 3 0 0 0 0 0 0 0 0 0 0 0 0 0 0
7 5 9 10 3 7 8 12 12 11 30 0 0 0 0 0 0 0 0 0 0 0 0 2 5 4 1 7 9 1 0 2 0 0 0 0 0 0 0 0 0 0 0 0 0 0 0
11 4 4 3 2 6 7 5 1 3 0 8 0 0 0 0 0 0 0 0 0 0 2 2 0 0 0 0 3 0 0 1 0 0 0 0 0 0 0 0 0 0 0 0 0 0 0
14 3 4 1 0 1 4 3 0 1 0 0 0 0 1 4 0 0 0 0 1 0 0 0 0 0 1 1 0 0 0 0 1 0 0 0 0 0 0 0 0 0 0 0 0 0 0
8 3 5 2 0 0 0 2 2 1 1 0 0 0 0 0 0 0 0 1 1 0 0 0 0 0 0 0 0 0 0 0 0 0 0 0 0 0 0 0 0 0 0 0 0 0 0
6 4 2 4 0 0 0 0 1 1 2 0 0 0 0 0 0 0 0 0 1 1 0 0 0 0 0 0 0 0 0 0 0 0 0 0 0 0 0 0 0 0 0 0 0 0 0
6 6 2 2 1 0 0 0 0 0 2 0 0 0 0 0 0 0 0 0 0 0 0 0 0 0 0 0 0 0 0 0 0 0 0 0 0 0 0 0 0 0 0 0 0 0 0
5 14 3 1 2 0 0 0 0 0 0 0 0 0 0 0 0 0 0 0 0 0 0 0 0 0 0 0 0 0 0 0 0 0 0 0 0 0 0 0 0 0 0 0 0 0 0
1 17 6 1 2 1 0 0 0 0 0 0 0 0 0 0 0 0 0 0 0 0 0 0 0 0 0 0 0 0 0 0 0 2 0 0 0 0 0 0 0 0 0 0 0 0 0
1 4 10 6 0 0 0 0 0 0 0 0 0 0 0 0 0 0 0 0 0 0 0 0 0 0 0 0 0 0 0 0 0 0 0 0 0 0 0 0 0 0 0 0 0 0 0
3 2 25 6 2 1 0 0 0 0 0 0 0 0 1 0 0 0 0 0 0 0 0 0 0 0 0 0 0 0 0 0 0 0 0 0 0 0 0 0 0 0 0 0 0 0 0
4 1 18 6 2 12 1 0 0 1 0 0 0 1 1 0 0 0 0 0 0 0 0 0 0 0 0 0 0 0 0 0 0 0 0 0 0 0 0 0 0 0 0 0 0 0 0
2 4 15 32 0 13 19 2 0 1 0 0 0 0 0 0 0 0 0 0 0 0 0 0 0 0 0 0 0 0 1 0 0 0 0 0 0 0 0 0 0 0 0 0 0 0 0
2 5 12 44 2 1 7 14 6 4 1 0 1 0 0 0 0 0 0 0 0 0 0 0 0 0 0 0 0 0 0 0 0 0 0 0 0 0 0 0 0 0 0 0 0 0 0
23 19 23 23 29 4 0 2 9 10 17 0 0 0 0 0 0 1 0 0 0 0 0 0 0 0 0 0 0 0 0 0 0 0 0 0 1 0 0 1 0 0 0 0 0 0 0
1 16 19 6 19 18 3 0 17 15 18 6 0 0 0 0 0 0 0 0 0 0 0 0 0 0 0 0 0 0 0 0 0 0 0 0 0 0 1 3 0 0 0 0 0 0 0
0 9 5 15 34 18 13 1 0 3 14 7 1 1 4 0 0 0 0 0 0 0 0 0 0 0 0 0 0 0 0 0 0 0 0 0 0 0 0 0 0 0 0 0 0 0 0

GFSGBSN_con_mlcape_030.txt.gz
CAPE
30 20 13 23 22 19 24 31 33 45 56 35 41 44 42 40 39 29 39 66 100 73 41 14 11 14 6 18 0 0 37 268 1 33 12 26 4 0 0 0 0 0 0 0 0 0 0
14 27 28 30 18 11 34 36 49 39 50 53 48 44 40 48 46 37 55 96 94 92 57 5 13 21 7 2 0 0 0 264 27 91 19 23 14 0 0 0 0 0 0 0 0 0 0
23 26 11 31 10 22 38 50 48 39 52 63 57 70 64 46 68 62 77 112 137 113 57 44 27 21 10 2 0 0 5 266 142 173 19 17 7 0 0 0 0 0 0 0 0 0 0
24 26 29 8 21 31 40 41 35 45 47 55 66 74 65 58 53 66 100 140 138 133 78 28 29 22 21 4 0 0 0 81 179 97 24 6 8 15 0 0 0 0 0 0 0 0 0
22 21 21 24 31 24 26 25 28 36 40 31 68 90 61 56 24 41 94 89 103 138 124 52 15 4 18 0 1 0 0 116 79 73 37 50 49 41 5 0 0 0 0 0 0 0 0
22 19 21 17 32 25 35 25 19 19 19 21 32 72 31 20 15 15 61 13 59 97 74 29 5 1 3 1 3 0 0 103 64 73 36 20 24 18 8 3 0 1 0 0 0 0 0
20 17 20 11 40 20 17 10 8 21 34 28 20 20 31 45 29 50 0 0 0 0 18 0 15 4 6 0 0 0 0 67 28 53 0 3 12 0 5 8 0 0 0 0 0 0 0
13 7 24 21 51 28 34 21 15 37 89 117 141 42 22 43 69 27 0 0 0 1 0 0 2 11 2 4 0 0 0 12 31 4 9 6 5 0 0 0 0 0 0 0 0 0 0
14 12 8 27 18 23 19 10 18 23 44 77 96 113 0 5 42 1 0 0 0 0 0 0 2 2 1 4 13 1 6 31 32 21 4 5 0 6 7 1 6 8 1 0 0 0 0
9 12 17 19 17 26 6 7 14 32 51 46 47 58 42 2 2 0 0 0 0 0 0 0 4 3 26 17 10 1 5 10 4 8 1 1 0 0 1 2 5 0 0 0 0 0 0
10 4 5 13 10 12 7 11 4 14 36 25 22 16 1 20 0 0 0 2 0 0 0 0 1 0 9 5 0 1 0 1 0 0 0 1 3 5 5 2 0 0 0 0 0 0 0
7 10 5 14 9 7 5 6 5 6 23 14 30 27 2 0 0 2 0 0 0 0 0 0 1 16 3 10 0 1 0 0 0 0 0 0 0 0 1 0 0 0 0 0 0 0 0
5 8 2 9 4 7 1 4 6 8 20 7 4 0 0 0 0 0 0 0 0 0 0 0 1 0 0 14 2 3 6 2 2 0 0 0 0 0 0 0 0 0 0 0 0 0 0
7 11 2 6 2 2 4 5 5 4 2 0 0 0 0 0 0 0 0 0 0 1 3 1 1 0 2 11 5 8 8 3 0 0 0 0 0 0 0 0 0 0 0 0 0 0 0
5 8 3 4 2 0 1 4 1 3 1 0 0 0 0 0 0 0 0 0 0 0 2 1 1 2 3 4 2 0 0 0 0 0 0 0 0 0 0 0 0 0 0 0 0 0 0
5 10 2 3 2 1 0 0 4 2 1 0 0 0 0 0 0 0 0 2 0 0 0 0 0 0 0 1 0 0 0 0 0 0 0 0 0 0 0 0 0 0 0 0 0 0 0
4 7 7 3 2 2 0 0 0 0 2 0 0 0 0 0 0 0 0 0 0 0 0 0 0 0 0 0 0 0 0 0 0 0 0 0 0 0 0 0 0 0 0 0 0 0 0
3 6 7 5 3 1 0 0 0 0 1 0 0 0 0 0 0 0 0 0 0 0 0 0 0 0 0 0 0 0 0 0 0 0 0 0 0 0 0 0 0 0 0 0 0 0 0
4 5 1 10 3 2 1 0 0 0 2 0 0 0 0 0 0 0 0 0 0 0 0 0 0 0 0 0 0 0 0 0 0 0 0 0 0 0 0 0 0 0 0 0 0 0 0
4 4 13 2 7 1 1 0 0 0 0 0 0 0 0 0 0 0 0 0 0 0 0 0 0 0 0 0 0 0 0 0 0 0 0 0 0 0 0 0 0 0 0 0 0 0 0
3 5 10 3 5 3 0 1 0 0 0 0 0 0 0 0 0 0 0 0 0 0 0 0 0 0 0 0 0 0 0 0 0 0 0 0 0 0 0 0 0 0 0 0 0 0 0
3 3 1 12 0 0 0 0 0 0 0 0 0 0 0 0 0 0 0 0 0 0 0 0 0 0 0 0 0 0 0 0 0 0 0 0 0 0 0 0 0 0 0 0 0 0 0
1 4 1 23 2 0 0 2 0 0 0 0 0 0 1 0 0 0 0 0 0 0 0 0 0 0 0 0 0 0 0 0 0 0 0 0 0 0 0 0 0 0 0 0 0 0 0
1 4 4 16 4 1 0 9 1 7 0 0 0 1 2 0 0 0 0 0 0 0 0 0 0 0 0 0 0 0 0 0 0 0 0 0 0 0 0 0 0 0 0 0 0 0 0
11 5 1 12 32 4 0 4 2 3 3 0 0 0 0 0 0 0 0 0 0 0 0 0 0 0 0 0 0 0 2 1 0 0 0 0 0 0 0 1 0 0 0 0 0 0 0
10 16 11 24 33 14 0 0 18 0 7 0 0 0 0 0 0 1 0 0 0 0 0 0 0 0 0 0 1 0 0 0 0 1 0 0 0 0 0 0 0 0 0 0 0 0 0
22 13 19 19 21 29 24 0 0 17 5 0 0 0 0 0 0 0 0 0 0 0 0 0 0 0 0 0 3 0 0 0 0 0 0 3 1 0 0 0 0 0 0 0 0 0 0
14 0 11 13 11 13 21 27 3 5 5 3 1 0 0 0 0 0 0 0 0 0 0 0 0 0 0 0 0 0 0 0 0 0 0 0 0 0 1 0 0 0 0 3 0 0 0
0 7 15 17 13 11 34 33 23 5 1 5 9 0 0 0 0 0 0 0 0 0 0 0 0 0 0 0 0 0 0 0 0 0 0 0 0 0 0 0 0 0 0 0 0 0 0

GFSGBSN_con_mlcape_033.txt.gz
CAPE
11 16 23 23 21 11 14 34 32 41 38 44 62 76 89 79 95 100 70 69 49 23 59 71 17 36 12 0 1 0 0 8 22 33 66 3 12 6 2 0 0 0 0 0 0 0 0
13 15 24 24 25 24 21 28 30 44 44 50 68 91 116 150 106 127 97 70 73 86 125 111 53 54 4 0 4 0 0 1 4 92 79 17 1 0 0 0 0 0 0 0 0 0 0
7 14 21 11 29 33 15 24 32 31 34 27 65 69 133 124 122 106 132 121 131 156 188 155 51 4 7 0 2 0 0 10 7 150 52 66 4 0 0 0 0 0 0 0 0 0 0
8 9 17 6 21 26 19 27 21 12 14 24 25 27 85 60 116 78 122 173 160 139 206 108 112 21 5 1 0 4 0 39 47 240 125 104 8 5 0 0 0 0 0 0 0 0 0
8 6 20 10 13 35 29 32 20 38 45 64 91 104 30 55 32 45 51 154 156 159 169 139 18 11 0 34 2 0 0 78 161 138 91 101 58 30 2 0 0 0 0 0 0 0 0
6 8 18 13 15 23 41 39 30 52 69 53 67 100 62 26 21 10 39 53 55 129 144 79 13 15 1 0 0 0 0 31 97 84 55 63 38 8 8 0 0 0 0 0 0 0 0
13 11 13 9 4 23 32 34 34 52 62 33 53 58 70 0 18 30 4 0 0 0 7 0 0 2 15 8 0 0 7 112 77 36 28 25 0 0 10 1 0 0 0 0 0 0 0
6 13 7 9 8 30 15 35 28 36 38 29 8 28 43 0 23 23 0 0 0 0 0 0 2 4 11 13 0 2 0 47 9 4 1 6 1 0 0 4 0 0 0 0 0 0 0
7 10 6 6 10 14 19 37 14 12 35 22 28 24 8 0 16 0 0 0 0 2 0 0 0 1 20 11 5 6 28 6 0 3 2 0 3 0 0 15 5 0 0 0 0 0 0
8 10 8 6 7 7 24 16 5 7 17 6 5 13 3 0 1 0 0 0 0 0 0 0 2 6 7 16 11 3 24 13 16 1 7 5 2 5 0 0 0 0 0 0 0 0 0
5 6 5 9 5 3 6 8 1 7 2 0 4 2 0 0 0 0 0 0 0 0 0 0 2 2 2 0 4 1 0 1 0 6 3 1 4 8 12 9 1 0 0 0 0 0 0
7 4 4 7 4 2 1 2 8 4 1 1 0 0 0 0 0 1 0 0 0 0 0 0 3 5 6 11 7 9 0 0 2 1 0 1 0 0 1 0 0 0 0 0 0 0 0
2 3 3 4 5 2 1 2 2 0 3 0 0 0 0 0 0 0 0 0 0 0 0 0 1 9 1 4 1 1 3 1 2 0 0 1 0 0 0 0 0 0 0 0 0 0 0
4 6 3 5 5 5 1 0 2 1 2 2 0 0 0 0 0 0 0 0 0 1 2 1 4 1 1 3 0 0 0 0 0 0 0 0 0 0 0 0 0 0 0 0 0 0 0
5 4 4 3 4 3 2 0 0 0 3 1 0 0 0 0 0 0 0 0 0 0 4 1 0 0 1 0 0 0 0 0 0 0 0 0 0 0 0 0 0 0 0 0 0 0 0
5 1 4 4 5 3 1 1 0 0 3 0 0 0 0 0 0 0 0 1 0 0 0 0 0 0 0 0 0 0 0 0 0 0 0 0 0 0 0 0 0 0 0 0 0 0 0
5 3 2 4 3 6 3 0 0 0 1 0 0 0 0 0 0 0 0 0 0 3 0 0 0 0 0 0 0 0 0 0 0 0 0 0 0 0 0 0 0 0 0 0 0 0 0
3 3 11 6 5 3 3 0 0 0 1 0 0 0 0 0 0 0 0 0 0 0 0 0 0 0 0 0 0 0 0 0 0 0 0 0 0 0 0 0 0 0 0 0 0 0 0
4 3 7 10 8 3 2 0 0 0 1 0 0 0 0 0 0 0 0 0 0 0 0 0 0 0 0 0 0 0 0 0 0 0 0 0 0 0 0 0 0 0 0 0 0 0 0
4 3 5 15 8 6 2 1 0 0 0 0 0 0 0 0 0 0 0 0 0 0 0 0 0 0 0 0 0 0 0 0 0 0 0 0 0 0 0 0 0 0 0 0 0 0 0
1 0 3 6 6 7 2 1 0 0 0 0 0 0 1 0 0 0 0 0 0 0 0 0 0 0 0 0 0 0 0 0 0 0 0 0 0 0 0 0 0 0 0 0 0 0 0
0 1 2 8 15 7 0 1 2 0 0 0 0 0 0 0 0 0 0 0 0 0 0 0 0 0 0 0 0 0 0 0 0 0 0 0 0 0 0 0 0 0 0 0 0 0 0
6 0 3 5 23 10 0 4 4 0 0 0 0 0 1 0 0 0 0 0 0 0 0 0 0 0 0 0 0 0 0 0 0 0 0 0 0 0 0 0 0 0 0 0 0 0 0
3 7 3 3 22 6 0 0 4 10 0 0 0 0 1 0 0 0 0 0 0 0 0 0 0 0 0 0 0 0 0 0 0 0 0 0 0 0 0 0 0 0 0 0 0 0 0
15 8 14 22 20 18 3 0 0 7 3 0 0 0 0 0 0 0 0 0 0 0 0 0 0 0 0 0 0 0 0 0 0 0 0 0 0 0 0 0 0 0 0 0 0 0 0
13 22 22 32 21 22 12 2 0 9 1 0 0 0 0 0 0 0 0 0 0 0 0 0 0 0 0 0 1 0 0 0 0 1 1 0 0 0 0 0 0 0 0 0 0 0 0
9 24 18 19 26 12 15 24 11 0 2 0 0 0 0 0 0 0 0 0 0 0 0 0 0 0 0 1 1 0 0 0 0 0 3 3 3 0 1 0 0 0 0 0 0 0 0
21 14 8 19 25 26 16 9 21 8 2 0 0 0 0 0 0 0 0 0 0 0 0 0 1 3 0 4 1 0 0 0 0 0 0 0 0 0 0 0 0 0 0 0 0 0 0
6 5 18 19 15 14 5 8 7 13 11 1 0 0 0 0 0 0 0 0 0 0 0 0 0 0 0 0 0 0 0 0 0 0 0 0 0 0 0 0 0 0 0 0 0 0 0

GFSGBSN_con_mlcape_036.txt.gz
CAPE
9 12 15 18 33 24 27 18 32 28 28 23 27 55 78 100 81 122 150 133 116 87 51 46 24 11 1 5 0 0 6 6 345 29 20 25 11 55 19 1 0 0 0 0 0 0 0
6 16 21 20 27 11 24 14 11 8 4 7 21 39 50 75 89 106 150 96 124 99 83 81 38 61 7 0 0 5 0 0 175 17 24 58 4 51 33 16 0 0 0 0 0 0 0
13 18 31 28 22 23 18 6 22 17 37 63 72 98 72 57 56 103 137 129 161 165 137 116 49 6 9 0 52 50 0 0 172 6 50 103 28 15 15 17 2 0 0 0 0 0 0
13 12 12 18 31 29 31 38 12 35 57 46 46 71 105 77 69 26 60 155 189 173 148 120 145 48 2 0 0 0 1 0 28 46 115 164 76 38 16 3 0 0 0 0 0 0 0
7 14 17 8 13 28 25 14 29 47 42 22 23 44 66 52 21 13 47 46 161 160 202 176 55 38 0 12 0 0 0 3 73 135 163 121 70 11 6 0 1 2 0 0 0 0 0
7 10 7 11 13 9 17 32 23 41 29 31 28 34 32 34 28 20 28 45 49 162 199 116 43 8 0 3 12 0 0 9 82 193 48 68 64 9 13 0 0 0 0 0 0 0 0
5 14 7 7 9 7 18 26 31 33 16 14 11 48 26 7 5 1 0 0 0 4 37 0 0 2 31 56 27 5 0 48 124 41 10 31 10 2 3 0 0 0 0 0 0 0 0
3 8 9 7 5 11 11 18 31 28 8 7 35 14 9 11 4 0 0 0 0 1 0 0 6 4 0 15 34 20 29 27 27 4 14 12 9 11 21 9 0 0 0 0 0 0 0
4 8 5 6 4 8 7 14 26 15 17 2 11 0 0 0 0 0 0 0 0 0 29 31 7 2 51 37 34 32 4 13 14 12 15 10 5 9 7 7 6 0 0 0 0 0 0
2 6 3 4 3 6 4 10 16 11 14 5 0 0 0 0 0 0 0 2 0 0 1 1 3 11 32 38 51 3 11 0 2 5 16 5 16 0 2 9 11 1 0 0 0 0 0
2 5 4 2 1 3 4 1 6 4 2 10 0 0 0 0 0 2 2 0 0 1 1 1 0 0 6 0 0 0 8 20 4 4 4 1 5 7 3 4 4 1 0 0 0 0 0
2 8 6 3 2 1 3 2 4 2 1 0 1 0 0 0 0 0 0 0 0 0 0 1 6 3 1 9 10 15 10 7 5 2 0 1 0 4 10 0 11 0 0 0 0 0 0
1 4 5 6 3 2 2 1 1 2 2 0 2 0 0 0 0 0 0 1 0 0 0 0 4 3 1 4 2 2 1 2 0 0 0 1 1 2 0 0 0 0 0 1 0 0 0
3 3 4 6 4 4 2 1 0 0 2 1 1 0 0 0 0 0 2 0 0 2 4 3 11 1 1 2 1 1 3 1 0 0 1 0 0 2 4 2 0 0 0 0 0 0 0
5 4 1 3 2 6 5 2 0 0 0 1 0 0 0 0 0 1 0 0 0 0 2 4 0 0 2 0 1 3 0 0 0 0 0 0 1 0 0 0 0 0 1 0 0 0 0
5 1 7 4 1 1 3 3 0 0 0 0 0 0 0 0 0 0 0 0 1 0 0 0 0 0 0 0 0 0 0 0 0 0 0 0 0 0 0 0 0 0 0 0 0 0 0
0 3 6 7 4 4 4 1 1 0 0 0 0 0 0 0 0 0 0 0 3 0 0 0 0 0 0 0 0 0 0 0 0 0 0 0 0 0 0 0 0 0 0 0 0 0 0
3 1 1 20 2 5 0 3 0 0 1 0 0 0 0 0 0 0 0 0 1 1 0 0 0 0 0 0 0 0 0 0 0 0 0 0 0 0 0 0 0 0 0 0 0 0 0
0 3 2 3 9 1 1 3 0 0 1 1 0 0 0 0 0 0 0 0 1 0 0 0 0 0 0 0 0 0 0 0 0 0 0 0 0 0 0 0 0 0 0 0 0 0 0
2 3 2 3 9 4 0 2 0 0 0 0 0 0 0 0 0 0 0 0 0 0 0 0 0 0 0 0 0 0 0 0 0 0 0 0 0 0 0 0 0 0 0 0 0 0 0
1 4 2 2 10 9 0 2 0 0 0 0 0 0 0 0 0 0 0 0 0 0 0 0 0 0 0 0 0 0 0 0 0 0 0 0 0 0 0 0 0 0 0 0 0 0 0
2 1 0 1 1 11 0 0 2 0 0 0 0 0 0 2 0 0 0 0 0 0 0 0 0 0 0 0 0 0 0 0 0 0 0 0 0 0 0 0 0 0 0 0 0 0 0
0 0 0 9 9 20 13 1 2 0 0 0 0 0 2 0 0 0 0 0 0 0 0 0 0 0 0 0 0 0 0 0 0 0 0 0 0 0 0 0 0 0 0 0 0 0 0
1 4 16 18 16 24 20 9 3 1 0 0 0 1 1 0 0 0 0 0 0 0 0 0 0 0 0 0 0 0 0 0 0 0 0 0 1 0 0 0 0 0 0 0 0 0 0
8 11 15 16 14 17 13 16 1 12 0 0 0 0 0 0 0 0 0 0 0 0 0 0 0 0 0 0 0 0 0 0 0 0 0 0 0 0 0 0 0 0 0 0 0 0 0
3 9 24 10 7 22 2 10 16 15 0 0 0 0 0 0 0 0 0 0 0 0 0 0 0 0 0 1 2 1 0 0 0 1 0 0 1 3 1 0 0 0 0 0 0 0 0
25 15 11 9 13 17 6 2 1 19 7 0 0 0 0 0 0 0 0 0 1 1 0 0 0 0 0 12 6 0 1 0 0 0 1 8 5 1 5 0 0 0 0 0 0 0 0
8 10 9 13 15 17 4 2 7 8 3 2 0 0 0 0 0 0 0 0 0 0 0 0 1 4 1 14 6 0 0 0 0 0 0 0 1 1 8 3 0 0 0 0 0 0 0
3 4 0 12 14 2 5 5 1 2 6 4 1 0 0 0 0 0 0 0 0 0 0 0 1 1 2 14 0 1 0 0 0 0 0 0 0 0 0 0 0 0 0 0 0 0 0

GFSGBSN_con_mlcape_039.txt.gz
CAPE
8 13 17 16 19 15 25 11 25 13 14 27 47 78 90 87 58 72 75 120 111 110 72 67 60 26 0 4 0 114 117 471 318 41 7 34 6 17 8 2 0 0 0 0 0 0 0
5 15 18 14 24 19 17 36 9 25 37 58 60 69 83 124 83 74 58 37 23 124 70 63 35 44 6 3 1 97 31 24 329 78 38 26 1 25 31 22 1 1 0 0 0 0 0
9 10 14 19 8 23 26 3 19 40 50 60 34 52 55 112 117 75 47 40 126 168 140 74 24 0 7 1 5 191 1 0 19 249 14 25 27 80 36 26 27 18 1 0 0 0 0
7 8 10 10 10 10 15 21 25 37 60 30 39 41 38 72 26 12 23 122 154 170 127 91 63 1 0 0 0 2 45 0 4 254 13 27 90 39 31 28 35 17 18 2 0 0 0
9 6 8 8 6 16 21 17 18 40 48 17 27 32 30 9 4 0 32 45 105 147 176 151 2 24 2 0 0 0 25 0 77 245 19 253 257 46 53 23 42 27 0 0 0 0 0
4 6 8 5 6 12 19 13 22 31 40 12 23 17 30 0 9 7 35 18 78 169 184 122 29 22 0 1 0 12 69 1 153 53 64 144 187 35 25 32 3 0 0 0 0 0 0
3 3 6 6 4 8 9 13 21 28 28 11 15 18 18 0 0 1 42 11 119 42 39 16 18 5 52 89 64 71 45 26 52 47 6 103 24 3 1 0 0 0 0 0 0 0 0
2 4 4 5 6 5 1 8 21 27 26 10 2 0 3 19 0 0 6 10 5 1 10 3 10 0 0 0 27 16 56 26 25 20 5 14 1 4 10 7 2 0 0 0 0 0 0
0 4 4 4 6 4 7 2 11 18 16 27 4 0 0 0 0 2 2 1 1 7 6 8 1 3 22 2 11 26 0 0 16 23 17 4 0 1 23 15 18 8 1 0 0 0 0
1 4 3 3 6 3 5 6 3 9 3 4 15 0 0 0 0 0 0 1 2 0 1 0 2 12 18 22 11 33 2 2 12 14 17 13 2 8 17 8 18 14 8 0 0 0 0
1 3 2 4 4 2 4 4 4 2 3 1 3 4 0 0 0 0 0 0 2 2 36 1 5 0 40 36 16 1 16 3 2 6 1 1 7 8 9 10 22 28 0 0 0 0 0
1 2 3 4 4 5 3 4 4 2 2 2 1 1 0 0 0 0 0 0 2 0 0 9 6 23 2 14 2 5 8 0 1 1 0 1 0 1 16 2 23 0 0 0 0 0 0
1 0 2 4 2 4 5 2 2 2 0 0 1 5 0 0 0 0 0 0 1 0 0 1 9 4 3 4 5 7 5 1 0 0 0 1 0 1 0 3 0 0 4 3 2 1 0
0 1 2 5 3 2 6 4 3 0 1 0 3 0 0 0 0 2 0 1 0 3 3 7 8 2 1 5 2 2 3 2 4 3 0 0 0 0 0 1 0 0 7 16 0 0 0
0 0 0 10 3 6 3 6 2 0 0 3 0 0 0 0 3 1 2 0 0 1 3 1 1 1 3 2 0 8 5 2 1 2 0 0 0 3 5 0 0 0 0 0 0 0 0
0 0 2 8 3 4 3 3 2 0 0 1 0 0 0 0 1 0 0 0 6 1 0 0 1 0 3 2 2 6 5 0 0 0 0 0 0 0 3 1 0 1 0 0 0 0 0
2 2 3 2 5 2 1 3 2 1 0 0 0 0 0 0 0 3 0 0 10 0 0 0 0 0 0 0 1 7 1 0 0 0 0 0 0 0 0 0 0 0 1 0 0 0 0
3 2 2 1 1 5 1 1 3 1 0 0 0 0 0 0 5 3 1 0 0 0 0 0 0 0 0 0 0 0 0 0 0 0 0 0 0 0 1 0 0 0 0 0 0 0 0
2 3 3 2 0 7 0 0 1 2 0 2 0 0 0 0 4 2 0 0 0 0 0 0 0 0 0 0 0 2 0 0 0 0 0 0 0 0 0 0 0 0 0 0 0 0 0
2 4 4 2 1 7 2 0 0 0 0 0 0 0 0 0 0 0 0 0 0 0 0 0 0 0 0 0 0 0 0 0 0 0 0 0 0 0 0 0 0 0 0 0 0 0 0
0 1 3 3 4 9 7 0 0 0 0 0 0 1 1 3 0 0 0 0 0 0 0 0 0 0 0 0 0 0 0 0 0 0 0 0 0 0 0 0 0 0 0 0 0 0 0
0 3 1 4 9 20 10 5 0 0 0 0 0 1 1 0 0 0 0 0 0 0 0 0 0 0 0 0 0 0 0 0 0 0 0 0 0 0 0 0 0 0 0 0 0 0 0
0 0 0 4 12 12 5 6 0 0 0 0 0 4 3 0 1 0 0 0 1 0 0 0 0 0 0 1 0 0 0 0 0 0 0 0 0 0 0 0 0 0 0 0 0 0 0
0 0 0 7 7 13 15 16 11 6 0 0 0 1 1 0 0 1 0 0 0 0 0 0 0 2 0 0 0 0 0 0 0 0 0 1 0 0 0 0 0 0 0 0 0 0 0
0 1 12 21 5 16 8 7 4 4 0 0 0 0 0 0 0 0 0 0 0 0 0 0 1 0 0 0 3 2 6 4 3 0 0 0 3 0 0 0 0 0 0 0 0 0 0
6 6 16 16 5 14 0 0 5 14 1 0 0 0 0 0 0 0 0 0 0 2 3 1 0 0 0 19 15 0 2 2 2 7 3 1 3 0 0 0 0 0 0 0 0 2 0
25 15 22 12 10 6 7 1 8 9 0 0 0 0 0 0 0 0 0 0 1 6 0 1 1 14 4 19 5 0 0 1 1 0 0 8 7 3 1 1 0 0 0 0 1 0 0
3 1 2 0 13 0 6 10 0 4 12 0 4 0 0 0 0 0 0 0 0 0 0 0 1 7 9 14 5 2 1 1 0 0 0 0 1 2 1 0 0 0 0 0 1 0 0
0 0 0 0 14 14 15 10 14 20 12 9 0 0 0 3 0 0 0 0 0 0 0 0 0 0 2 14 20 11 3 6 0 1 0 0 0 0 0 0 0 0 0 0 0 0 0

GFSGBSN_con_mlcape_042.txt.gz
CAPE
7 10 12 14 17 18 16 15 18 33 36 41 31 39 38 100 140 162 98 102 71 82 45 34 35 11 32 1 0 98 32 36 85 202 24 18 2 6 5 0 0 0 0 0 4 0 0
4 7 12 13 10 13 14 22 26 27 36 30 19 24 27 75 128 147 59 42 28 24 68 71 57 58 27 0 0 97 108 162 73 191 1 45 0 67 63 37 0 0 0 0 4 0 0
5 7 6 8 8 12 22 14 12 29 38 17 19 19 27 66 29 14 60 50 30 21 138 115 59 14 23 0 11 166 39 0 182 72 1 0 0 31 96 80 16 11 0 0 0 0 0
4 4 7 5 4 12 11 12 22 33 39 8 14 10 3 0 5 4 22 81 121 134 119 81 43 31 5 0 0 0 4 0 0 58 17 35 31 15 90 83 42 13 9 10 0 0 0
3 3 5 4 5 5 11 14 17 27 31 6 17 8 4 0 0 0 20 41 78 136 145 100 0 2 0 3 0 0 0 0 29 139 12 80 85 21 65 31 28 28 0 0 0 0 0
3 4 4 3 4 5 16 8 11 22 23 4 4 8 0 0 0 13 5 1 41 100 97 59 0 0 0 0 0 0 1 28 128 123 107 46 33 16 14 13 0 0 0 0 0 0 0
3 4 4 5 4 4 7 4 10 17 14 32 1 11 3 3 6 0 20 43 54 13 43 11 2 0 0 0 24 57 124 0 58 65 14 26 6 0 0 0 0 0 0 0 0 0 0
1 5 2 4 3 5 5 7 2 10 11 12 25 0 3 1 0 7 9 1 0 0 9 1 0 0 0 0 13 14 23 87 46 7 3 9 1 0 0 0 0 5 0 0 0 0 0
0 4 1 3 4 5 7 7 5 3 2 5 6 13 0 0 0 4 0 0 3 0 0 0 0 0 24 2 5 0 22 2 2 1 6 6 0 22 5 2 5 0 0 0 0 0 0
0 2 2 3 4 3 9 9 4 5 4 3 1 4 7 0 0 0 0 0 0 0 0 0 1 15 5 3 10 29 0 0 4 4 9 15 4 7 3 15 12 6 0 1 0 0 0
1 2 2 3 4 1 5 4 8 1 2 1 3 2 3 0 0 0 0 1 1 1 4 0 0 3 0 6 2 14 0 0 1 7 12 6 1 0 10 5 2 14 3 0 1 0 0
0 2 2 2 3 3 5 5 6 4 0 1 1 2 2 0 0 0 0 1 0 0 0 2 2 4 15 17 4 7 1 0 0 1 2 0 0 2 8 12 10 24 0 0 0 0 0
0 1 1 5 3 3 3 2 4 4 2 0 0 3 0 0 0 0 1 0 0 0 0 0 5 7 2 4 4 2 1 2 0 0 0 0 0 0 0 3 1 0 0 0 0 0 0
0 1 1 2 4 2 4 3 2 2 1 0 0 0 0 0 1 2 0 1 0 0 2 1 8 1 0 0 0 1 2 0 0 0 0 0 0 0 0 0 0 0 0 0 0 0 0
0 1 1 1 3 4 6 4 1 1 1 0 0 0 0 0 0 0 1 0 0 1 2 1 0 10 3 4 1 2 3 1 4 4 0 0 0 2 0 0 0 0 0 0 0 0 0
0 1 3 4 2 2 6 5 2 1 0 0 0 0 0 0 0 0 0 0 1 0 1 0 1 1 0 2 3 7 0 0 1 0 0 0 0 1 1 0 0 0 0 0 0 0 0
1 2 1 4 3 8 4 5 2 2 0 0 0 0 0 0 0 0 0 0 0 0 0 0 0 0 2 0 0 5 0 0 0 0 0 0 0 1 1 0 0 0 0 0 0 0 0
0 1 3 2 4 2 7 1 1 2 0 0 0 0 0 0 0 4 0 0 0 0 0 0 0 0 0 0 0 1 0 0 0 0 0 0 0 1 0 0 0 0 0 0 0 0 0
0 3 3 3 1 2 6 2 2 1 0 0 0 0 0 0 4 0 0 0 0 0 0 0 0 0 0 0 0 0 0 0 0 0 0 0 0 0 0 0 0 0 0 0 0 0 0
0 5 3 3 5 7 2 4 1 0 0 0 0 0 0 0 0 0 1 0 0 0 0 0 0 0 0 0 0 0 0 0 0 0 0 0 0 0 0 0 0 0 0 0 0 0 0
0 3 2 9 7 12 2 2 0 0 0 0 0 0 0 0 0 0 0 0 1 4 0 0 0 0 0 0 0 0 0 0 0 0 0 0 0 0 0 0 0 0 0 0 0 0 0
0 0 0 1 4 6 7 2 1 0 0 0 0 0 0 0 0 0 0 5 5 7 0 1 0 0 0 0 0 0 0 0 0 0 0 0 0 0 0 0 0 0 0 0 0 0 0
0 0 0 2 2 2 5 8 4 0 0 0 0 0 1 0 0 0 0 0 1 0 0 0 0 0 0 3 0 0 0 0 0 0 0 0 0 0 0 0 0 0 0 0 0 0 0
0 0 3 13 0 6 6 3 4 0 0 0 0 0 0 0 0 0 0 0 0 0 0 0 0 4 0 0 0 0 0 0 0 0 0 0 0 0 0 0 0 0 0 0 0 0 0
0 0 4 10 2 15 8 5 7 10 1 1 0 0 0 0 0 0 0 0 0 0 0 8 10 0 0 0 0 0 1 0 3 0 0 2 0 0 0 0 0 0 0 0 0 0 0
0 2 15 6 0 0 8 4 2 0 0 2 0 0 0 0 0 0 0 0 0 0 0 19 4 1 0 8 14 1 1 0 0 1 0 1 3 1 4 0 0 0 0 0 0 0 0
0 0 0 0 0 2 5 11 1 0 3 3 6 0 0 0 0 0 0 0 0 0 0 1 0 6 5 4 6 1 0 1 0 0 0 1 1 0 1 0 0 0 0 0 0 0 0
0 0 0 0 0 17 20 27 26 7 21 6 4 1 0 0 0 0 0 0 0 0 0 0 0 1 5 7 4 3 0 0 0 0 0 0 0 0 2 0 0 0 0 1 0 0 0
0 0 0 0 5 4 8 4 5 0 1 10 1 0 2 1 0 0 0 0 0 0 0 0 0 0 1 0 10 13 5 0 0 0 0 0 0 0 0 0 0 0 0 0 0 0 0

GFSGBSN_con_mlcape_045.txt.gz
CAPE
2 6 8 5 9 14 15 14 7 20 31 9 29 19 13 25 42 129 85 67 28 39 14 83 9 0 0 1 1 0 0 0 103 176 32 2 0 25 0 9 17 4 0 12 19 0 0
7 8 8 5 7 9 8 6 10 16 14 8 20 10 8 4 1 24 23 23 16 6 72 90 66 25 1 0 1 203 84 9 110 89 94 30 0 11 38 0 1 0 0 2 0 0 0
8 6 9 7 9 8 9 15 9 12 14 4 18 14 10 3 0 1 23 33 83 42 139 118 64 21 17 0 0 1 69 27 86 72 83 20 0 0 46 36 0 0 0 1 0 0 0
4 4 8 8 8 5 2 11 12 17 13 1 7 11 14 0 0 0 1 57 92 131 125 79 28 11 0 0 0 0 4 0 0 13 88 69 39 14 50 38 42 23 0 7 0 0 0
3 6 8 6 6 4 3 1 11 8 12 25 1 2 15 4 0 0 0 1 38 106 144 104 2 5 0 0 0 0 0 0 0 7 80 73 14 12 19 18 43 29 1 0 0 0 0
3 4 4 4 5 4 3 4 5 6 5 6 14 1 1 0 0 0 0 0 44 68 29 90 5 1 1 0 0 0 0 0 16 22 14 72 44 13 16 6 0 0 0 0 0 0 0
2 3 3 5 7 2 3 2 6 7 1 7 3 13 0 0 1 0 0 0 0 0 0 1 0 0 0 0 13 0 0 0 15 12 2 1 0 0 0 0 0 0 0 0 0 0 0
2 2 4 6 7 3 4 6 3 5 9 5 1 6 1 0 0 0 0 0 0 1 0 0 0 0 0 0 24 18 3 8 44 21 2 3 2 0 0 0 0 0 0 0 0 0 0
0 2 5 6 6 1 4 3 4 6 5 6 7 1 4 0 0 0 0 0 0 0 0 0 0 0 10 5 17 11 3 26 23 0 3 0 0 0 0 0 0 0 0 0 0 0 0
0 1 3 5 4 3 2 4 4 4 5 5 7 2 3 1 0 0 0 0 0 0 0 7 12 9 9 17 3 0 8 7 13 1 5 3 0 0 0 0 0 0 0 0 0 0 0
1 0 2 4 3 5 5 2 3 4 4 6 9 5 4 1 0 0 0 0 0 0 0 0 3 2 1 0 0 10 13 0 0 12 6 2 4 9 7 5 4 0 0 0 0 0 0
1 1 2 1 3 4 5 3 4 3 4 2 1 1 1 0 0 0 0 0 0 0 0 0 3 6 2 5 7 4 0 0 0 0 0 0 0 3 8 14 10 0 1 0 1 0 0
0 2 4 4 8 5 4 3 2 1 2 1 0 1 0 0 0 0 0 0 0 0 0 8 6 12 1 4 2 2 1 1 2 0 1 1 0 0 0 2 0 0 1 0 1 0 0
0 2 3 3 5 6 6 4 0 1 1 0 0 0 0 0 0 0 0 0 0 0 3 0 2 5 1 0 4 6 2 2 0 0 1 0 1 0 0 0 0 0 0 0 0 0 0
0 2 1 1 4 5 0 6 8 0 0 0 0 0 0 0 0 0 1 0 0 2 1 2 0 7 10 3 0 2 2 0 0 0 0 0 0 1 0 0 0 0 0 0 1 0 0
1 1 1 1 5 7 4 10 6 3 0 0 0 0 0 0 0 0 0 0 0 0 0 0 0 0 0 0 0 2 1 1 3 0 0 0 0 2 1 0 0 0 0 0 0 2 0
0 2 3 3 6 8 7 3 6 3 1 0 0 0 0 0 0 0 0 0 0 0 0 0 0 0 1 0 1 4 0 0 0 0 0 0 0 1 1 0 0 0 0 0 0 0 0
0 2 4 5 8 9 2 2 5 5 0 0 0 0 0 0 0 2 0 0 0 0 0 0 0 0 0 0 0 0 0 0 0 0 0 0 0 0 0 1 0 0 0 0 0 0 0
0 3 2 6 6 8 3 2 3 2 0 0 0 0 0 0 3 0 0 0 0 0 0 0 0 0 0 0 0 0 0 0 0 0 0 0 0 0 0 0 1 0 0 0 0 0 0
0 0 1 1 2 4 4 3 0 0 0 0 0 0 0 0 0 0 0 0 0 0 0 0 0 0 0 0 0 0 0 0 0 0 0 0 0 0 0 0 0 0 0 0 0 0 0
0 0 0 1 2 5 3 2 0 0 0 0 0 0 0 0 0 0 0 0 0 0 0 0 0 0 0 0 0 0 0 0 0 0 0 0 0 0 0 0 0 0 0 0 0 0 0
0 0 0 3 2 4 3 3 0 0 0 0 0 0 0 0 0 0 0 3 5 2 0 0 0 0 0 0 0 0 0 0 0 0 0 0 0 0 0 0 0 0 0 0 0 0 0
0 0 0 4 3 3 1 1 1 0 0 0 0 0 0 0 0 0 0 0 0 1 7 0 0 0 0 0 0 0 0 0 0 0 0 0 0 0 0 0 0 0 0 0 0 0 0
0 0 0 8 0 3 1 0 0 1 0 0 0 0 0 0 0 0 0 0 0 0 0 0 2 6 0 0 0 0 0 0 0 0 0 0 0 0 0 0 0 0 0 0 0 0 0
0 0 15 16 0 0 0 0 0 0 0 0 0 0 0 0 0 0 0 0 0 0 0 2 7 0 0 0 0 0 0 0 0 0 0 0 0 0 0 0 0 0 0 0 0 0 0
0 2 11 2 0 0 0 0 0 0 0 0 0 0 0 0 0 0 0 0 0 0 0 0 0 0 0 4 12 2 0 0 0 0 0 0 1 0 0 0 0 0 0 0 0 0 0
0 0 0 0 0 0 0 0 9 1 4 0 6 0 0 0 0 0 0 0 0 0 0 0 0 0 3 2 4 2 0 2 0 0 0 1 0 0 0 1 0 0 0 0 0 0 0
0 0 0 0 0 2 1 0 0 0 0 0 1 0 0 0 0 0 0 0 0 0 0 0 0 0 0 13 5 0 0 0 0 0 0 0 0 0 0 0 0 0 0 0 0 0 0
0 0 0 6 2 5 13 2 7 0 4 6 2 0 0 2 0 0 0 0 0 0 0 0 0 0 1 0 0 0 10 0 0 0 0 0 0 0 0 0 0 0 0 0 0 0 0

GFSGBSN_con_mlcape_048.txt.gz
CAPE
3 8 3 6 6 6 15 9 11 29 11 2 11 6 8 17 23 36 7 32 4 61 26 36 3 0 4 3 0 0 4 23 2 63 57 0 0 36 25 75 105 1 0 2 26 13 8
4 7 2 7 8 6 10 8 14 20 31 7 7 3 6 4 8 12 37 34 44 88 117 105 116 15 1 0 0 0 0 5 0 98 74 56 0 78 5 8 86 9 1 13 8 14 29
4 2 3 6 7 6 7 7 6 12 16 17 6 3 7 3 2 6 4 65 93 77 152 134 87 63 15 0 0 16 6 1 14 204 71 71 8 43 0 0 0 3 18 0 0 0 0
6 7 6 7 6 5 8 8 4 8 17 12 16 2 5 1 1 0 0 43 57 119 123 64 40 4 0 11 0 0 0 8 18 43 111 118 54 63 30 0 8 10 1 10 0 0 0
4 4 5 6 3 3 7 9 8 7 5 3 8 10 1 3 0 0 0 0 10 60 75 83 1 1 0 0 2 0 0 1 17 16 80 98 47 6 19 17 3 17 0 0 0 0 0
2 3 5 2 6 4 7 6 9 10 7 4 2 10 7 0 2 0 0 0 1 6 2 15 9 0 0 0 0 0 0 5 38 8 66 62 38 9 6 18 0 0 0 0 0 0 0
2 3 5 2 3 4 7 8 7 6 7 5 5 4 7 1 0 0 0 0 0 0 0 0 0 0 0 0 0 0 0 1 0 5 5 42 0 0 0 1 0 0 0 0 0 0 0
2 1 4 2 2 5 6 6 8 11 6 7 4 5 4 0 0 0 0 0 0 0 0 0 0 0 0 0 7 0 0 0 1 5 0 20 4 0 0 4 0 0 0 0 0 0 0
2 2 3 3 3 5 6 3 4 4 2 5 4 8 1 4 0 0 0 0 0 0 0 0 0 0 0 2 10 5 22 0 6 1 2 1 7 0 1 5 0 0 0 0 0 0 0
2 2 5 2 10 3 8 7 4 4 10 3 3 8 1 10 0 0 0 0 0 0 0 6 3 2 3 9 2 0 0 34 5 4 0 5 0 0 1 0 0 0 0 0 0 0 0
1 1 3 6 9 8 14 5 1 7 8 3 6 4 1 9 0 0 0 0 0 0 0 0 5 0 1 0 0 13 12 22 4 1 5 0 1 0 0 0 0 0 0 0 0 0 0
0 0 2 1 5 4 6 14 5 6 9 4 2 2 3 0 0 0 0 0 0 0 0 0 0 4 0 0 11 6 3 0 9 2 0 1 1 4 0 1 2 0 0 0 0 0 0
0 1 1 0 2 2 3 8 4 6 4 3 0 0 1 0 0 0 0 0 0 0 0 0 4 2 2 11 5 0 2 3 0 0 0 1 0 0 0 9 7 0 0 0 0 0 0
0 1 3 1 1 2 6 1 1 3 5 1 0 0 0 0 0 0 0 0 0 0 4 1 1 0 1 4 3 2 1 0 0 0 0 0 4 0 0 1 5 3 0 0 0 0 0
0 1 2 1 1 4 7 6 5 2 5 0 0 0 0 0 0 0 0 0 0 0 0 0 2 2 3 4 0 1 1 0 0 0 0 0 0 0 0 0 0 1 0 0 0 0 0
0 2 1 2 1 7 6 4 5 8 1 0 0 0 0 0 0 0 0 0 0 0 0 0 0 0 0 1 2 2 1 0 0 0 0 0 0 1 0 0 0 0 0 0 0 0 0
0 1 3 5 7 5 4 5 5 4 0 0 0 0 0 0 0 2 0 0 0 0 0 0 0 0 0 0 0 0 0 0 0 0 0 0 0 1 1 1 1 1 0 0 0 0 0
0 1 2 3 2 2 4 2 3 6 0 0 0 0 0 0 0 2 0 0 0 0 0 0 0 0 0 0 0 0 0 0 0 0 0 0 0 0 0 1 0 0 0 0 0 0 0
0 0 2 1 1 2 2 1 1 1 0 0 0 0 0 0 2 0 0 0 0 0 0 0 0 0 0 0 0 0 0 0 0 0 0 0 0 0 0 0 0 1 1 0 0 0 0
0 0 0 1 1 2 1 2 0 0 0 0 0 0 0 0 0 0 0 0 0 0 0 0 0 0 0 0 0 0 0 0 0 0 0 0 0 0 0 0 0 0 2 0 0 0 0
0 0 0 1 1 2 0 1 0 0 0 0 0 0 0 0 0 0 0 2 1 0 0 0 0 0 0 0 0 0 0 0 0 0 0 0 0 0 0 0 0 0 0 0 0 0 0
0 0 0 0 0 2 1 1 0 0 0 0 0 0 0 0 0 0 0 0 9 11 0 1 0 0 0 0 0 0 0 0 0 0 0 0 0 0 0 0 0 0 0 0 0 0 0
0 0 0 0 0 2 1 0 0 0 0 0 0 0 0 0 0 0 0 0 0 0 5 0 0 0 0 0 0 0 0 0 0 0 0 0 0 0 0 0 0 0 0 0 0 0 0
0 0 0 0 0 1 0 0 0 0 0 0 0 0 0 0 0 0 0 0 0 0 0 0 2 7 0 0 0 0 0 0 0 0 0 0 0 0 0 0 0 0 0 0 0 0 0
0 0 3 0 0 0 0 2 0 0 0 0 0 0 0 0 0 0 0 0 0 0 0 0 4 0 0 0 0 0 0 0 0 0 0 0 0 0 0 0 0 0 0 0 0 0 0
0 0 0 0 0 0 0 8 16 1 0 0 0 0 0 0 0 0 0 0 0 0 0 0 0 0 0 3 5 0 0 0 0 0 0 0 0 0 0 0 0 0 0 0 0 0 0
0 0 0 0 0 1 5 2 5 0 0 0 0 0 0 0 0 0 0 0 0 0 0 0 0 0 0 0 2 1 0 0 0 0 0 1 0 1 0 2 0 0 0 0 0 0 0
0 0 0 0 1 0 7 3 2 0 0 0 0 0 0 0 0 0 0 0 0 0 0 0 0 0 0 6 4 2 0 0 0 0 0 0 0 0 0 2 0 0 0 0 0 0 0
0 0 0 0 0 0 2 14 17 24 25 0 0 2 6 0 0 0 0 0 0 0 0 0 0 0 1 0 0 0 6 0 0 0 0 0 0 0 0 0 0 0 0 0 0 0 0

GFSGBSN_con_mlcape_051.txt.gz
CAPE
4 2 5 5 4 7 3 6 15 19 24 21 6 6 11 2 6 3 1 2 22 58 66 108 15 5 4 9 0 0 6 10 23 1 0 7 0 0 0 2 83 20 16 4 32 21 0
3 3 2 5 8 3 6 6 6 15 25 27 24 12 7 6 1 2 1 6 46 135 129 159 117 2 5 0 0 0 0 0 0 2 0 15 0 0 7 16 54 17 40 59 29 13 2
4 4 4 6 3 12 6 9 7 8 10 19 22 22 15 7 6 0 0 25 33 81 124 124 83 46 5 0 0 0 0 8 8 0 1 33 1 44 8 56 65 30 12 43 61 29 0
3 3 4 4 7 9 5 19 10 8 12 2 14 20 14 9 3 0 0 0 15 33 83 39 26 0 0 3 1 0 0 36 54 10 5 56 49 50 9 2 31 11 4 6 16 21 1
2 2 3 1 9 6 8 6 12 19 14 9 5 5 10 15 5 0 0 12 0 7 7 53 0 0 0 27 7 0 0 0 72 94 83 111 27 21 19 3 0 6 0 0 0 0 0
0 1 3 3 5 2 3 5 14 11 8 15 6 4 1 6 15 1 0 0 0 0 0 0 0 0 0 0 1 32 30 2 31 62 72 36 19 10 11 10 0 0 0 0 0 0 0
0 2 3 3 3 2 8 7 16 14 8 4 6 13 5 3 12 2 0 0 0 0 0 0 0 0 0 0 0 0 0 0 19 30 69 7 5 0 0 0 0 0 0 0 0 0 0
1 3 4 2 2 3 7 6 4 11 5 1 5 8 4 2 5 3 0 0 0 0 0 0 0 0 0 0 2 2 8 1 1 0 11 4 3 0 0 1 0 0 0 0 0 0 0
1 2 4 3 4 3 5 3 12 8 7 4 12 5 10 1 4 0 0 0 0 0 0 0 0 0 0 0 8 13 16 6 2 1 3 1 0 10 16 8 9 0 0 0 0 0 0
0 2 3 0 2 5 4 5 3 6 10 1 8 2 10 3 0 0 0 0 0 0 0 1 0 0 7 10 0 0 15 1 5 1 3 2 1 3 18 10 4 0 0 0 0 0 0
0 1 2 4 2 11 3 6 5 1 5 4 2 9 8 6 0 0 0 0 0 0 0 0 3 0 1 4 0 0 0 9 0 4 1 1 2 0 1 4 0 0 0 0 0 0 0
0 0 2 3 3 6 3 1 2 3 5 5 9 12 1 1 0 0 0 0 0 0 0 1 1 0 1 1 1 4 2 6 1 2 1 1 0 1 0 0 1 0 0 0 0 0 0
0 0 2 2 1 3 2 3 5 2 3 7 4 1 2 0 0 0 0 0 0 0 0 0 2 0 1 2 2 3 15 3 0 0 0 3 0 0 0 5 1 0 0 0 1 1 0
0 0 1 0 0 0 3 9 4 3 5 3 2 0 3 0 0 0 0 0 0 0 1 2 1 1 0 0 1 2 3 0 1 0 0 0 1 0 0 0 0 0 0 0 0 0 0
0 0 0 0 3 5 3 3 6 5 8 5 0 0 0 0 0 0 0 0 0 0 0 1 2 3 5 6 0 1 1 0 0 0 0 0 0 0 0 0 0 0 5 0 0 0 0
0 0 0 0 4 4 6 7 6 8 3 0 0 0 0 0 0 0 0 0 0 0 0 0 0 0 0 3 1 0 1 0 0 0 0 0 0 0 0 0 0 0 0 0 0 0 0
0 0 0 0 0 2 5 5 3 4 0 0 0 0 0 0 0 1 0 0 0 0 0 0 0 0 0 0 1 1 0 0 0 0 0 0 0 1 3 0 2 0 0 0 0 0 0
0 0 0 0 0 0 2 4 3 2 0 0 0 0 0 0 0 2 0 0 0 0 0 0 0 0 0 0 0 0 0 0 0 0 0 0 0 0 0 0 0 0 0 0 0 0 0
0 0 0 0 0 0 0 1 1 1 0 0 0 0 0 0 0 0 0 0 0 0 0 0 0 0 0 0 0 0 0 0 0 0 0 0 0 0 0 0 0 3 2 0 0 0 0
0 0 0 0 0 0 0 0 0 0 0 0 0 0 0 0 0 0 0 0 0 0 0 0 0 0 0 0 0 0 0 0 0 0 0 0 0 0 0 0 0 1 0 1 1 0 0
0 0 0 0 1 0 0 0 0 0 0 0 0 0 0 0 0 0 0 0 0 0 0 0 0 0 0 0 0 0 0 0 0 0 0 0 0 0 0 0 0 0 0 1 2 0 0
0 0 0 0 0 0 0 0 0 0 0 0 0 0 0 0 0 0 0 0 0 0 2 0 0 0 0 0 0 0 0 0 0 0 0 0 0 0 0 0 0 0 0 0 0 0 1
0 0 0 0 0 0 0 0 0 0 0 0 0 0 0 0 0 0 0 0 0 0 1 0 0 0 0 0 0 0 0 0 0 0 0 0 0 0 0 0 0 0 0 0 0 0 0
0 0 0 0 0 0 0 0 0 0 0 0 0 0 0 0 0 0 0 0 0 0 0 0 0 2 0 0 0 0 0 0 0 0 0 0 0 0 0 0 0 0 0 0 0 0 0
0 0 0 0 0 0 0 0 0 0 0 0 0 0 0 0 0 0 0 0 0 0 0 0 0 0 0 0 0 0 0 0 0 0 0 0 0 0 0 0 0 0 0 0 0 0 0
0 0 0 0 0 0 0 0 0 0 0 0 0 0 0 0 0 0 0 0 0 0 0 0 0 0 1 5 6 0 0 0 0 0 0 0 0 0 0 0 0 0 0 0 0 0 0
0 0 0 0 0 0 0 0 0 0 0 0 0 0 0 0 0 0 0 0 0 0 0 0 0 0 0 2 9 2 0 0 0 0 0 0 2 0 1 0 0 0 0 0 0 0 0
0 0 0 0 0 0 0 0 0 0 0 0 0 0 0 0 0 0 0 0 0 0 0 0 0 0 0 0 1 3 0 0 0 0 0 0 0 0 0 0 0 0 0 0 0 0 0
0 0 0 0 0 0 0 0 0 0 0 0 0 4 1 0 0 0 0 0 0 0 0 0 0 1 1 0 0 0 0 0 0 0 0 0 0 0 0 0 0 0 0 0 0 0 0

GFSGBSN_con_mlcape_054.txt.gz
CAPE
3 3 2 5 1 3 4 5 11 5 13 22 41 31 4 20 9 9 4 1 1 29 68 94 24 33 6 5 0 0 2 0 6 65 27 33 12 0 0 2 24 2 25 2 6 0 0
3 2 3 5 4 4 5 12 10 10 9 8 29 31 30 10 12 5 4 4 2 38 68 111 146 12 2 0 0 0 0 0 0 0 0 7 5 0 0 1 0 18 37 24 16 9 18
2 2 3 3 7 5 4 3 12 13 14 12 10 17 22 13 10 9 4 1 2 0 39 72 67 48 0 0 0 0 0 0 0 0 0 0 19 11 0 0 2 31 15 55 56 40 38
1 3 5 3 0 2 7 13 3 12 9 12 24 7 13 15 13 9 4 4 1 0 0 43 36 3 0 0 0 2 0 0 6 1 0 13 64 22 25 3 9 32 18 15 22 40 28
0 2 3 3 2 2 3 12 6 7 18 18 16 20 6 2 11 15 5 1 1 3 1 0 5 5 0 25 3 0 0 0 24 25 3 1 74 23 23 13 3 15 0 0 0 37 26
1 1 3 5 3 4 6 15 10 18 26 24 16 21 10 5 4 14 3 0 0 0 0 0 4 2 0 0 0 9 29 21 49 95 14 68 14 4 24 7 0 0 0 0 0 0 1
0 1 1 3 3 5 16 3 14 14 29 26 25 19 15 2 4 9 0 0 0 0 0 0 0 0 0 0 0 15 3 0 36 19 6 16 1 0 0 0 0 0 0 0 0 0 0
0 1 1 2 3 4 7 2 7 14 25 22 18 17 14 3 1 12 0 0 0 0 0 0 0 0 0 0 3 0 1 1 11 6 7 3 0 0 0 18 0 0 0 0 0 0 0
0 2 3 3 2 5 8 8 3 15 23 17 18 21 12 2 4 0 0 0 0 0 0 0 0 0 0 13 17 0 0 0 0 0 0 1 0 0 0 27 6 0 0 0 0 0 0
0 1 3 4 4 6 6 3 5 13 16 16 18 11 4 2 0 0 0 0 0 0 0 0 2 2 22 25 4 36 0 0 0 0 0 1 0 0 0 36 6 0 0 0 0 0 0
0 0 1 4 2 3 2 2 3 1 13 13 7 5 5 7 0 0 0 0 0 0 0 0 1 8 4 3 0 1 0 0 0 0 1 1 0 3 0 17 21 1 0 0 0 0 0
0 0 0 2 2 7 4 5 4 10 13 4 2 3 4 0 1 0 0 0 0 0 0 2 2 1 2 3 3 4 12 0 0 3 2 2 0 3 0 2 0 0 0 0 0 0 0
0 0 0 1 1 4 1 4 2 7 9 4 2 2 1 0 0 0 0 0 0 0 0 0 2 0 0 5 8 3 1 0 0 0 0 1 8 1 0 13 0 0 1 0 0 0 0
0 0 0 0 3 2 3 1 3 3 5 6 0 0 1 0 0 0 0 0 0 0 0 6 3 6 5 3 5 2 2 0 0 0 0 0 8 7 0 2 1 2 1 0 0 0 0
0 0 0 1 3 2 3 4 7 5 5 3 0 0 0 0 0 0 0 0 0 0 1 1 1 1 3 1 0 2 1 0 0 0 0 0 0 0 1 0 0 2 1 0 0 0 0
0 0 0 1 0 1 2 4 6 5 2 0 0 0 0 0 0 0 0 0 0 0 0 1 0 1 0 0 0 1 0 0 0 0 0 0 0 0 0 0 0 0 0 0 0 0 0
0 0 0 0 0 0 2 3 3 1 0 0 0 0 0 0 0 1 0 0 0 0 0 0 0 0 1 0 0 0 0 0 0 0 0 0 0 0 0 1 3 0 0 0 0 0 0
0 0 0 0 0 0 0 2 2 0 0 0 0 0 0 0 2 1 0 0 0 0 0 0 0 0 0 0 0 0 0 0 0 0 0 0 0 0 1 0 0 3 0 0 0 0 0
0 0 0 0 0 0 0 0 0 0 0 0 0 0 0 0 0 0 0 0 0 0 0 0 0 0 0 0 0 0 0 0 0 0 0 0 0 0 1 0 0 2 0 0 0 0 0
0 0 0 0 0 0 0 0 0 0 0 0 0 0 0 1 0 0 0 0 0 0 0 0 0 0 0 0 0 0 0 0 0 0 0 0 0 0 0 0 0 0 1 0 1 1 0
0 0 0 0 0 0 0 0 0 0 0 0 0 0 0 0 0 0 0 0 0 1 0 0 0 0 0 0 0 0 0 0 0 0 0 0 0 0 0 0 0 0 0 1 1 0 0
0 0 0 0 0 0 0 0 0 0 0 0 0 0 0 0 0 0 0 0 0 0 0 0 0 0 0 0 0 0 0 0 0 0 0 0 0 0 0 0 0 0 0 0 0 0 6
0 0 0 0 0 0 0 0 0 0 0 0 0 0 0 0 0 0 0 0 0 0 0 0 0 0 0 0 0 0 0 0 0 0 0 0 0 0 0 0 0 0 0 0 0 0 0
0 0 0 0 0 0 0 0 1 0 0 0 0 0 0 0 0 0 0 0 0 0 0 0 0 1 0 0 0 0 0 0 0 0 0 0 0 0 0 0 0 0 0 0 0 0 0
0 0 0 0 0 0 0 0 0 0 0 0 0 0 0 0 0 0 0 0 0 0 0 0 0 0 0 0 1 0 0 0 0 0 0 0 0 0 0 0 0 0 0 0 0 0 0
0 1 0 0 0 0 0 0 0 0 0 0 0 0 0 0 0 0 0 0 0 0 0 0 0 0 0 4 5 0 0 0 0 0 0 0 0 0 0 0 0 0 0 0 0 0 0
0 1 0 0 0 0 0 0 0 0 0 0 0 0 0 0 0 0 0 0 0 0 0 0 0 0 0 9 13 1 0 0 0 0 0 0 4 0 0 1 0 0 0 0 0 0 0
1 0 0 0 0 0 0 0 0 0 0 0 0 0 0 0 0 0 0 0 0 0 0 0 0 0 0 1 2 2 0 0 0 0 0 0 0 0 0 0 0 0 0 0 0 0 0
0 0 0 0 0 0 1 0 0 0 0 0 0 0 0 0 0 0 0 0 0 0 0 0 0 1 0 0 0 0 0 0 0 0 0 0 0 0 0 0 0 0 0 0 0 0 0

GFSGBSN_con_mlcape_057.txt.gz
CAPE
1 2 2 5 5 6 9 5 3 4 17 13 8 13 13 30 3 6 4 16 15 19 5 23 31 8 3 0 0 0 0 0 0 21 47 62 28 10 7 6 26 5 31 6 22 23 0
1 1 1 2 2 5 9 13 8 10 14 18 9 8 5 15 30 5 12 9 14 4 2 22 34 53 1 0 0 0 0 0 0 17 25 19 30 4 17 29 0 8 35 32 53 63 27
0 2 0 2 3 4 8 8 8 18 20 28 23 13 9 4 13 19 7 14 11 2 0 7 2 0 0 0 0 0 0 0 0 6 15 8 45 8 13 27 21 21 1 4 41 60 41
1 0 1 1 3 5 6 11 13 19 26 29 26 17 9 11 3 11 18 11 17 2 0 0 1 0 0 0 2 1 0 0 0 0 3 0 16 18 26 11 36 35 8 0 13 57 49
1 1 2 3 0 2 4 10 18 16 28 35 25 20 17 14 8 6 13 8 12 0 24 1 0 0 0 10 0 0 0 0 8 1 12 6 36 22 17 7 2 23 0 0 0 49 33
0 1 1 3 1 1 6 18 17 17 22 38 24 17 22 12 10 7 6 0 0 1 0 0 0 0 0 0 0 1 45 1 18 19 28 12 19 10 11 2 0 0 0 0 0 6 28
0 0 2 1 3 0 3 8 9 14 22 29 23 15 19 14 8 7 1 0 0 0 0 0 0 0 0 0 0 13 8 22 69 37 2 7 0 1 3 0 0 0 0 0 0 0 50
1 0 1 0 2 1 4 3 8 21 25 27 23 18 19 10 4 12 0 0 0 0 0 0 0 0 0 0 4 2 12 1 31 14 0 0 0 0 6 0 0 0 0 0 0 0 31
2 0 0 0 1 0 3 9 12 15 16 19 18 15 11 5 3 0 0 0 0 0 0 0 0 0 0 20 5 0 1 2 9 2 0 0 1 0 4 13 0 0 0 0 0 0 0
1 0 0 2 1 1 1 5 6 13 13 16 14 13 9 2 0 0 0 0 0 0 0 0 1 4 4 17 2 16 11 0 0 0 1 2 0 0 0 12 2 0 0 0 0 0 0
2 0 0 0 1 0 3 8 3 6 11 12 7 11 9 3 0 0 0 0 0 0 0 0 3 12 11 5 1 0 3 0 0 0 0 1 0 0 0 4 5 0 0 0 0 0 0
0 0 0 0 0 0 2 2 6 3 7 3 7 4 4 0 1 0 0 0 0 0 0 2 4 1 1 0 15 9 18 0 0 0 0 0 0 2 0 3 5 0 0 0 0 0 0
0 0 0 0 0 1 2 4 2 3 9 2 3 1 1 0 0 0 0 0 0 0 0 0 1 2 1 4 8 7 0 0 0 0 0 9 8 1 0 0 0 0 5 1 1 0 0
0 0 0 0 0 1 2 2 4 2 7 1 0 0 0 0 0 0 0 0 0 0 7 7 7 1 0 0 1 2 2 0 0 0 0 0 0 0 0 0 0 2 6 0 0 0 0
0 0 0 0 0 0 2 4 4 3 5 0 0 0 0 0 0 0 0 0 0 0 4 0 0 0 3 2 0 3 1 4 2 0 0 0 0 1 3 0 0 0 0 0 0 0 0
0 0 0 0 0 0 1 2 3 1 2 0 0 0 0 0 0 0 0 0 0 0 0 1 0 2 0 0 1 0 0 0 1 4 0 0 0 0 0 1 0 2 0 0 0 0 0
0 0 0 0 0 0 0 1 1 0 0 0 0 0 0 0 0 0 0 0 0 0 0 0 0 0 0 0 0 1 0 0 0 0 0 0 0 0 0 12 0 0 0 0 0 0 0
0 0 0 0 0 0 0 0 0 0 0 0 0 0 0 0 0 1 1 0 0 0 0 0 0 0 0 1 2 0 0 0 0 0 0 0 0 0 0 0 0 0 0 0 0 0 0
0 0 0 0 0 0 0 0 0 0 0 0 0 0 0 0 0 0 0 0 0 0 0 0 0 0 0 0 0 0 0 0 0 0 0 0 0 1 0 0 0 0 0 0 0 0 0
0 0 0 0 0 0 0 0 0 0 0 0 0 0 0 1 0 0 0 0 0 0 0 0 0 0 0 0 0 0 0 0 0 0 0 0 0 0 0 0 0 0 0 1 0 0 0
0 0 0 0 0 0 0 0 0 0 0 0 0 0 0 0 0 0 0 0 2 0 0 0 0 0 0 0 0 0 0 0 0 0 0 0 0 0 0 0 0 0 0 0 0 0 0
0 0 0 0 0 0 0 0 0 0 0 0 0 0 0 0 0 0 0 0 0 0 0 0 0 0 0 0 0 0 0 0 0 0 0 0 0 0 0 0 0 0 0 0 0 0 1
0 0 0 0 0 0 0 0 0 0 0 0 0 0 0 0 0 0 0 0 0 0 0 0 0 0 0 0 0 0 0 0 0 0 0 0 0 0 0 0 0 0 0 0 0 0 0
0 0 0 0 0 0 0 0 0 0 0 0 0 0 0 0 0 0 0 0 0 0 0 0 0 0 0 0 0 0 0 0 0 0 0 0 0 0 0 0 0 0 0 0 0 0 0
0 0 0 0 0 0 0 0 0 0 0 0 0 0 0 0 0 0 0 0 0 0 0 0 0 0 0 0 1 0 0 0 0 0 0 0 0 0 0 0 0 0 0 0 0 0 0
0 1 0 0 0 0 0 0 0 0 0 0 0 0 0 0 0 0 0 0 0 0 0 0 0 0 0 1 0 0 0 0 0 0 0 0 0 0 0 0 0 0 0 0 0 0 0
1 3 0 0 0 0 0 0 0 0 0 0 0 0 0 0 0 0 0 0 0 0 0 0 0 0 0 3 8 2 0 0 0 0 0 0 2 0 0 0 0 0 0 0 0 0 0
0 1 0 0 0 0 0 0 0 0 0 0 0 0 0 0 0 0 0 0 0 0 0 0 0 0 0 0 0 1 0 0 0 0 0 0 0 0 0 0 0 0 0 2 0 0 0
0 0 0 0 0 0 0 0 0 0 0 0 0 0 0 0 0 0 0 0 0 0 0 0 0 2 0 0 0 0 0 0 0 0 0 0 0 0 0 0 0 0 0 0 0 0 0

GFSGBSN_con_mlcape_060.txt.gz
CAPE
3 2 4 4 1 3 7 9 11 13 18 21 19 17 12 9 25 3 4 4 6 0 1 0 0 0 2 6 0 0 0 0 6 1 0 31 78 61 1 4 123 31 95 93 82 11 16
3 2 3 3 1 2 3 5 11 14 18 27 23 22 18 12 7 21 2 8 3 1 0 1 3 0 0 0 0 0 0 0 5 22 2 13 54 32 8 7 62 15 57 78 101 42 23
0 1 1 0 1 2 5 7 11 13 19 28 26 23 21 13 13 1 11 6 4 7 0 1 6 3 0 0 0 0 0 0 5 22 0 12 58 28 13 27 17 15 61 83 11 10 0
1 2 0 2 1 0 2 6 11 23 17 28 29 23 27 24 8 3 5 18 0 4 3 1 14 8 0 0 0 7 1 0 0 20 0 38 0 53 32 33 24 1 42 24 24 54 24
2 3 0 0 0 1 2 7 15 22 13 22 31 28 20 21 12 3 3 7 6 0 2 29 8 5 0 24 0 2 2 0 2 1 8 32 0 49 28 10 21 26 0 4 33 71 74
3 3 2 1 0 1 1 4 8 17 17 26 33 26 18 16 13 5 4 1 0 0 0 0 0 2 0 0 0 5 5 25 28 22 10 2 2 10 9 15 1 1 5 8 13 11 38
4 1 2 0 0 1 1 3 5 14 15 20 22 23 14 16 13 6 3 0 0 0 0 0 0 0 0 0 16 36 21 21 17 10 6 8 0 3 0 0 0 1 18 23 34 42 91
4 3 1 0 0 0 0 1 4 12 17 15 18 20 16 15 8 8 1 0 0 0 0 0 0 0 0 0 4 0 56 26 23 1 4 0 1 0 15 6 0 2 0 6 1 53 55
4 4 1 1 0 0 0 0 7 13 12 20 17 14 12 10 7 4 0 0 0 0 0 0 0 0 0 9 23 1 25 3 4 1 1 0 0 0 14 0 4 10 0 0 0 62 9
6 4 1 0 0 0 0 0 6 11 7 12 15 13 13 12 0 0 0 0 0 0 0 0 6 10 2 16 12 17 2 0 1 3 4 0 2 0 25 6 5 11 3 1 3 0 0
7 3 1 0 0 0 0 1 5 3 6 4 13 11 11 5 1 0 0 0 0 0 1 0 2 10 20 9 5 1 1 2 2 0 0 0 1 3 34 3 6 1 0 0 0 0 0
6 3 0 0 0 0 0 1 4 0 3 5 7 7 4 1 2 0 0 0 0 0 0 1 2 0 0 0 14 5 11 10 0 0 3 9 5 1 6 4 0 0 0 0 0 0 0
4 2 0 0 0 0 0 1 2 1 3 7 3 2 0 0 0 0 0 0 0 0 0 0 3 2 0 1 3 12 6 1 0 0 0 9 13 0 0 4 0 1 2 4 1 0 0
4 1 0 0 0 0 0 0 0 1 1 3 0 1 0 0 0 0 0 0 0 0 3 3 3 4 2 2 2 3 0 2 2 0 0 0 1 3 8 14 0 9 2 0 0 0 0
4 1 0 0 0 0 0 0 0 4 3 0 0 0 0 0 0 0 3 0 0 0 4 0 1 2 1 4 0 1 6 6 2 0 2 0 0 0 0 0 0 0 2 0 0 0 0
3 1 0 0 0 0 0 0 0 2 1 0 0 0 0 0 0 0 2 0 0 0 0 1 0 1 1 1 0 1 2 1 2 2 0 0 0 9 0 0 0 2 0 0 0 0 0
5 1 0 0 0 0 0 0 0 1 0 0 0 0 0 0 0 0 0 0 0 0 0 0 0 1 3 4 3 3 2 0 3 0 0 0 0 1 8 15 3 0 0 0 1 0 0
5 2 0 0 0 0 0 0 0 0 0 0 0 0 0 0 0 2 0 0 0 0 0 0 0 0 0 1 2 0 2 2 7 0 0 0 2 0 0 1 0 0 2 3 4 0 0
6 1 0 0 0 0 0 0 0 0 0 0 0 1 0 0 1 1 0 0 0 0 0 0 0 0 0 0 0 1 0 0 0 0 0 0 0 0 0 0 0 2 0 0 0 0 0
5 0 0 0 0 0 0 0 0 0 0 0 0 0 0 4 0 0 3 2 0 0 0 0 0 0 0 0 0 0 0 0 0 0 0 0 0 0 0 0 0 0 0 0 0 1 0
4 0 0 0 0 0 0 0 0 0 0 0 0 0 0 0 0 0 1 0 0 0 0 0 0 0 0 0 0 0 0 0 0 0 0 0 0 0 0 0 0 0 0 0 0 0 1
3 0 0 0 0 0 0 0 0 0 0 0 0 0 0 0 0 0 0 0 0 0 0 0 0 0 0 0 0 0 0 0 0 0 0 0 0 0 0 0 0 0 0 0 0 0 3
4 0 0 0 0 0 0 0 0 0 0 0 0 0 0 0 0 0 0 0 0 0 0 0 0 0 0 0 0 0 0 0 0 0 0 0 0 0 0 0 0 0 0 0 0 0 0
6 0 0 0 0 0 0 0 0 0 0 0 0 0 0 0 0 0 0 0 0 0 0 0 0 0 0 0 0 0 0 0 0 0 0 0 0 0 0 0 0 0 0 0 0 0 0
4 2 0 0 0 0 0 0 0 0 0 0 0 0 0 0 0 0 0 0 0 0 0 0 0 0 0 0 0 2 0 0 0 0 0 0 0 0 0 0 0 0 0 0 0 0 0
2 2 1 0 0 0 0 0 0 0 0 0 0 0 0 0 0 0 0 0 0 0 0 0 0 0 0 0 3 0 0 0 0 0 0 0 0 0 0 0 0 0 0 0 0 3 0
2 3 1 0 0 0 0 0 0 0 0 0 0 0 0 0 0 0 0 0 0 0 0 0 0 0 0 3 9 3 0 0 0 0 0 4 2 1 4 1 0 0 0 0 0 1 0
2 0 1 0 0 0 0 0 0 0 0 0 0 0 0 0 0 0 0 0 0 0 0 0 0 0 0 1 4 0 0 0 0 0 0 0 1 0 1 2 0 0 0 0 0 0 0
0 2 0 0 0 0 0 0 0 0 0 0 0 0 0 0 0 0 0 0 0 0 0 0 0 0 0 0 0 0 0 0 0 0 0 1 0 0 0 2 0 0 0 0 0 0 0

GFSGBSN_con_mlcape_063.txt.gz
CAPE
2 0 0 0 1 4 2 1 5 8 12 22 34 36 23 18 12 11 33 7 20 11 2 3 3 0 0 6 4 1 0 0 1 115 0 0 49 106 40 10 122 81 115 162 79 12 10
0 0 0 0 0 0 1 6 4 6 15 18 27 32 17 24 20 13 10 30 14 25 5 1 2 0 0 0 0 0 0 0 0 27 0 28 23 61 41 13 57 59 20 163 124 31 34
2 4 3 0 0 0 1 2 2 5 19 26 28 22 18 20 23 12 6 8 35 17 14 2 0 1 1 0 0 0 0 0 0 25 38 1 23 32 35 19 9 81 1 12 115 0 67
3 4 4 1 1 0 3 2 4 7 9 21 29 24 18 19 26 16 5 3 14 22 21 7 0 4 1 0 0 0 9 12 0 24 0 15 2 1 13 25 58 28 5 3 32 58 39
5 3 5 0 1 0 2 5 4 9 7 21 28 21 25 22 27 18 6 7 15 18 16 26 9 10 2 0 4 0 15 17 3 22 0 34 0 2 46 31 25 38 17 13 11 37 34
30 9 4 3 2 1 1 4 5 8 6 17 20 17 19 20 20 17 7 4 1 0 1 1 0 1 6 1 0 4 25 31 44 31 20 25 1 3 30 30 8 9 4 23 19 36 18
13 14 4 3 2 1 0 2 5 8 5 12 19 17 19 17 18 13 4 7 7 1 0 0 0 0 0 6 14 57 54 50 58 28 0 4 0 2 7 0 0 0 0 1 2 5 0
6 10 3 3 2 1 0 1 3 4 6 13 17 18 20 14 16 11 8 5 0 0 2 0 0 0 0 0 11 29 98 22 12 3 8 1 0 0 7 22 0 15 20 44 29 42 16
0 49 4 5 3 0 0 0 1 3 6 9 10 17 13 12 18 2 1 0 0 0 3 2 0 0 8 19 21 9 0 24 5 0 5 0 1 1 0 10 0 7 21 38 0 5 46
0 13 5 4 2 0 0 0 0 1 2 5 10 9 13 12 0 1 1 0 0 0 0 5 6 10 13 34 14 16 13 12 3 2 12 12 4 0 1 7 1 0 0 0 4 5 0
0 8 6 3 1 0 0 0 0 3 0 5 3 9 17 9 0 2 0 0 0 0 3 0 2 3 26 4 2 1 0 28 10 3 0 3 1 0 7 17 22 7 5 13 54 22 12
0 6 6 4 0 0 0 0 0 0 0 5 2 7 6 0 1 1 0 0 1 0 0 3 5 0 6 4 10 8 8 13 9 0 0 1 8 1 13 9 4 0 56 44 48 9 0
3 1 6 2 0 0 0 0 0 0 0 4 1 1 0 1 5 0 0 1 0 1 0 2 1 0 1 9 16 15 11 6 1 0 0 1 1 3 16 4 2 0 5 0 0 0 0
42 0 5 2 0 0 0 0 0 0 0 1 0 0 0 3 1 0 6 1 0 0 3 1 5 1 6 8 7 1 3 1 1 1 0 0 0 2 1 7 1 8 3 1 0 0 0
29 1 4 2 0 0 0 0 0 0 0 0 0 3 3 3 0 1 4 0 0 4 14 2 6 1 0 0 6 0 0 4 3 25 0 0 0 1 2 0 8 13 5 0 0 0 0
18 1 4 3 1 0 0 0 0 0 0 0 1 4 2 1 0 7 3 1 5 0 0 6 1 0 1 2 3 1 3 6 8 5 1 1 0 5 0 1 3 10 4 0 0 0 0
18 1 4 4 2 0 0 0 0 0 0 0 6 7 2 0 3 5 7 0 1 1 0 0 2 0 1 0 8 12 2 0 3 2 0 12 4 1 22 17 0 0 3 7 11 0 2
15 2 6 5 3 0 0 0 0 0 0 0 7 1 3 0 2 4 9 1 0 5 0 0 3 6 4 4 0 3 1 4 1 0 1 0 3 1 5 0 1 18 11 14 7 0 0
13 3 7 5 3 0 0 0 0 0 0 0 5 0 3 5 7 11 0 0 2 4 0 0 0 0 0 3 2 1 6 0 6 0 0 0 1 1 0 1 0 1 1 3 13 3 5
0 5 7 5 2 0 0 0 0 0 0 0 1 0 4 10 1 3 8 3 3 0 0 0 0 0 0 1 0 6 4 2 2 3 0 0 5 0 0 0 0 0 1 5 13 4 0
3 6 7 4 3 0 0 0 0 0 0 0 0 0 0 0 0 0 6 5 6 3 0 0 0 0 0 6 3 3 2 1 4 0 0 1 0 0 0 0 0 0 0 0 2 0 8
3 6 7 5 3 0 0 0 0 0 0 0 0 0 0 0 0 1 6 8 10 0 3 0 0 0 0 0 0 2 0 6 4 0 0 0 0 0 0 0 0 0 0 0 0 0 9
4 7 7 4 1 0 0 0 0 0 0 0 0 0 0 0 0 1 1 6 1 0 0 0 0 1 0 0 0 0 0 0 2 8 8 4 0 0 1 0 0 0 0 0 0 0 0
4 6 8 6 0 0 0 0 0 0 0 0 0 0 0 0 0 1 0 0 0 0 1 0 0 8 0 0 0 0 0 0 0 0 0 1 0 0 0 0 0 0 0 0 0 0 0
5 5 7 6 2 0 0 0 0 0 0 0 0 0 0 0 0 0 0 0 1 0 0 1 0 0 0 0 2 1 3 0 0 0 0 0 6 1 1 1 0 0 0 0 0 0 0
9 6 6 3 1 0 0 0 0 0 0 0 0 0 0 0 0 0 0 0 0 1 0 0 0 0 0 4 7 3 1 2 1 0 0 0 0 1 0 0 0 1 0 0 0 3 0
12 6 5 2 0 0 0 0 0 0 0 0 0 0 0 0 0 0 0 0 0 0 2 0 0 0 0 7 5 4 3 0 1 2 2 7 7 5 5 3 1 0 0 0 0 0 0
12 5 6 0 0 0 0 0 0 0 0 0 0 0 0 0 0 0 0 0 0 0 0 0 0 0 0 5 8 8 8 1 1 0 8 6 3 3 2 3 0 0 0 0 0 0 0
9 5 5 0 1 0 0 0 0 0 0 0 0 0 0 0 0 0 0 0 0 0 0 0 0 0 1 0 1 0 1 0 0 0 0 1 0 0 0 1 0 0 0 0 0 0 0

GFSGBSN_con_mlcape_066.txt.gz
CAPE
2 3 4 3 0 0 0 0 2 3 3 16 13 9 27 28 29 32 18 7 29 14 13 0 2 0 0 1 2 0 0 0 0 18 54 14 0 69 25 3 45 41 80 106 87 25 57
2 4 3 5 1 0 0 0 1 3 3 22 24 12 21 25 21 39 26 9 7 36 12 15 1 0 4 0 0 0 0 0 0 16 6 1 0 0 3 23 31 7 80 149 68 1 24
10 4 4 3 2 1 0 0 0 5 6 15 17 14 16 25 27 24 33 5 4 6 21 26 7 0 11 0 0 0 0 0 0 12 30 2 0 2 20 9 11 65 80 54 29 9 56
1 7 11 5 4 2 1 0 2 3 10 13 20 19 18 22 28 31 29 7 5 3 32 25 20 0 9 0 0 0 1 2 2 0 30 14 0 6 22 21 16 21 66 60 13 5 28
9 6 23 12 4 3 2 1 2 6 6 10 18 20 13 22 26 21 19 7 4 5 7 19 15 20 1 0 9 0 0 12 7 24 11 22 26 5 3 28 31 34 24 30 0 0 38
4 20 14 6 8 3 2 2 2 5 3 9 12 12 13 16 22 19 11 0 0 0 0 6 7 1 1 2 3 6 18 42 25 41 11 2 3 0 1 36 3 2 24 9 0 0 4
15 15 48 14 4 4 2 2 2 1 3 8 7 13 19 20 21 21 2 0 0 0 4 0 0 1 0 0 7 42 68 58 50 20 0 3 0 0 0 0 0 0 0 0 0 0 2
40 17 36 22 1 5 3 1 1 0 2 5 6 8 12 14 13 18 2 1 0 0 0 0 0 0 0 0 3 46 126 21 20 2 2 1 1 0 0 1 11 3 0 0 1 28 25
79 55 23 22 2 6 3 1 0 0 1 2 3 9 6 11 10 0 0 2 0 0 2 4 0 0 11 2 9 75 37 15 2 1 0 5 1 0 4 17 5 5 0 9 11 26 5
3 96 54 46 6 6 3 0 0 0 1 0 1 6 10 14 0 0 0 0 0 0 0 5 5 6 5 8 8 1 0 6 1 0 3 1 1 1 0 0 1 14 32 73 26 14 0
3 1 79 45 2 6 4 0 0 0 0 0 1 4 8 16 0 0 1 0 0 1 0 3 0 0 12 6 0 3 0 15 1 1 4 1 2 0 9 2 2 3 0 7 0 12 28
5 3 24 63 1 5 3 0 0 0 0 0 0 5 4 0 0 1 1 0 0 0 0 1 0 0 8 13 24 2 28 14 8 1 1 2 0 0 0 5 12 11 6 13 17 24 3
0 14 4 83 1 5 3 0 0 0 0 0 0 0 0 1 4 0 0 0 0 0 0 1 0 0 1 6 20 7 7 7 2 1 0 1 0 0 1 2 20 34 9 0 0 0 0
9 16 2 20 2 5 2 0 0 0 0 0 0 0 0 3 0 0 0 0 0 1 8 3 1 0 5 8 1 1 4 0 0 0 0 0 0 0 8 8 0 19 0 0 0 0 0
63 12 8 6 2 5 2 1 0 0 0 0 0 0 1 0 0 3 0 0 0 3 4 0 2 0 0 0 3 0 5 0 0 1 0 0 0 1 7 0 9 4 12 0 0 0 0
25 9 9 6 2 6 3 1 0 0 0 0 0 1 3 2 0 7 0 0 3 0 0 6 5 0 0 1 1 1 0 0 0 0 6 1 0 1 0 0 0 9 0 0 0 0 0
28 23 7 17 4 6 3 2 0 0 0 0 0 5 1 0 0 2 1 0 3 4 0 0 0 0 0 0 1 3 0 0 0 0 0 0 0 0 0 1 1 0 0 1 1 0 1
14 2 8 9 5 4 3 7 0 0 0 0 5 0 0 3 2 1 3 0 2 4 0 0 3 0 1 11 1 16 1 1 3 0 2 0 0 0 1 0 0 0 0 1 0 0 0
6 1 3 8 4 4 4 4 0 0 0 0 1 1 0 2 0 0 0 0 4 5 0 0 0 0 0 4 0 13 2 3 1 0 0 0 0 0 0 0 0 5 4 1 0 0 0
0 2 5 2 4 5 4 3 1 0 0 0 0 0 5 2 0 0 0 1 1 0 0 0 0 0 0 4 1 6 1 2 0 0 0 0 2 0 0 0 0 0 0 5 14 0 0
15 12 4 5 5 6 3 4 0 0 0 0 0 0 0 0 0 0 1 4 2 0 0 0 0 0 0 6 3 0 1 3 1 0 0 0 0 0 0 0 0 0 0 2 1 0 0
29 25 3 6 5 6 2 2 0 0 0 0 0 0 0 0 0 0 0 0 1 0 0 0 0 0 0 0 0 1 0 0 0 0 4 0 0 0 0 0 0 0 0 0 0 3 4
26 6 5 5 6 5 5 1 0 0 0 0 0 0 0 0 0 0 0 2 3 1 0 0 0 0 0 0 0 0 0 0 1 0 0 0 0 0 0 0 0 0 0 0 0 0 0
23 7 11 5 5 3 2 0 0 0 0 0 0 0 0 0 0 0 0 0 0 0 1 0 0 1 0 0 0 0 0 0 0 0 5 6 0 0 0 0 0 0 0 0 0 0 0
18 0 4 9 4 4 3 0 0 0 0 0 0 0 0 0 0 0 0 0 0 0 0 1 0 0 0 0 0 0 0 1 0 0 0 0 1 0 0 0 0 0 0 0 0 0 0
0 2 15 6 4 4 2 0 0 0 0 0 0 0 0 0 0 0 0 0 0 0 0 0 0 0 0 0 0 1 1 0 0 0 0 0 0 0 0 0 0 0 0 0 0 0 0
13 11 8 5 8 8 2 0 0 0 0 0 0 0 0 0 0 0 0 0 0 0 0 0 0 0 0 1 2 1 1 0 1 0 0 0 0 0 0 0 0 0 0 0 0 0 0
15 7 5 6 12 12 0 0 0 0 0 0 0 0 0 0 0 0 0 0 0 0 0 0 0 0 0 4 4 1 0 0 0 0 1 0 0 0 0 1 0 0 0 0 0 0 0
9 2 12 11 17 10 0 0 0 0 0 0 0 0 0 0 0 0 0 0 0 0 0 0 0 0 0 0 0 0 0 0 0 0 0 0 0 0 0 0 0 0 0 0 0 0 0

GFSGBSN_con_mlcape_069.txt.gz
CAPE
20 9 7 4 2 2 0 1 0 0 2 3 11 25 20 27 28 26 37 28 4 3 28 23 3 0 0 0 0 0 0 0 0 27 8 45 22 7 16 14 61 12 44 43 61 93 68
24 14 12 24 5 4 1 2 0 0 2 1 11 19 18 28 27 28 23 29 10 0 7 22 24 0 0 0 0 1 0 0 0 6 2 20 1 7 18 60 25 1 0 72 103 72 39
0 10 16 2 34 6 3 2 0 0 1 3 11 23 21 27 31 30 29 28 15 5 5 34 26 14 0 0 0 0 0 0 0 1 9 14 0 3 1 3 0 4 20 49 86 44 7
30 20 4 8 8 46 6 3 1 0 3 2 11 23 19 19 18 26 26 20 11 4 1 29 32 11 0 0 0 0 0 0 10 13 35 33 0 1 4 0 1 2 31 75 29 75 3
5 47 39 12 11 30 30 4 1 0 3 4 9 18 11 13 13 18 19 9 1 1 6 18 0 5 0 0 2 0 3 0 16 12 30 20 4 11 7 0 3 28 4 8 1 17 0
6 6 42 38 12 41 34 4 2 1 3 2 6 9 8 11 11 16 5 0 0 1 0 0 0 5 0 1 4 7 20 24 29 13 2 0 1 1 2 7 3 0 9 8 1 0 1
2 1 7 29 37 44 61 5 3 0 0 1 5 8 4 7 7 1 1 0 0 0 0 0 0 0 0 0 0 27 46 41 23 11 0 2 0 0 0 0 0 0 0 0 0 0 0
0 0 7 3 5 42 42 4 4 0 0 0 5 6 2 1 1 13 1 0 0 0 0 0 0 0 1 1 2 38 46 10 2 0 7 0 0 0 0 2 0 13 16 4 1 0 0
3 0 0 2 3 5 42 3 4 1 1 1 2 2 1 1 11 0 0 0 0 0 0 0 0 1 7 0 6 14 25 16 1 0 0 1 1 5 0 2 3 12 0 12 0 0 0
4 6 4 0 0 2 47 3 3 2 0 3 0 0 0 1 0 0 0 0 0 0 0 0 8 2 2 1 8 1 3 5 4 0 0 0 2 7 0 1 5 0 8 40 1 2 0
25 32 18 0 6 0 24 4 4 4 0 1 0 0 1 1 0 0 0 0 0 0 0 2 0 0 18 9 0 2 5 0 0 1 2 1 1 7 0 5 0 1 0 13 25 0 1
22 39 27 0 11 5 10 4 2 2 0 0 0 0 0 0 0 0 0 0 0 0 0 1 0 0 2 9 0 0 4 0 1 2 0 2 1 1 1 0 0 8 31 48 42 13 6
36 31 39 1 26 10 4 3 3 2 0 0 0 0 0 0 1 0 0 0 0 0 0 6 0 0 2 12 8 1 2 2 0 0 0 0 0 0 0 0 0 2 1 0 0 4 0
92 34 9 0 46 1 3 5 3 5 0 0 0 0 0 1 0 0 0 0 0 0 10 3 0 0 9 9 8 0 2 0 0 0 0 0 0 0 0 0 0 0 0 0 0 0 0
21 3 13 28 18 4 5 5 5 2 0 0 0 0 0 0 0 0 0 0 0 3 4 1 2 0 0 0 3 2 0 0 0 0 0 0 0 0 0 0 7 11 0 0 0 0 0
17 40 29 25 23 4 12 7 5 1 0 0 0 0 0 0 0 2 0 0 0 1 0 8 3 2 0 0 0 0 1 0 0 0 0 0 0 1 0 0 0 0 0 0 0 4 0
6 14 56 20 19 5 9 9 3 1 0 0 0 1 0 0 0 4 0 0 1 7 0 2 0 0 0 0 0 1 0 0 0 0 0 0 0 0 0 0 0 0 0 0 0 0 0
4 7 42 15 14 13 3 16 3 1 0 0 0 0 0 0 0 1 5 0 2 3 0 0 5 1 0 0 2 0 0 0 0 0 0 0 0 0 0 0 0 0 0 0 0 0 0
4 10 31 7 10 3 19 9 3 4 0 0 0 0 9 7 0 0 6 0 1 2 0 0 4 0 6 5 2 6 0 6 0 0 0 0 0 0 0 0 0 0 0 0 0 0 0
6 12 27 19 4 1 5 7 2 4 0 0 0 0 3 8 0 0 0 0 0 0 0 0 0 0 0 2 3 1 0 2 0 0 0 0 0 0 0 0 0 0 0 0 0 0 0
9 32 5 28 2 4 4 6 0 0 0 0 0 0 0 0 0 0 1 0 0 0 0 0 0 0 2 1 1 1 0 1 1 0 0 0 0 0 0 0 0 0 0 0 0 0 0
10 43 15 15 8 10 6 4 0 0 0 0 0 0 0 0 0 0 0 0 3 0 0 0 0 0 0 0 0 0 0 0 0 0 0 0 0 0 0 0 0 0 0 0 0 0 0
18 46 23 17 15 34 5 4 1 4 0 0 0 0 0 0 0 0 0 0 8 0 0 0 0 0 0 0 0 0 0 0 0 0 0 0 0 0 0 0 0 0 0 0 0 0 0
29 41 14 24 0 13 7 2 0 4 0 0 0 0 0 0 0 0 0 0 1 0 0 0 0 0 0 0 0 0 0 0 0 0 0 0 0 0 0 0 0 0 0 0 0 0 0
49 15 25 2 6 4 8 9 7 0 0 0 0 0 0 0 0 0 0 0 0 0 0 0 0 0 0 0 0 0 0 0 0 0 0 0 0 0 0 0 0 0 0 0 0 0 0
44 21 16 1 12 2 10 13 3 0 0 0 0 0 0 0 0 0 0 0 0 0 0 0 0 0 0 0 0 0 0 0 0 0 0 0 0 0 0 0 0 0 0 0 0 0 0
40 24 20 19 4 9 8 9 8 0 0 0 0 0 0 0 0 0 0 0 0 0 0 0 0 0 0 0 0 0 0 0 0 0 0 0 0 0 0 0 0 0 0 0 0 0 0
47 5 6 13 21 5 2 3 5 0 0 0 0 0 0 0 0 0 0 0 0 0 0 0 0 0 0 0 0 0 0 0 0 0 0 0 0 0 0 2 0 0 0 0 0 0 0
14 4 6 14 3 4 0 4 0 4 0 0 0 0 0 0 0 0 0 0 0 0 0 0 0 0 0 0 0 0 0 0 0 0 0 0 0 0 0 0 0 0 0 0 0 0 0

GFSGBSN_con_mlcape_072.txt.gz
CAPE
19 27 25 18 32 35 19 3 2 1 4 3 4 4 21 18 17 15 15 17 27 12 0 20 20 5 0 0 0 0 0 0 0 0 0 0 3 1 3 8 5 1 11 75 105 178 180
8 8 11 35 31 43 41 23 4 3 1 3 4 5 17 19 16 20 22 25 17 20 0 15 28 8 0 0 0 1 0 0 0 0 0 5 23 2 7 13 0 0 0 37 120 136 103
6 7 6 3 29 33 19 45 31 4 2 3 1 5 10 10 9 10 21 25 27 9 1 5 34 10 0 0 0 0 0 0 0 0 6 0 0 11 9 9 24 27 0 26 45 106 72
2 2 2 4 9 4 49 25 59 4 3 4 9 6 5 4 6 7 11 21 15 6 4 1 24 6 0 0 0 0 0 0 15 10 13 0 0 12 3 0 24 18 20 20 13 90 35
1 1 2 0 1 9 1 42 39 3 5 3 6 8 4 3 4 6 9 6 0 6 3 23 0 0 0 0 0 0 1 9 8 20 12 10 12 8 9 10 17 26 11 2 18 95 17
15 2 1 4 0 1 2 3 15 26 5 5 0 0 1 4 6 3 0 0 0 1 1 0 0 3 0 0 0 1 20 24 27 11 8 3 2 1 2 1 2 6 4 11 2 15 4
14 8 0 1 2 5 1 3 2 18 2 4 0 2 0 4 6 1 1 0 0 0 0 0 0 0 0 0 0 4 41 12 23 11 1 4 0 0 0 1 0 1 0 6 0 1 1
20 22 27 6 12 10 8 4 0 17 3 3 4 1 0 0 1 1 1 0 0 0 0 0 0 0 0 0 0 25 49 0 9 0 5 0 0 0 0 1 6 7 3 20 11 3 3
8 20 14 21 30 15 13 1 1 7 3 1 0 0 0 0 4 1 0 0 0 0 0 0 0 0 0 0 2 3 5 4 0 1 1 2 2 1 0 0 1 9 0 15 11 27 12
9 14 21 13 11 18 20 5 1 14 2 1 2 0 0 0 0 0 0 0 0 0 0 0 1 0 0 5 2 0 1 2 10 1 0 0 4 6 3 0 1 0 6 0 0 1 4
14 15 10 24 20 36 10 14 8 8 3 0 2 0 0 0 0 0 0 0 0 0 0 0 0 0 14 10 0 4 3 3 0 0 0 0 4 5 1 0 0 0 6 0 0 0 0
29 17 39 28 24 13 2 0 14 18 2 0 1 0 1 1 0 0 0 0 0 0 0 0 0 0 2 9 0 0 2 1 0 1 2 2 1 6 0 0 1 0 20 24 15 0 1
20 25 19 24 93 23 2 0 57 1 4 1 0 0 0 0 0 0 0 0 0 0 0 0 0 0 4 6 4 0 0 0 1 0 0 0 1 5 3 0 0 3 3 3 5 0 0
32 26 27 25 5 75 7 7 9 6 4 4 0 0 0 0 0 0 0 0 0 0 0 0 0 5 0 0 0 0 0 0 0 0 0 0 0 1 0 0 0 2 0 0 0 0 0
24 48 18 23 10 40 11 6 3 7 5 6 0 0 0 0 0 0 0 0 0 0 0 0 0 0 0 0 0 0 0 0 0 0 0 0 0 0 0 0 0 0 0 0 0 0 0
19 37 14 19 11 24 4 6 4 4 3 4 0 0 0 0 0 0 1 0 0 1 0 0 0 2 0 0 0 0 0 0 0 0 0 0 0 0 0 0 0 0 0 0 0 0 0
51 34 18 24 13 24 1 17 44 16 14 0 0 0 2 0 0 9 0 0 0 6 3 0 0 1 0 0 0 0 0 0 0 0 0 0 0 0 0 0 0 0 0 0 0 0 0
84 41 29 17 8 26 13 11 28 22 18 4 0 0 1 0 0 12 0 1 3 5 0 2 3 0 0 0 0 0 0 0 0 0 0 0 0 0 0 0 0 0 0 0 0 0 0
62 47 25 8 8 21 18 14 36 4 6 1 0 2 4 0 1 1 1 0 5 2 0 1 6 0 1 0 0 0 0 0 0 0 0 0 0 0 0 0 0 0 0 0 0 0 0
58 49 21 12 3 33 14 6 41 3 0 4 0 0 13 19 0 0 2 0 4 0 0 0 0 0 2 6 0 0 0 0 0 0 0 0 0 0 0 0 0 0 0 0 0 0 0
54 22 17 9 58 9 12 1 29 0 4 17 0 0 0 1 1 0 0 0 1 0 0 0 0 0 1 6 1 0 0 2 0 0 0 0 0 0 0 0 0 0 0 0 0 0 0
57 31 24 39 7 17 24 0 2 2 3 10 0 0 0 0 0 0 0 0 0 0 0 0 0 0 0 0 0 0 0 1 0 0 0 0 0 0 0 0 0 0 0 0 0 0 0
50 28 28 46 41 18 1 3 1 0 9 3 0 0 0 0 0 0 0 0 2 0 0 0 0 0 0 0 0 0 0 0 0 0 0 0 0 0 0 0 0 0 0 0 0 0 0
52 40 35 31 11 0 3 3 5 5 1 0 0 0 0 0 0 0 0 5 3 0 0 0 0 0 0 0 0 0 0 0 0 0 0 0 0 0 0 0 0 0 0 0 0 0 0
41 38 28 14 3 4 3 2 3 12 0 0 0 0 0 0 0 0 0 0 0 0 0 0 0 0 0 0 0 0 0 0 0 0 0 0 0 0 0 0 0 0 0 0 0 0 0
36 7 16 18 21 11 7 4 4 14 13 0 0 0 0 0 0 0 0 0 0 0 0 0 0 0 0 0 0 0 0 0 0 0 0 0 0 0 0 0 0 0 0 0 0 0 0
28 11 7 6 20 13 4 3 9 23 13 0 0 0 0 0 0 0 0 0 0 0 0 0 0 0 0 0 0 0 0 0 0 0 0 0 0 0 0 0 0 0 0 0 0 0 0
39 18 2 4 33 22 11 1 0 10 1 0 0 0 0 0 0 0 0 0 0 0 0 0 0 0 0 0 0 0 0 0 0 0 0 0 0 0 0 0 0 0 0 0 0 0 0
38 9 0 2 15 10 4 0 17 26 0 0 0 0 0 0 0 0 0 0 0 0 0 0 0 0 0 0 0 0 0 0 0 0 0 0 0 0 0 0 0 0 0 0 0 0 0

GFSGBSN_con_mlcape_075.txt.gz
CAPE
7 7 6 7 4 8 3 21 33 56 19 3 6 8 8 13 16 13 9 26 21 27 26 0 25 26 0 0 0 0 24 0 0 0 0 0 0 2 0 15 2 11 0 22 135 188 232
1 1 1 5 4 5 8 7 2 36 50 6 4 7 3 4 8 1 5 18 26 30 18 0 26 12 0 0 0 0 14 0 0 0 0 0 0 1 9 0 9 14 0 2 116 114 184
6 1 2 2 1 7 3 4 2 0 20 12 7 2 6 0 7 8 2 12 12 20 14 0 9 6 2 0 0 0 0 0 0 0 0 0 3 1 6 9 0 0 14 0 3 55 96
4 3 1 2 2 0 5 4 2 2 2 14 10 4 6 1 1 0 10 7 10 14 5 1 20 7 0 0 0 0 0 0 0 3 13 0 0 1 6 9 3 14 17 2 0 18 44
12 18 15 2 3 6 4 6 6 2 1 4 3 1 2 0 0 0 13 1 0 2 4 3 13 1 0 0 0 0 0 0 7 14 27 10 0 8 5 0 1 13 1 0 9 60 48
21 19 24 21 11 7 12 6 7 0 1 3 4 3 1 4 0 1 0 0 0 0 2 8 8 0 0 0 0 0 0 11 11 17 9 16 4 0 0 0 2 0 1 0 0 23 3
12 14 32 23 15 22 20 13 7 6 5 1 4 1 0 4 0 1 0 0 0 0 0 0 0 0 0 0 0 0 7 2 0 10 0 5 2 0 0 0 2 0 0 0 1 32 4
12 4 23 28 19 25 20 20 9 9 0 0 4 2 0 5 0 0 0 0 0 0 0 0 0 0 0 0 0 0 4 0 2 0 3 0 1 0 0 1 16 5 10 8 0 5 15
10 11 9 7 36 23 20 18 11 10 1 12 3 2 4 0 0 3 0 0 0 0 0 0 0 0 0 0 2 0 0 0 0 0 0 2 0 0 1 2 1 10 0 9 0 0 3
2 1 1 1 2 7 24 26 14 7 0 7 4 2 4 0 0 0 0 0 0 0 0 0 0 0 0 3 1 0 0 0 4 0 0 0 0 2 4 0 0 1 9 30 18 0 1
8 12 31 22 9 11 5 6 23 2 9 3 4 1 2 0 0 0 0 0 0 0 0 0 0 0 0 1 1 2 6 2 0 2 0 0 0 18 0 0 1 0 3 0 4 0 0
34 43 37 41 33 25 18 32 0 4 2 1 4 9 4 7 0 0 0 0 0 0 0 0 0 0 0 0 0 0 1 4 2 0 0 1 6 6 3 0 4 0 17 6 7 0 0
45 38 40 42 32 34 47 73 35 46 7 6 4 13 10 0 0 0 0 0 0 0 0 0 0 0 0 0 0 0 4 2 1 0 1 10 24 13 0 2 0 2 0 0 0 0 0
31 40 44 38 31 51 35 44 99 10 15 8 5 9 7 0 0 0 0 0 0 0 0 0 0 0 0 0 0 0 0 0 1 0 0 0 2 4 4 0 0 0 0 0 0 0 0
31 32 40 44 55 42 20 26 46 12 1 31 14 6 0 0 0 0 0 0 0 0 0 0 0 0 0 0 0 0 0 0 0 0 0 0 0 0 0 0 0 0 0 0 0 0 0
30 52 79 71 95 52 10 30 36 24 42 1 2 5 2 0 0 0 0 0 0 0 0 0 0 0 0 0 0 0 0 0 0 0 0 0 2 0 0 0 0 0 0 0 0 0 0
55 75 113 70 36 20 9 30 27 35 14 1 7 5 4 0 1 6 0 0 0 1 1 0 0 0 0 0 0 0 0 0 0 0 0 0 0 0 0 0 0 0 0 0 0 0 0
68 161 77 73 17 11 7 25 34 20 22 25 11 0 3 8 7 1 0 0 0 1 0 4 0 0 0 0 0 0 0 0 0 0 0 0 0 0 0 0 0 0 0 0 0 0 0
79 133 98 46 22 7 12 26 8 9 28 21 6 5 12 5 1 0 0 0 1 3 1 6 0 0 0 0 0 0 0 0 0 0 0 0 0 0 0 0 0 0 0 0 0 0 0
128 82 75 46 30 14 40 19 17 9 17 8 2 0 8 25 0 0 0 0 9 2 3 0 0 0 0 0 0 0 0 0 0 0 0 0 0 0 0 0 0 0 0 0 0 0 0
73 42 42 50 30 38 16 36 16 5 22 14 3 0 0 0 1 0 0 0 4 3 0 0 0 0 0 0 0 0 0 0 0 0 0 0 0 0 0 0 0 0 0 0 0 0 0
39 38 33 30 36 12 44 19 5 7 2 2 1 0 0 0 0 0 1 0 0 0 0 0 0 0 0 0 0 0 0 0 0 0 0 0 0 0 0 0 0 0 0 0 0 0 0
38 45 26 26 43 32 19 6 2 3 21 6 0 0 0 0 0 0 0 0 0 0 0 0 0 0 0 0 0 0 0 0 0 0 0 0 0 0 0 0 0 0 0 0 0 0 0
51 41 28 58 18 9 5 0 0 1 2 0 0 0 0 0 0 0 0 2 0 0 0 0 0 0 0 0 0 0 0 0 0 0 0 0 0 0 0 0 0 0 0 0 0 0 0
47 34 62 18 2 2 0 0 4 0 0 0 0 0 0 0 0 0 0 0 0 0 0 0 0 0 0 0 0 0 0 0 0 0 0 0 0 0 0 0 0 0 0 0 0 0 0
27 37 31 3 6 27 5 6 19 0 0 0 0 0 0 0 0 0 0 0 1 0 0 0 0 0 0 0 0 0 0 0 0 0 0 0 0 0 0 0 0 0 0 0 0 0 0
35 44 18 0 36 15 5 4 3 20 0 0 0 0 0 0 0 0 0 0 0 0 0 0 0 0 0 0 0 0 0 0 0 0 0 0 0 0 0 0 0 0 0 0 0 0 0
35 28 3 0 8 13 14 10 15 5 0 0 0 0 0 0 0 0 0 0 0 0 0 0 0 0 0 0 0 0 0 0 0 0 0 0 0 0 0 0 0 0 0 0 0 0 0
25 13 0 1 14 15 6 4 0 1 0 0 0 0 0 0 0 0 0 0 0 0 0 0 0 0 0 0 0 0 0 0 0 0 0 0 0 0 0 0 0 0 0 0 0 0 0

GFSGBSN_con_mlcape_078.txt.gz
CAPE
4 5 3 2 0 1 5 7 3 2 7 24 8 65 7 8 7 2 6 5 16 15 26 12 0 26 0 0 0 0 34 3 0 0 0 0 0 0 0 1 0 1 0 0 0 0 89
11 14 12 10 7 5 2 5 4 7 9 15 21 18 7 5 5 1 6 9 4 12 35 7 0 18 0 0 0 0 0 0 0 0 0 0 0 0 0 0 5 5 0 0 1 6 26
37 33 17 9 19 12 12 1 16 15 8 5 10 0 18 2 4 3 8 0 8 8 25 9 0 21 1 0 0 0 0 0 0 0 0 0 6 5 12 2 0 0 0 15 0 0 41
28 31 45 29 22 26 9 9 31 21 11 2 3 1 6 1 1 2 4 0 8 0 19 8 0 7 0 0 0 0 0 0 0 0 4 10 23 16 9 8 2 12 1 1 0 0 98
28 2 29 41 38 29 17 22 8 7 5 7 0 3 3 4 3 2 2 3 0 0 21 8 2 0 0 0 0 0 0 0 1 7 15 16 21 14 20 3 7 0 4 0 20 0 38
13 13 6 13 15 17 42 31 31 13 11 6 2 0 20 2 1 0 0 0 1 0 23 5 2 0 0 0 0 0 0 0 9 8 8 18 7 0 0 0 0 0 1 8 0 0 33
12 11 12 14 17 7 15 12 17 21 9 11 0 2 8 4 0 6 0 0 0 0 0 0 0 0 0 0 0 0 0 0 0 0 0 3 4 0 0 1 0 0 0 0 21 0 36
21 24 12 15 16 15 9 10 14 13 6 10 7 2 8 2 4 2 0 0 0 0 0 0 0 0 0 0 0 1 3 1 0 0 0 0 0 0 0 2 0 0 2 14 15 15 53
30 16 31 26 16 7 15 16 18 47 8 9 6 7 6 5 10 11 0 0 0 0 0 0 0 0 0 0 1 0 7 0 0 0 0 1 0 0 1 0 0 5 0 5 1 2 0
29 22 29 14 14 4 13 7 11 23 9 2 11 4 22 9 1 0 0 0 0 0 0 0 0 0 0 0 4 0 2 9 4 0 0 0 0 0 2 0 22 5 30 27 3 0 0
17 19 23 20 10 12 10 11 16 15 2 1 0 0 32 1 0 0 0 0 0 0 0 0 0 0 0 1 0 0 3 3 0 1 0 0 0 0 1 2 0 17 23 14 2 0 0
19 38 28 19 22 33 25 30 23 20 11 12 6 4 12 4 0 0 0 0 0 0 0 0 0 0 0 0 0 0 1 0 3 0 0 0 2 12 0 0 24 2 12 12 0 0 0
38 42 25 31 39 33 54 52 89 50 15 32 33 25 13 4 0 0 0 0 0 0 0 0 0 0 0 0 0 0 3 0 0 0 0 1 4 11 1 3 10 27 1 0 0 0 0
50 28 39 56 60 139 109 108 71 12 14 9 11 20 15 0 6 0 0 0 0 0 0 0 0 0 0 0 0 0 0 0 1 0 0 0 0 0 0 0 0 10 0 0 0 0 0
38 32 80 66 118 158 106 61 32 25 24 17 6 21 5 10 4 0 0 0 0 0 0 0 0 0 0 0 0 0 0 0 0 1 0 0 0 4 0 0 0 0 0 0 0 0 0
33 35 59 145 126 90 79 25 22 27 22 9 1 4 8 4 0 0 0 0 0 0 0 0 0 0 0 0 0 0 0 0 0 0 0 0 2 0 0 0 0 0 0 0 0 0 0
35 72 80 90 124 88 36 27 18 32 32 27 2 2 12 8 9 6 1 0 0 0 0 0 0 0 0 0 0 0 0 0 0 0 0 0 0 0 0 0 0 0 0 0 0 0 0
24 61 90 61 54 21 34 26 17 37 19 10 9 0 5 13 6 5 0 0 0 0 0 0 0 0 0 0 0 0 0 0 0 0 0 0 0 0 0 0 0 0 0 0 0 0 0
55 49 78 70 39 28 43 36 35 1 29 18 4 4 4 13 0 4 0 0 2 0 0 0 0 0 0 0 0 0 0 0 0 0 0 0 0 0 0 0 0 0 0 0 0 0 0
40 69 78 59 35 31 43 36 4 20 18 17 1 0 5 11 0 0 0 0 11 0 0 0 0 0 0 0 0 0 0 0 0 0 0 0 0 0 0 0 0 0 0 0 0 0 0
50 57 68 44 30 28 13 29 19 17 15 1 1 1 0 0 2 0 0 1 3 0 0 0 0 0 0 0 0 0 0 0 0 0 0 0 0 0 0 0 0 0 0 0 0 0 0
54 44 41 31 19 43 28 6 3 10 22 1 1 0 0 0 0 0 0 12 3 0 0 0 0 0 0 0 0 0 0 0 0 0 0 0 0 0 0 0 0 0 0 0 0 0 0
27 30 22 29 30 0 3 5 17 10 24 7 0 0 0 0 0 0 0 4 0 0 0 0 0 0 0 0 0 0 0 0 0 0 0 0 0 0 0 0 0 0 0 0 0 0 0
19 29 39 31 3 10 0 0 1 7 8 0 0 0 0 0 0 0 1 6 0 0 0 0 0 0 0 0 0 0 0 0 0 0 0 0 0 0 0 0 0 0 0 0 0 0 0
20 41 29 3 46 3 0 0 0 18 0 0 0 0 0 0 0 0 3 1 0 0 0 0 0 0 0 0 0 0 0 0 0 0 0 0 0 0 0 0 0 0 0 0 0 0 0
28 23 12 5 23 4 6 1 0 0 0 0 0 0 0 0 0 0 0 0 0 0 0 0 0 0 0 0 0 0 0 0 0 0 0 0 0 0 0 0 0 0 0 0 0 0 0
10 14 10 5 23 15 10 0 0 0 0 0 0 0 0 0 0 0 0 1 0 0 0 0 0 0 0 0 0 0 0 0 0 0 0 0 0 0 0 0 0 0 0 0 0 0 0
19 9 3 1 13 4 1 1 0 0 0 0 0 0 0 0 0 0 0 0 0 0 0 0 0 0 0 0 0 0 0 0 0 0 0 0 0 0 0 0 0 0 0 0 0 0 0
13 11 0 4 9 1 0 0 0 0 0 0 0 0 0 0 0 0 0 0 0 0 0 0 0 0 0 0 0 0 0 0 0 0 0 0 0 0 0 0 0 0 0 0 0 0 0

GFSGBSN_con_mlcape_081.txt.gz
CAPE
12 27 29 28 14 31 22 16 20 28 30 11 16 17 14 2 11 1 3 4 0 1 13 12 8 3 1 0 0 0 5 3 0 0 0 0 0 0 0 0 0 0 0 0 0 1 0
30 35 30 23 29 26 18 33 35 26 29 11 14 1 3 0 25 0 0 0 0 2 2 9 0 6 1 0 0 0 0 0 0 0 0 0 0 0 0 0 1 0 0 0 0 0 0
19 36 30 25 19 48 37 31 30 28 18 5 20 4 1 0 4 5 0 4 1 13 4 10 0 9 6 0 0 0 0 0 0 0 0 0 1 0 7 2 4 2 0 0 0 0 0
35 47 48 50 31 20 11 36 27 20 26 6 5 15 7 6 7 3 3 0 0 9 0 9 0 7 3 0 0 0 0 0 0 0 0 6 10 11 5 1 0 1 1 0 0 0 0
19 49 42 46 47 42 34 30 20 12 18 7 18 8 8 3 13 1 0 0 0 14 7 7 0 16 0 0 0 0 0 0 2 2 6 11 18 7 6 0 1 6 0 0 0 3 0
24 39 53 56 44 30 37 34 34 22 13 8 13 12 4 1 4 5 0 0 0 8 15 10 3 0 0 0 0 0 0 0 0 4 4 6 10 5 2 1 0 0 0 0 0 0 0
39 67 33 35 47 27 16 32 41 26 33 29 14 12 6 31 3 1 0 0 0 0 9 0 0 0 0 0 0 0 0 0 4 1 0 2 2 0 0 0 0 1 0 0 17 0 0
31 55 49 35 37 50 34 31 13 19 22 32 8 10 2 57 11 5 0 0 0 0 0 0 0 0 0 0 0 1 0 0 1 0 1 3 0 0 0 0 1 2 0 0 19 0 8
39 63 37 43 41 37 49 41 29 22 7 31 7 12 2 1 8 4 0 0 0 0 0 0 0 0 0 0 0 0 0 1 0 1 0 0 0 0 2 0 0 0 0 0 11 23 21
32 39 30 29 35 30 36 31 31 20 32 28 30 12 1 5 2 0 1 0 0 0 0 0 0 0 0 1 0 0 1 0 2 1 0 0 0 0 0 0 0 2 0 0 5 5 7
36 27 30 32 30 36 31 28 22 15 14 30 29 29 8 31 0 0 0 0 0 0 0 0 0 0 0 0 0 0 0 0 1 1 1 0 3 0 0 0 0 7 0 16 0 11 4
49 24 46 37 35 53 50 116 104 99 117 123 33 27 40 2 0 0 0 0 0 0 0 0 0 0 0 0 0 2 3 1 5 0 0 0 1 1 0 0 12 4 7 1 0 0 1
50 22 22 50 76 38 128 105 143 126 143 132 103 34 47 16 3 0 2 0 0 0 0 0 0 0 0 0 0 0 2 0 0 0 0 1 0 8 3 6 8 11 1 0 0 0 0
41 28 41 57 92 96 109 100 101 86 73 47 1 1 13 3 7 1 1 0 0 0 0 0 0 0 0 0 0 0 0 0 0 0 0 0 0 0 0 4 1 3 0 0 0 0 0
34 29 37 67 180 180 95 93 73 67 44 37 33 9 5 5 5 4 0 0 0 0 0 0 0 0 0 0 0 0 0 1 3 1 0 0 0 1 0 0 0 0 0 0 0 0 0
21 32 46 171 142 105 59 35 37 54 49 16 10 14 2 3 9 10 0 0 0 0 0 0 0 0 0 0 0 0 0 1 0 0 0 0 0 0 0 0 0 0 0 0 0 0 0
29 35 62 99 116 70 54 43 29 66 17 12 0 0 11 18 3 2 0 0 0 0 0 0 0 0 0 0 0 0 0 0 0 0 0 0 0 0 0 0 0 0 0 0 0 0 0
26 44 66 122 78 43 23 26 41 44 23 9 3 0 15 12 0 0 0 0 0 0 0 0 0 0 0 0 0 0 0 0 0 0 0 0 0 3 0 0 0 0 0 0 0 0 0
24 49 111 76 47 32 22 27 9 6 25 4 1 3 14 12 0 1 0 0 1 1 0 0 0 0 0 0 0 0 0 0 0 0 0 0 0 0 0 0 0 0 0 0 0 0 0
24 37 28 23 27 18 18 15 18 18 5 1 1 0 4 5 1 0 0 2 11 0 0 0 0 0 0 0 0 0 0 0 0 0 0 0 0 0 0 0 0 0 0 0 0 0 0
20 30 28 31 22 13 21 23 0 0 0 0 0 1 1 0 0 0 0 1 11 4 0 0 0 0 0 0 0 0 0 0 0 0 0 0 0 0 0 0 0 0 0 0 0 0 0
28 33 27 19 6 3 26 22 17 1 1 0 2 0 0 0 0 0 0 3 10 0 0 0 0 0 0 0 0 0 0 0 0 0 0 0 0 0 0 0 0 0 0 0 0 0 0
11 25 19 8 5 1 0 0 3 0 1 0 0 0 0 0 0 0 0 10 7 0 0 0 0 0 0 0 0 0 0 0 0 0 0 0 0 0 0 0 0 0 0 0 0 0 0
9 12 10 23 4 0 0 0 0 0 0 0 0 0 0 0 0 0 2 7 1 0 0 0 0 0 0 0 0 0 0 0 0 0 0 0 0 0 0 0 0 0 0 0 0 0 0
13 10 1 21 6 3 0 0 0 0 0 0 0 0 0 0 0 0 2 2 0 0 0 0 0 0 0 0 0 0 0 0 0 0 0 0 0 0 0 0 0 0 0 0 0 0 0
12 5 0 10 5 1 0 0 0 0 0 0 0 0 0 0 0 0 0 0 0 0 0 0 0 0 0 0 0 0 0 0 0 0 0 0 0 0 0 0 0 0 0 0 0 0 0
11 5 0 0 27 3 0 0 0 0 0 0 0 0 0 0 0 0 0 0 0 0 0 0 0 0 0 0 0 0 0 0 0 0 0 0 0 0 0 0 0 0 0 0 0 0 0
12 4 0 0 14 9 4 0 0 0 0 0 0 0 0 0 0 0 0 0 0 0 0 0 0 0 0 0 0 0 0 0 0 0 0 0 0 0 0 0 0 0 0 0 0 0 0
7 3 0 9 8 4 0 0 0 0 0 0 0 0 0 0 0 0 0 0 0 0 0 0 0 0 0 0 0 0 0 0 0 0 0 0 0 0 0 0 0 0 0 0 0 0 0

GFSGBSN_con_mlcape_084.txt.gz
CAPE
20 34 33 22 23 21 25 33 38 22 18 17 12 9 6 0 5 0 19 6 3 0 0 2 0 0 0 0 0 0 0 15 1 0 0 0 0 0 0 0 0 0 0 0 0 1 0
21 44 37 49 42 35 20 30 25 31 26 31 36 31 19 33 10 5 9 2 1 0 0 3 0 0 0 0 0 0 0 0 0 0 0 0 0 0 0 0 0 0 0 0 1 0 0
20 9 39 39 39 47 56 50 40 30 28 31 18 32 17 17 4 40 6 2 0 0 0 5 1 1 3 0 0 0 0 0 0 0 0 0 0 0 3 0 1 2 0 0 0 0 2
17 26 25 34 31 35 43 55 59 36 32 35 38 15 15 3 5 3 2 4 0 0 5 1 3 6 0 0 0 0 0 0 0 0 0 1 12 9 15 9 1 2 0 0 0 0 0
18 28 38 36 23 31 22 25 43 53 33 27 37 16 17 11 0 14 5 0 2 1 8 4 3 2 0 0 0 0 0 0 4 0 1 6 20 14 15 7 6 5 0 0 0 0 0
35 25 36 22 35 25 24 20 22 24 46 25 14 17 7 8 0 8 0 0 12 4 9 11 5 0 0 0 0 0 0 0 0 9 12 12 18 5 6 6 0 5 0 1 0 6 7
35 40 33 42 63 55 68 41 33 9 10 20 14 12 3 9 54 3 0 0 1 1 13 0 0 0 0 0 0 0 0 0 10 6 2 2 4 0 0 1 2 6 3 1 4 25 18
42 49 45 56 62 42 72 70 47 31 24 12 14 9 2 11 7 1 0 0 0 0 0 0 0 0 0 0 0 0 0 0 1 2 0 6 1 0 2 3 3 1 2 0 1 29 14
25 47 31 29 37 54 56 55 55 58 57 25 21 4 5 1 18 2 0 0 0 0 0 0 0 0 0 0 0 2 0 4 4 3 1 3 0 0 2 6 1 1 0 0 3 35 101
34 48 45 36 29 63 74 85 91 74 77 27 45 42 12 0 4 0 1 0 0 0 0 0 0 0 0 0 2 1 0 0 8 1 1 2 0 0 1 3 2 0 0 3 1 0 1
28 22 44 22 67 77 116 104 0 131 104 118 121 83 37 6 5 3 0 0 0 0 0 0 0 0 0 2 2 0 0 4 2 3 0 0 1 1 0 0 0 10 0 1 0 42 11
18 10 48 47 87 97 123 105 45 93 102 161 159 65 34 0 2 1 0 0 0 0 0 2 4 1 2 3 4 8 2 3 1 0 0 0 0 1 2 0 5 19 24 4 4 2 1
14 18 70 114 108 108 151 135 88 94 94 117 41 29 10 16 3 2 0 4 0 0 0 1 1 0 1 6 3 5 2 1 0 0 1 1 0 3 10 6 9 6 19 0 4 8 2
11 28 106 139 70 146 101 72 67 65 81 75 20 20 2 1 2 5 1 1 0 0 0 0 0 0 4 0 1 3 1 1 0 0 0 0 0 1 0 2 6 7 1 2 1 0 0
10 27 43 60 165 129 103 40 50 65 81 39 11 2 1 0 0 8 2 0 0 0 0 0 0 2 0 0 0 1 0 0 6 2 0 3 0 0 0 1 0 0 0 0 0 0 0
1 21 41 83 106 71 17 37 45 71 28 35 8 7 4 3 3 4 0 1 0 0 0 0 0 0 0 0 0 1 0 0 0 3 1 0 1 2 2 0 0 0 0 0 0 0 0
15 16 28 57 33 29 22 13 23 39 30 0 1 1 11 19 3 1 0 0 0 0 0 0 0 0 0 0 0 0 1 0 0 0 0 0 1 5 0 0 0 0 0 0 0 0 1
27 23 31 31 23 18 22 9 10 23 22 0 0 0 8 3 0 0 0 0 0 1 5 0 0 0 0 0 0 0 1 0 0 0 0 0 2 0 0 0 0 0 0 0 0 0 0
20 40 28 13 5 10 26 12 11 0 1 0 2 0 5 9 0 0 0 0 1 1 0 0 0 0 0 0 0 0 0 0 0 0 0 0 0 0 0 0 0 0 0 0 0 0 0
19 16 8 7 16 8 5 12 0 0 0 0 1 0 0 2 3 0 0 0 3 0 0 0 0 0 0 0 0 0 0 0 0 0 0 0 0 0 0 0 0 0 0 0 0 0 0
16 10 6 7 9 1 1 1 0 0 0 0 0 1 1 0 0 0 0 1 10 7 0 0 0 0 0 0 0 0 0 0 0 0 0 0 0 0 0 0 0 0 0 0 0 0 0
10 0 3 10 2 0 0 0 0 0 0 0 0 0 1 1 0 0 0 13 9 0 0 0 0 0 0 0 0 0 0 0 0 0 0 0 0 0 0 0 0 0 0 0 0 0 0
8 0 7 12 2 0 0 0 0 0 0 0 0 0 0 0 0 0 1 0 1 0 0 0 0 0 0 0 0 0 0 0 0 0 0 0 0 0 0 0 0 0 0 0 0 0 0
6 2 12 17 6 0 0 0 0 0 0 0 0 0 0 0 0 0 0 0 1 0 0 0 0 0 0 0 0 0 0 0 0 0 0 0 0 0 0 0 0 0 0 0 0 0 0
10 4 9 14 7 0 0 0 0 0 0 0 0 0 0 0 0 0 0 0 0 0 0 0 0 0 0 0 0 0 0 0 0 0 0 0 0 0 0 0 0 0 0 0 0 0 0
5 4 1 11 1 0 0 0 0 0 0 0 0 0 0 0 0 0 0 0 0 0 0 0 0 0 0 0 0 0 0 0 0 0 0 0 0 0 0 0 0 0 0 0 0 0 0
7 6 5 0 1 0 0 0 0 0 0 0 0 0 0 0 0 0 0 0 0 0 0 0 0 0 0 0 0 0 0 0 0 0 0 0 0 0 0 0 0 0 0 0 0 0 0
10 0 2 8 0 1 2 0 0 0 0 0 0 0 0 0 0 0 0 0 0 0 0 0 0 0 0 0 0 0 0 0 0 0 0 0 0 0 0 0 0 0 0 0 0 0 0
10 1 0 14 1 0 0 0 0 0 0 0 0 0 0 0 0 0 0 0 0 0 0 0 0 0 0 0 0 0 0 0 0 0 0 0 0 0 0 0 0 0 0 0 0 0 0

GFSGBSN_con_mlcape_087.txt.gz
CAPE
32 37 42 55 55 59 47 41 40 37 36 23 29 27 43 27 11 10 5 3 12 1 0 4 0 0 0 0 0 0 0 7 0 0 0 0 0 0 0 0 0 0 0 0 0 0 0
33 45 42 46 46 47 56 43 31 8 18 33 33 41 25 26 13 8 8 23 5 1 0 5 0 0 0 0 0 0 0 0 1 0 0 0 0 0 0 0 0 0 0 0 1 0 1
39 45 23 23 22 16 19 30 30 23 11 18 19 15 21 23 22 17 1 36 6 0 4 5 0 1 0 0 0 0 0 0 0 0 0 1 0 0 0 0 0 0 0 0 0 0 0
16 10 9 22 26 26 27 32 37 22 11 9 22 21 22 11 6 10 0 25 2 0 9 13 1 3 0 0 0 0 0 0 0 0 0 3 7 14 7 7 2 4 1 0 0 0 0
14 14 12 31 16 26 35 44 37 40 15 7 9 9 10 8 3 1 7 3 1 12 8 6 8 3 0 0 0 0 0 0 0 4 0 0 17 11 3 3 2 10 3 5 0 1 0
21 9 2 9 19 36 55 44 59 55 38 19 4 0 5 10 2 2 6 0 23 5 7 4 1 0 0 0 0 0 0 0 3 7 13 10 7 1 7 7 0 7 6 5 2 39 38
20 28 25 25 27 33 51 69 59 70 60 27 0 3 3 4 11 44 6 0 0 1 2 0 0 0 0 0 0 0 0 0 4 9 9 1 3 1 3 8 5 6 7 1 5 9 13
42 47 19 22 33 32 62 59 64 61 51 23 3 2 0 12 9 14 0 0 0 0 2 2 1 0 0 0 0 1 0 0 2 9 1 0 2 1 4 7 5 4 2 0 0 3 7
57 17 11 29 29 63 88 83 50 78 38 64 20 0 1 11 19 11 0 0 0 0 0 3 1 0 0 0 2 1 0 3 0 3 0 4 0 1 0 0 1 0 1 0 1 2 25
3 26 36 49 24 60 93 110 109 3 9 89 52 25 11 0 28 1 2 0 0 0 1 0 2 0 0 0 1 6 1 6 1 2 0 1 0 1 0 2 1 0 0 4 2 1 1
46 32 22 33 32 97 69 97 118 21 33 71 149 91 16 0 7 11 8 0 0 0 0 0 4 0 1 7 1 2 1 7 2 1 3 0 5 2 3 0 1 0 5 4 5 4 4
20 0 20 23 34 124 136 124 81 49 58 43 40 13 0 8 0 8 3 0 1 0 0 5 5 10 4 9 2 4 2 1 1 0 0 0 0 1 1 0 15 4 1 2 3 0 1
2 2 4 20 18 65 89 58 45 58 59 54 51 0 0 35 12 37 1 1 0 0 0 1 4 7 6 3 2 0 0 0 0 0 0 1 2 0 4 0 0 21 1 1 0 7 4
2 6 4 3 20 64 46 36 55 59 67 39 11 3 16 30 4 16 3 0 0 0 2 2 3 8 4 1 4 3 1 0 0 2 4 0 0 1 0 7 14 9 4 4 3 1 0
0 5 5 13 37 40 23 49 45 33 10 15 11 10 2 10 24 7 1 0 0 1 3 3 6 3 1 2 2 5 4 1 7 1 0 0 0 0 3 0 4 0 1 1 0 0 0
6 12 22 28 21 34 19 30 37 30 17 9 5 9 9 12 16 7 0 0 3 2 4 0 0 0 1 2 0 3 2 0 0 0 0 0 0 0 0 0 0 0 0 0 0 3 0
17 16 17 18 18 23 28 21 23 22 6 10 8 3 23 18 1 0 0 1 1 19 19 7 0 0 2 1 2 4 0 0 0 2 1 2 0 0 1 0 2 2 3 0 0 0 1
7 8 9 8 13 15 13 4 10 8 0 0 0 0 1 2 1 0 1 1 1 23 5 0 0 0 1 0 3 3 0 4 0 0 0 0 3 2 0 0 0 0 0 0 0 0 0
3 4 11 14 7 0 0 0 0 0 0 0 0 1 1 4 3 0 0 2 1 1 1 5 0 0 0 1 0 3 2 0 0 0 0 0 0 1 2 0 0 0 0 0 0 0 0
2 0 11 18 2 0 0 0 0 0 0 0 0 0 1 1 1 1 2 0 1 0 0 0 0 0 0 0 0 0 0 0 0 0 0 0 0 0 0 0 0 0 0 0 0 0 0
1 0 12 6 5 0 0 0 0 0 0 0 0 1 2 4 1 4 1 0 2 6 0 0 0 0 0 0 0 0 0 0 0 0 0 0 0 0 0 0 0 0 0 0 0 0 0
2 0 7 16 12 9 0 0 0 0 0 0 0 0 0 0 0 0 0 2 0 0 0 0 0 0 0 0 0 0 0 0 0 0 0 0 0 0 0 0 0 0 0 0 0 0 0
2 1 3 6 13 5 0 0 0 0 0 0 0 0 0 0 0 1 2 1 0 0 0 0 0 0 0 0 0 0 0 0 0 0 0 0 0 0 0 0 0 0 0 0 0 0 0
0 4 13 0 1 4 0 0 0 0 0 0 0 0 0 0 0 1 0 0 0 0 0 0 0 0 0 0 0 0 0 0 0 0 0 0 0 0 0 0 0 0 0 0 0 0 0
3 0 13 0 0 0 0 0 0 0 0 0 0 0 0 0 0 0 0 0 0 0 0 0 0 0 0 0 0 0 0 0 0 0 0 0 0 0 0 0 0 0 0 0 0 0 0
3 2 2 6 0 0 0 0 0 0 0 0 0 0 0 0 0 0 0 0 0 0 0 0 0 0 0 0 0 0 0 0 0 0 0 0 0 0 0 0 0 0 0 0 0 0 0
5 1 0 1 3 0 0 0 0 0 0 0 0 0 0 0 0 0 0 0 0 0 0 0 0 0 0 0 0 0 0 0 0 0 0 0 0 0 0 0 0 0 0 0 0 0 0
2 1 0 0 0 1 0 0 0 0 0 0 0 0 0 0 0 0 0 0 0 0 0 0 0 0 0 0 0 0 0 0 0 0 0 0 0 0 0 0 0 0 0 0 0 0 0
0 3 0 0 0 0 0 0 0 0 0 0 0 0 0 0 0 0 0 0 0 0 0 0 0 0 0 0 0 0 0 0 0 0 0 0 0 0 0 0 0 0 0 0 0 0 0

GFSGBSN_con_mlcape_090.txt.gz
CAPE
27 22 27 26 30 21 4 4 11 15 10 19 26 25 29 26 21 19 15 14 9 14 1 0 0 0 0 0 0 0 0 12 0 0 0 0 0 0 0 0 0 0 0 0 0 0 0
11 19 20 25 42 37 28 26 27 28 9 5 6 26 24 16 33 11 9 28 13 45 0 1 0 0 0 0 0 0 0 7 0 0 0 0 0 0 0 0 0 0 0 0 0 0 0
21 24 15 12 15 34 44 30 26 28 36 21 8 7 8 10 19 12 4 6 1 39 3 10 0 0 1 0 0 0 0 0 0 0 0 0 0 0 0 0 0 0 0 0 0 0 0
23 23 19 3 6 17 43 34 34 27 33 32 31 9 16 16 9 4 3 0 28 2 13 5 0 0 0 0 0 0 0 0 0 0 0 0 0 0 0 0 0 0 0 0 0 0 0
29 37 18 13 1 20 31 26 37 30 29 45 35 12 14 6 5 1 1 25 7 8 25 6 0 0 0 0 0 0 0 0 0 0 0 0 0 0 0 0 0 0 0 0 0 1 0
45 63 20 29 30 29 31 20 41 38 48 40 56 22 6 4 1 9 37 6 23 17 2 0 0 0 0 0 0 0 0 0 3 2 0 0 2 0 0 1 0 0 0 0 0 0 15
4 22 26 29 26 45 44 35 37 14 0 100 73 34 5 5 6 3 15 1 0 1 5 0 0 0 0 0 0 0 0 0 2 0 0 1 0 0 0 0 0 0 1 0 0 0 0
0 0 19 18 25 43 77 81 64 6 0 13 3 34 11 0 1 46 12 12 0 0 2 0 0 0 0 0 0 1 0 2 2 0 0 0 0 0 0 0 0 3 2 0 0 0 2
0 11 30 28 16 31 49 26 45 44 6 1 69 54 24 1 1 43 0 0 0 0 0 3 0 0 0 0 0 0 0 4 1 0 0 1 0 0 0 0 0 0 0 0 0 0 0
45 24 28 22 17 35 59 66 68 70 37 15 108 105 38 0 10 4 2 0 0 0 0 1 2 0 0 0 0 6 0 3 2 1 0 0 0 0 0 1 1 1 0 1 1 0 0
27 23 21 21 34 32 39 47 32 45 40 23 43 82 9 0 4 4 1 0 0 0 0 0 2 1 0 0 0 6 6 8 2 5 0 0 1 0 1 0 1 0 1 3 4 0 0
11 12 6 11 7 31 55 48 39 35 45 23 6 17 0 2 8 20 11 0 3 0 0 2 5 6 1 3 13 2 6 0 0 0 1 0 0 0 0 0 0 5 1 1 1 0 0
4 15 25 17 23 50 74 52 40 52 50 33 17 19 2 15 6 37 0 1 0 0 0 1 3 3 1 1 4 1 1 1 0 0 0 0 0 0 0 1 0 5 0 0 0 0 0
2 16 26 42 49 63 43 29 28 7 6 1 6 4 1 13 0 17 0 0 0 0 1 2 0 0 0 0 3 2 2 0 0 0 0 0 1 0 0 3 1 0 2 0 0 0 0
6 6 14 48 63 79 63 41 48 25 20 8 6 0 2 6 0 4 0 0 0 0 1 1 0 1 0 4 1 0 1 1 2 0 0 0 0 0 0 0 1 0 0 0 0 0 0
2 0 19 30 46 44 57 53 29 20 13 0 0 1 5 10 2 0 0 0 1 7 0 0 0 3 0 0 0 0 1 0 0 0 2 0 0 0 0 0 0 0 0 0 0 0 0
3 3 14 4 10 22 19 23 31 23 21 0 1 2 9 2 0 0 0 0 1 14 11 5 0 0 0 0 0 9 0 0 0 0 0 0 0 0 0 0 0 0 0 0 0 0 0
4 7 0 0 0 0 0 0 9 11 15 1 3 0 1 3 0 0 0 1 2 10 13 0 0 0 0 0 3 0 0 0 0 0 0 0 0 3 0 0 0 0 0 0 0 0 0
3 15 0 0 0 0 0 0 0 0 0 0 0 3 1 3 2 0 2 0 0 6 3 0 0 0 0 0 0 1 0 0 0 0 0 0 0 0 0 0 0 0 0 0 0 0 0
1 14 0 0 0 0 0 0 0 0 0 0 0 0 0 1 0 0 0 0 0 0 0 0 0 0 0 0 0 0 0 0 0 0 0 0 0 0 0 0 0 0 0 0 0 0 0
1 19 0 0 0 0 0 0 0 0 0 0 0 0 0 0 0 0 0 0 0 0 0 0 0 0 0 0 0 0 0 0 0 0 0 0 0 0 0 0 0 0 0 0 0 0 0
3 16 7 0 0 0 0 0 0 0 0 0 2 0 0 0 0 0 0 1 0 0 0 0 0 0 0 0 0 0 0 0 0 0 0 0 0 0 0 0 0 0 0 0 0 0 0
3 6 4 0 0 0 0 0 0 0 0 0 0 0 0 0 0 0 0 0 0 0 0 0 0 0 0 0 0 0 0 0 0 0 0 0 0 0 0 0 0 0 0 0 0 0 0
1 3 3 0 0 0 0 0 0 0 0 0 0 0 0 0 0 0 0 0 0 0 0 0 0 0 0 0 0 0 0 0 0 0 0 0 0 0 0 0 0 0 0 0 0 0 0
1 2 5 0 0 0 0 0 0 0 0 0 0 0 0 0 0 0 0 0 0 0 0 0 0 0 0 0 0 0 0 0 0 0 0 0 0 0 0 0 0 0 0 0 0 0 0
1 3 1 1 0 0 0 0 0 0 0 0 0 0 0 0 0 0 0 0 0 0 0 0 0 0 0 0 0 0 0 0 0 0 0 0 0 0 0 0 0 0 0 0 0 0 0
0 2 1 0 0 0 0 0 0 0 0 0 0 0 0 0 0 0 0 0 0 0 0 0 0 0 0 0 0 0 0 0 0 0 0 0 0 0 0 0 0 0 0 0 0 0 0
0 0 0 0 0 0 0 0 0 0 0 0 0 0 0 0 0 0 0 0 0 0 0 0 0 0 0 0 0 0 0 0 0 0 0 0 0 0 0 0 0 0 0 0 0 0 0
0 0 0 0 0 0 0 0 0 0 0 0 0 0 0 0 0 0 0 0 0 0 0 0 0 0 0 0 0 0 0 0 0 0 0 0 0 0 0 0 0 0 0 0 0 0 0

GFSGBSN_con_mlcape_093.txt.gz
CAPE
8 9 20 27 24 21 30 25 45 44 35 39 29 12 22 15 8 16 10 13 9 9 9 3 1 0 0 0 0 0 0 0 0 0 0 0 0 0 0 0 0 0 0 0 0 0 0
10 6 22 28 27 18 25 37 40 52 93 75 35 20 8 10 4 2 4 1 4 15 43 5 0 0 0 0 0 0 0 0 0 0 0 0 0 0 0 0 0 0 0 0 0 0 0
132 83 83 53 31 35 25 37 30 47 80 90 99 65 22 19 14 7 11 23 2 6 13 6 0 0 0 0 0 0 0 0 0 0 0 0 0 0 0 0 0 0 0 0 0 0 0
73 89 4 9 25 43 34 39 34 55 97 81 79 84 38 7 6 4 3 6 0 0 38 1 0 0 0 0 0 0 0 0 0 0 0 0 0 0 0 0 0 0 0 0 0 0 0
7 0 0 7 23 25 46 62 59 57 78 100 100 80 55 1 6 0 35 25 50 83 12 3 0 0 0 0 0 0 0 0 0 0 0 0 0 0 0 0 0 0 0 0 0 0 0
15 5 3 20 31 72 77 124 129 87 86 60 137 170 79 1 0 1 55 81 58 20 16 0 0 0 0 0 0 0 0 0 0 0 0 0 0 0 0 0 0 0 0 0 0 0 0
18 17 20 13 47 60 67 72 75 123 127 95 67 75 119 1 2 21 5 0 0 0 0 0 0 0 0 0 0 0 0 0 0 1 0 0 0 0 0 0 0 0 0 0 0 0 0
27 21 13 18 29 52 80 91 96 129 123 30 23 128 50 12 0 43 1 1 2 1 1 0 0 0 0 0 0 0 0 0 1 0 1 0 0 0 0 0 0 0 0 0 0 0 1
28 19 7 2 10 47 77 122 166 100 87 63 69 90 14 0 1 15 3 2 0 0 1 3 1 0 0 0 0 0 0 0 0 0 0 0 0 0 0 0 0 0 0 0 0 0 0
12 18 18 15 27 26 85 93 74 89 75 47 45 61 0 0 0 1 0 0 0 0 0 0 1 0 0 0 2 1 0 1 2 0 0 0 0 0 0 0 0 0 0 0 1 0 0
8 18 34 39 75 22 82 125 106 95 73 31 0 0 0 0 0 0 0 0 0 0 0 0 1 1 0 0 0 14 5 9 0 0 0 0 0 0 0 0 0 0 0 1 1 0 0
20 25 24 26 98 123 92 56 52 56 21 10 0 0 0 0 0 0 0 0 0 0 0 1 0 0 0 10 1 3 3 0 0 0 0 0 0 0 0 0 0 0 0 0 1 0 0
18 25 27 19 66 72 31 12 42 16 4 1 0 0 0 0 0 0 0 0 0 0 0 0 7 0 1 7 0 0 0 0 0 0 0 0 0 0 0 0 0 0 0 0 0 0 0
17 16 29 32 19 33 7 28 19 16 1 0 8 0 0 0 0 0 0 0 0 1 0 0 0 0 1 0 0 3 0 0 0 0 0 0 0 0 0 0 0 1 0 0 0 0 0
7 15 20 25 6 0 3 4 1 0 0 0 0 0 0 0 0 0 0 0 0 0 0 0 0 2 1 1 1 0 0 0 2 0 0 0 0 0 0 0 0 0 0 0 0 0 0
16 18 19 14 0 0 0 0 0 12 0 0 0 0 2 0 0 0 0 0 2 0 0 0 0 0 0 0 0 0 0 0 0 0 0 0 0 0 0 0 0 0 0 0 0 0 0
22 15 15 2 0 0 0 0 4 1 0 1 0 2 0 0 0 0 0 2 1 1 0 0 0 0 0 0 0 0 0 0 0 0 0 0 0 0 0 0 0 0 0 0 0 0 0
33 16 9 0 0 0 0 0 15 15 1 0 0 0 1 0 0 0 0 0 0 0 0 0 0 0 0 0 1 0 0 0 0 0 0 0 0 0 0 0 0 0 0 0 0 0 0
30 13 4 0 0 0 0 0 0 0 0 0 0 0 0 0 0 0 0 0 1 0 0 0 0 0 0 0 0 0 0 0 0 0 0 0 0 0 0 0 0 0 0 0 0 0 0
18 20 7 0 0 0 0 0 0 0 0 0 0 0 0 0 0 0 0 0 0 0 0 0 0 0 0 0 0 0 0 0 0 0 0 0 0 0 0 0 0 0 0 0 0 0 0
8 7 10 0 0 0 0 0 0 0 0 0 0 0 0 0 0 0 0 0 0 0 0 0 0 0 0 0 0 0 0 0 0 0 0 0 0 0 0 0 0 0 0 0 0 0 0
0 7 2 0 0 0 0 0 0 0 0 0 0 0 0 0 0 0 0 0 0 0 0 0 0 0 0 0 0 0 0 0 0 0 0 0 0 0 0 0 0 0 0 0 0 0 0
1 1 1 0 0 0 0 0 0 0 0 0 0 0 0 0 0 0 0 0 0 0 0 0 0 0 0 0 0 0 0 0 0 0 0 0 0 0 0 0 0 0 0 0 0 0 0
0 2 4 0 0 0 0 0 0 0 0 0 0 0 0 0 0 0 0 0 0 0 0 0 0 0 0 0 0 0 0 0 0 0 0 0 0 0 0 0 0 0 0 0 0 0 0
2 2 3 1 0 0 0 0 0 0 0 0 0 0 0 0 0 0 0 0 0 0 0 0 0 0 0 0 0 0 0 0 0 0 0 0 0 0 0 0 0 0 0 0 0 0 0
2 3 2 1 0 0 0 0 0 0 0 0 0 0 0 0 0 0 0 0 0 0 0 0 0 0 0 0 0 0 0 0 0 0 0 0 0 0 0 0 0 0 0 0 0 0 0
0 2 0 0 0 0 0 0 0 0 0 0 0 0 0 0 0 0 0 0 0 0 0 0 0 0 0 0 0 0 0 0 0 0 0 0 0 0 0 0 0 0 0 0 0 0 0
0 0 1 0 0 0 0 0 0 0 0 0 0 0 0 0 0 0 0 0 0 0 0 0 0 0 0 0 0 0 0 0 0 0 0 0 0 0 0 0 0 0 0 0 0 0 0
0 0 0 0 0 0 0 0 0 0 0 0 0 0 0 0 0 0 0 0 0 0 0 0 0 0 0 0 0 0 0 0 0 0 0 0 0 0 0 0 0 0 0 0 0 0 0

GFSGBSN_con_mlcape_096.txt.gz
CAPE
12 18 7 73 81 25 26 40 42 33 23 70 73 62 29 0 2 1 0 10 1 2 6 14 6 2 0 0 0 0 0 0 0 0 0 0 0 0 0 0 0 0 0 0 0 0 0
12 5 7 0 2 1 5 51 29 34 47 55 57 63 53 44 9 11 12 7 3 6 6 37 0 0 0 0 0 0 0 0 0 0 0 0 0 0 0 0 0 0 0 0 0 0 0
13 14 7 14 18 5 15 59 50 56 56 98 62 29 39 27 3 6 15 25 28 10 0 119 2 0 0 0 0 0 0 0 0 0 0 0 0 0 0 0 0 0 0 0 0 0 0
24 10 11 15 12 9 8 66 85 124 74 92 107 61 66 20 1 1 0 0 29 0 2 70 0 0 0 0 0 0 0 0 0 0 0 0 0 0 0 0 0 0 0 0 0 0 0
16 26 31 22 5 23 11 23 56 103 139 118 76 62 75 24 0 2 17 28 24 11 78 10 0 0 0 0 0 0 0 0 0 0 0 0 0 0 0 0 0 0 0 0 0 0 0
36 20 21 13 18 30 31 33 34 104 128 131 102 110 104 10 0 10 0 220 57 71 5 1 0 0 0 0 0 0 0 0 0 0 0 0 0 0 0 0 0 0 0 0 0 0 0
26 20 11 18 19 59 50 69 104 122 126 114 14 121 102 49 2 11 0 0 0 0 0 1 0 0 0 0 0 0 0 0 0 0 0 0 0 0 0 0 0 0 0 0 0 0 0
25 19 24 34 10 31 61 117 112 101 91 50 51 93 46 24 10 0 4 6 3 0 1 0 0 0 0 0 0 0 0 0 0 0 0 0 0 0 0 0 0 0 0 0 0 0 0
25 26 51 66 55 3 0 97 64 50 35 29 64 43 8 0 4 0 0 3 1 0 1 4 3 0 0 0 0 0 0 0 0 0 0 0 0 0 0 0 0 0 0 0 0 0 0
17 25 46 55 60 92 2 51 27 36 10 8 2 0 0 0 2 7 2 1 4 0 0 0 2 0 0 1 2 0 0 0 1 0 0 0 0 0 0 0 0 0 0 0 1 0 0
34 36 35 35 44 33 57 0 1 0 0 0 0 0 0 0 0 0 0 0 0 0 0 0 1 0 0 0 0 5 2 3 0 1 0 0 0 0 0 0 0 0 0 0 2 0 0
30 31 30 32 25 9 6 0 0 0 0 0 0 0 0 0 0 1 0 0 0 0 0 0 0 0 3 4 0 5 2 0 0 0 0 0 0 0 0 0 0 0 0 1 1 0 0
20 28 24 15 14 5 8 2 0 0 0 0 0 0 0 0 0 0 0 0 0 0 2 0 0 0 3 1 0 0 0 0 0 0 0 0 0 0 0 0 0 0 0 0 0 0 0
18 26 6 11 4 5 6 4 3 0 0 0 0 0 0 0 0 0 0 0 0 1 1 0 0 0 0 0 4 2 1 0 0 0 1 0 0 0 0 0 0 0 1 0 0 0 0
27 13 8 14 0 0 0 0 1 0 0 0 0 0 0 0 0 0 0 0 0 0 0 0 1 0 0 0 2 0 0 0 1 0 0 0 0 0 0 0 0 0 0 0 0 0 0
24 8 17 8 0 0 0 0 0 0 0 0 0 0 0 0 0 0 0 2 0 0 0 0 0 0 0 0 0 0 0 0 0 0 0 0 0 0 0 0 0 0 0 0 0 0 0
14 6 8 3 0 0 0 0 0 0 0 0 0 0 0 0 0 0 0 0 0 0 0 0 0 0 0 0 0 0 0 0 0 0 0 0 2 0 0 0 0 0 0 0 0 0 0
4 8 1 0 0 0 0 0 0 0 0 0 0 0 0 0 0 0 0 0 0 0 0 0 0 0 0 0 0 0 0 0 0 0 0 0 1 0 0 0 0 0 0 0 0 0 0
13 17 2 0 0 0 0 0 0 0 0 0 0 0 0 0 0 0 0 0 0 0 0 0 0 0 0 0 0 0 0 0 0 0 0 0 0 0 0 0 0 0 0 0 0 0 0
13 0 0 0 0 0 0 0 0 0 0 0 0 0 0 0 0 0 0 0 0 0 0 0 0 0 0 0 0 0 0 0 0 0 0 0 0 0 0 0 0 0 0 0 0 0 0
2 5 0 0 0 0 0 0 0 0 0 0 0 0 0 0 0 0 0 0 0 0 0 0 0 0 0 0 0 0 0 0 0 0 0 0 0 0 0 0 0 0 0 0 0 0 0
2 4 3 0 0 0 0 0 0 0 0 0 0 0 0 0 0 0 0 0 0 0 0 0 0 0 0 0 0 0 0 0 0 0 0 0 0 0 0 0 0 0 0 0 0 0 0
2 0 13 1 0 0 0 0 0 0 0 0 0 0 0 0 0 0 0 0 0 0 0 0 0 0 0 0 0 0 0 0 0 0 0 0 0 0 0 0 0 0 0 0 0 0 0
0 3 3 6 1 0 0 0 0 0 0 0 0 0 0 0 0 0 0 0 0 0 0 0 0 0 0 0 0 0 0 0 0 0 0 0 0 0 0 0 0 0 0 0 0 0 0
0 1 1 4 2 0 0 0 0 0 0 0 0 0 0 0 0 0 0 0 0 0 0 0 0 0 0 0 0 0 0 0 0 0 0 0 0 0 0 0 0 0 0 0 0 0 0
0 0 2 0 0 0 0 0 0 0 0 0 0 0 0 0 0 0 0 0 0 0 0 0 0 0 0 0 0 0 0 0 0 0 0 0 0 0 0 0 0 0 0 0 0 0 0
0 0 0 0 0 0 0 0 0 0 0 0 0 0 0 0 0 0 0 0 0 0 0 0 0 0 0 0 0 0 0 0 0 0 0 0 0 0 0 0 0 0 0 0 0 0 0
0 0 0 0 0 0 0 0 0 0 0 0 0 0 0 0 0 0 0 0 0 0 0 0 0 0 0 0 0 0 0 0 0 0 0 0 0 0 0 0 0 0 0 0 0 0 0
0 0 0 0 0 0 0 0 0 0 0 0 0 0 0 0 0 0 0 0 0 0 0 0 0 0 0 0 0 0 0 0 0 0 0 0 0 0 0 0 0 0 0 0 0 0 0

GFSGBSN_con_mlcape_099.txt.gz
CAPE
11 25 22 31 27 23 19 24 58 0 1 18 41 69 48 16 20 12 0 1 6 3 0 0 92 0 0 0 0 0 0 0 0 0 0 0 0 0 0 0 0 0 0 0 0 0 0
22 20 22 40 19 11 23 43 63 37 80 91 78 44 36 34 22 3 6 10 7 4 5 1 4 0 0 0 0 0 0 0 0 0 0 0 0 0 0 0 0 0 0 0 0 0 0
26 22 36 27 37 23 42 40 49 87 143 127 93 85 73 40 16 13 8 32 43 47 19 1 3 0 0 0 0 0 0 0 0 0 0 0 0 0 0 0 0 0 0 0 0 0 0
16 21 19 15 25 17 40 25 22 41 129 144 106 91 82 62 26 0 3 26 33 19 6 13 0 0 0 0 0 0 0 0 0 0 0 0 0 0 0 0 0 0 0 0 0 0 0
7 18 11 2 20 43 69 58 52 78 135 137 139 146 91 43 8 6 2 9 111 35 25 21 0 0 0 0 0 0 0 0 0 0 0 0 0 0 0 0 0 0 0 0 0 0 0
17 25 38 45 29 30 46 72 106 130 151 140 35 111 75 10 1 13 1 166 99 90 29 5 0 0 0 0 0 0 0 0 0 0 0 0 0 0 0 0 0 0 0 0 0 0 0
19 29 46 71 107 40 4 89 126 98 109 66 86 139 53 100 4 30 0 0 0 6 10 1 0 0 0 0 0 0 0 0 0 0 0 0 0 0 0 0 0 0 0 0 0 0 0
29 40 47 63 84 115 10 45 80 67 55 82 81 79 59 33 26 0 0 0 1 2 1 0 0 0 0 0 0 0 0 0 0 0 0 0 0 0 0 0 0 0 0 0 0 0 0
35 45 62 49 52 78 33 0 69 74 65 57 46 7 4 5 13 1 0 1 0 0 0 4 3 1 0 0 0 0 0 0 0 0 0 0 0 0 0 0 0 0 0 0 0 0 0
37 36 22 12 19 37 24 0 4 11 3 0 0 0 7 29 0 1 0 1 0 0 0 0 0 0 0 0 0 0 0 0 0 0 0 0 0 0 0 0 0 0 0 0 0 1 1
21 6 11 13 4 2 0 16 15 19 7 0 0 0 6 0 0 0 0 0 0 0 0 0 0 0 0 0 0 1 2 3 0 0 0 0 0 0 0 0 0 0 0 0 0 0 1
19 15 21 13 13 13 18 15 7 10 2 0 0 0 0 0 0 3 0 0 0 0 0 1 0 0 0 0 0 3 0 1 0 0 0 0 0 0 0 0 0 0 0 0 2 0 0
19 27 12 7 3 4 4 7 1 0 0 0 0 0 0 0 0 0 0 0 0 0 0 0 0 0 1 1 0 2 0 0 0 0 0 0 0 0 0 0 0 0 1 0 0 0 0
16 26 5 5 1 0 0 0 0 0 0 0 0 0 0 0 0 0 0 0 0 1 3 0 0 0 0 3 0 1 0 0 0 0 0 0 0 0 0 0 0 0 1 0 0 0 0
9 20 10 1 0 0 0 0 0 0 0 0 0 0 0 0 0 0 0 0 0 0 0 0 3 0 0 1 0 0 0 0 0 0 0 0 0 0 0 0 0 0 0 3 0 0 0
8 7 13 2 1 0 0 0 0 0 0 0 0 0 0 0 0 0 0 0 0 0 0 0 0 0 0 1 0 2 0 0 0 0 0 0 0 0 0 0 0 0 0 0 0 0 0
11 6 4 6 3 0 0 0 0 0 0 0 0 0 0 0 0 0 0 0 0 0 0 0 0 0 0 0 0 0 0 0 0 0 0 0 0 0 0 0 0 0 0 0 0 0 0
1 1 0 0 0 0 0 0 0 0 0 0 0 0 0 0 0 0 0 0 0 0 0 0 0 0 0 0 0 0 0 0 0 0 0 0 0 0 0 0 0 0 0 0 0 0 0
3 0 0 0 0 0 0 0 0 0 0 0 0 0 0 0 0 0 0 0 0 0 0 0 0 0 0 0 0 0 0 0 0 0 0 0 0 0 0 0 0 0 0 0 0 0 0
0 1 0 0 0 0 0 0 0 0 0 0 0 0 0 0 0 0 0 0 0 0 0 0 0 0 0 0 0 0 0 0 0 0 0 0 0 0 0 0 0 0 0 0 0 0 0
1 1 0 0 0 0 0 0 0 0 0 0 0 0 0 0 0 0 0 0 0 0 0 0 0 0 0 0 0 0 0 0 0 0 0 0 0 0 0 0 0 0 0 0 0 0 0
1 3 3 0 0 0 0 0 0 0 0 0 0 0 0 0 0 0 0 0 0 0 0 0 0 0 0 0 0 0 0 0 0 0 0 0 0 0 0 0 0 0 0 0 0 0 0
0 2 2 5 0 0 0 0 0 0 0 0 0 0 0 0 0 0 0 0 0 0 0 0 0 0 0 0 0 0 0 0 0 0 0 0 0 0 0 0 0 0 0 0 0 0 0
0 0 1 3 1 0 0 0 0 0 0 0 0 0 0 0 0 0 0 0 0 0 0 0 0 0 0 0 0 0 0 0 0 0 0 0 0 0 0 0 0 0 0 0 0 0 0
0 0 0 1 1 0 0 0 0 0 0 0 0 0 0 0 0 0 0 0 0 0 0 0 0 0 0 0 0 0 0 0 0 0 0 0 0 0 0 0 0 0 0 0 0 0 0
0 0 0 0 0 0 0 0 0 0 0 0 0 0 0 0 0 0 0 0 0 0 0 0 0 0 0 0 0 0 0 0 0 0 0 0 0 0 0 0 0 0 0 0 0 0 0
0 0 0 0 0 0 0 0 0 0 0 0 0 0 0 0 0 0 0 0 0 0 0 0 0 0 0 0 0 0 0 0 0 0 0 0 0 0 0 0 0 0 0 0 0 0 0
0 0 0 0 0 0 0 0 0 0 0 0 0 0 0 0 0 0 0 0 0 0 0 0 0 0 0 0 0 0 0 0 0 0 0 0 0 0 0 0 0 0 0 0 0 0 0
4 0 0 0 0 0 0 0 0 0 0 0 0 0 0 0 0 0 0 0 0 0 0 0 0 0 0 0 0 0 0 0 0 0 0 0 0 0 0 0 0 0 0 0 0 0 0

GFSGBSN_con_mlcape_102.txt.gz
CAPE
34 30 37 46 17 9 8 8 30 78 84 110 154 174 22 8 20 12 3 0 0 0 0 0 21 0 0 0 0 0 0 0 0 0 0 0 0 0 0 0 0 0 0 0 0 0 0
13 28 26 15 15 9 10 21 42 24 136 153 208 156 25 9 16 25 6 0 5 0 0 0 10 0 0 0 0 0 0 0 0 0 0 0 0 0 0 0 0 0 0 0 0 0 0
15 29 46 26 10 36 31 11 25 46 82 147 156 156 56 36 33 27 0 0 7 35 4 6 0 0 0 1 0 0 0 0 0 0 0 0 0 0 0 0 0 0 0 0 0 0 0
21 35 59 65 60 31 12 35 49 53 85 151 148 137 98 33 28 0 1 4 0 45 6 3 6 0 0 0 0 0 0 0 0 0 0 0 0 0 0 0 0 0 0 0 0 0 0
27 51 67 103 180 166 31 46 72 78 89 110 93 156 34 33 0 0 1 34 10 38 15 20 0 0 2 0 0 0 0 0 0 0 0 0 0 0 0 0 0 0 0 0 0 0 0
47 56 67 55 92 19 0 36 70 91 101 61 162 182 146 59 0 1 30 211 195 100 44 0 0 0 0 0 0 0 0 0 0 0 0 0 0 0 0 0 0 0 0 0 0 0 0
41 19 17 18 30 0 9 5 88 113 122 106 118 91 84 29 6 3 0 46 30 3 0 0 0 0 0 0 0 0 0 0 0 0 0 0 0 0 0 0 0 0 0 0 0 0 0
18 7 13 12 22 17 0 29 67 88 70 66 44 1 47 2 6 0 0 0 1 3 1 7 0 0 0 0 0 0 0 0 0 0 0 0 0 0 0 0 0 0 0 0 0 0 0
12 30 26 13 33 2 0 48 32 0 0 6 1 18 17 8 0 0 0 0 0 0 0 2 2 1 0 0 0 0 0 0 0 0 0 0 0 0 0 0 0 0 0 0 0 0 0
14 24 29 20 6 6 8 0 3 11 0 0 8 15 21 9 0 0 0 1 0 0 0 0 2 0 0 0 0 0 0 0 0 0 0 0 0 0 0 0 0 0 0 0 0 0 0
8 5 13 9 10 6 8 7 1 0 1 0 0 3 2 0 2 0 0 0 0 0 0 0 0 0 0 0 0 0 0 4 0 0 0 0 0 0 0 0 0 0 0 0 1 1 2
10 3 7 4 1 2 1 4 0 0 0 0 0 0 0 0 0 1 0 0 0 0 0 0 0 1 0 0 0 4 1 0 0 0 0 0 0 0 0 0 0 0 0 0 1 4 0
9 6 10 2 0 0 0 0 0 0 0 0 0 0 0 0 0 0 0 0 0 0 0 0 0 0 0 0 0 3 0 0 0 0 0 0 0 0 0 0 0 0 0 0 0 0 0
0 11 14 22 4 0 0 0 0 0 0 0 0 0 0 0 0 0 0 0 0 0 1 0 0 0 0 0 0 0 0 0 0 0 0 0 0 0 0 0 0 0 0 1 0 0 0
0 1 1 0 11 13 12 1 0 0 0 0 0 0 0 0 0 0 0 0 0 0 0 0 0 0 0 1 0 0 0 0 0 0 0 0 0 0 0 0 0 0 0 2 2 0 0
5 0 0 0 0 0 0 0 5 2 0 0 0 0 0 0 0 0 0 0 0 0 0 0 0 0 0 0 0 0 0 0 0 0 0 0 0 0 0 0 0 0 0 0 0 0 0
6 1 0 0 0 0 0 0 0 0 0 0 0 0 0 0 0 0 0 0 0 0 0 0 0 0 0 0 0 0 0 0 0 0 0 0 0 0 0 0 0 0 0 0 0 0 0
3 3 1 0 0 0 0 0 0 0 0 0 0 0 0 0 0 0 0 0 0 0 0 0 0 0 0 0 0 0 0 0 0 0 0 0 0 0 0 0 0 0 0 0 0 0 0
0 3 2 0 0 0 0 0 0 0 0 0 0 0 0 0 0 0 0 0 0 0 0 0 0 0 0 0 0 0 0 0 0 0 0 0 0 0 0 0 0 0 0 0 0 0 0
0 0 3 0 0 0 0 0 0 0 0 0 0 0 0 0 0 0 0 0 0 0 0 0 0 0 0 0 0 0 0 0 0 0 0 0 0 0 0 0 0 0 0 0 0 0 0
0 0 0 1 1 0 0 0 0 0 0 0 0 0 0 0 0 0 0 0 0 0 0 0 0 0 0 0 0 0 0 0 0 0 0 0 0 0 0 0 0 0 0 0 0 0 0
0 0 0 3 0 0 0 0 0 0 0 0 0 0 0 0 0 0 0 0 0 0 0 0 0 0 0 0 0 0 0 0 0 0 0 0 0 0 0 0 0 0 0 0 0 0 0
0 0 0 0 2 0 0 0 0 0 0 0 0 0 0 0 0 0 0 0 0 0 0 0 0 0 0 0 0 0 0 0 0 0 0 0 0 0 0 0 0 0 0 0 0 0 0
0 0 0 1 1 1 0 0 0 0 0 0 0 0 0 0 0 0 0 0 0 0 0 0 0 0 0 0 0 0 0 0 0 0 0 0 0 0 0 0 0 0 0 0 0 0 0
0 0 0 0 1 0 0 0 0 0 0 0 0 0 0 0 0 0 0 0 0 0 0 0 0 0 0 0 0 0 0 0 0 0 0 0 0 0 0 0 0 0 0 0 0 0 0
2 0 0 0 0 0 0 0 0 0 0 0 0 0 0 0 0 0 0 0 0 0 0 0 0 0 0 0 0 0 0 0 0 0 0 0 0 0 0 0 0 0 0 0 0 0 0
10 0 0 0 0 0 0 0 0 0 0 0 0 0 0 0 0 0 0 0 0 0 0 0 0 0 0 0 0 0 0 0 0 0 0 0 0 0 0 0 0 0 0 0 0 0 0
3 5 0 0 0 0 0 0 0 0 0 0 0 0 0 0 0 0 0 0 0 0 0 0 0 0 0 0 0 0 0 0 0 0 0 0 0 0 0 0 0 0 0 0 0 0 0
0 3 0 0 0 0 0 0 0 0 0 0 0 0 0 0 0 0 0 0 0 0 0 0 0 0 0 0 0 0 0 0 0 0 0 0 0 0 0 0 0 0 0 0 0 0 0

GFSGBSN_con_mlcape_105.txt.gz
CAPE
17 14 22 24 14 13 5 23 36 53 75 107 82 105 32 4 0 35 5 0 0 1 0 3 17 0 0 0 3 0 0 0 0 0 0 0 0 0 0 0 0 0 0 0 0 0 0
25 23 38 44 75 89 33 52 70 45 57 112 94 102 58 1 0 32 22 0 9 22 0 26 4 1 0 0 0 0 0 0 0 0 0 0 0 0 0 0 0 0 0 0 0 0 0
42 53 37 62 137 270 15 34 67 55 108 146 123 122 10 6 1 33 13 0 9 19 11 62 1 0 0 0 0 0 0 0 0 0 0 0 0 0 0 0 0 0 0 0 0 0 0
17 7 18 10 0 1 0 8 27 112 121 116 103 136 29 10 18 0 0 0 0 16 5 16 0 0 2 0 0 0 0 0 0 0 0 0 0 0 0 0 0 0 0 0 0 0 0
14 9 25 6 2 0 12 35 102 161 139 143 163 97 85 33 4 0 1 45 46 36 66 2 0 0 1 0 0 0 0 0 0 0 0 0 0 0 0 0 0 0 0 0 0 0 0
16 12 26 9 2 5 17 80 124 106 121 157 154 164 34 42 10 41 98 134 104 63 14 0 0 0 0 0 0 0 0 0 0 0 0 0 0 0 0 0 0 0 0 0 0 0 0
12 18 32 16 6 5 7 5 40 31 16 4 9 55 59 13 8 31 17 29 30 0 5 6 0 0 0 0 0 0 0 0 0 0 0 0 0 0 0 0 0 0 0 0 0 0 0
8 31 7 11 6 20 5 4 6 6 1 0 19 26 2 0 1 10 7 0 0 0 2 1 0 0 0 0 0 0 0 0 0 0 0 0 0 0 0 0 0 0 0 0 0 0 0
5 25 13 6 11 8 6 3 0 0 0 2 20 1 4 1 0 0 0 2 2 0 0 1 3 1 0 0 0 0 0 0 0 0 0 0 0 0 0 0 0 0 0 0 0 0 0
0 8 10 5 2 5 3 1 0 0 1 1 7 0 0 0 0 0 0 0 0 0 0 0 1 0 0 0 0 0 0 0 0 0 0 0 0 0 0 0 0 0 0 0 0 0 0
3 0 11 11 5 1 0 0 0 0 0 0 0 6 5 0 0 0 0 0 0 0 0 1 0 0 0 0 0 0 0 0 0 0 0 0 0 0 0 0 0 0 0 0 0 1 0
13 9 0 3 5 3 0 0 1 1 0 0 0 0 0 0 0 0 0 0 0 0 0 0 0 0 0 0 0 0 0 0 0 0 0 0 0 0 0 0 0 0 0 0 1 0 0
9 3 11 4 9 3 1 0 0 0 0 0 0 0 0 0 0 0 0 0 0 0 0 0 0 0 0 0 0 0 0 0 0 0 0 0 0 0 0 0 0 0 0 0 0 0 0
4 2 0 2 0 0 0 1 1 0 0 0 0 0 0 0 0 0 0 0 0 0 1 0 0 0 0 0 0 0 0 0 0 0 0 0 0 0 0 0 0 0 0 0 0 0 0
0 4 3 0 4 1 0 1 0 0 0 0 0 0 0 0 0 0 0 0 0 0 0 0 0 0 0 0 0 0 0 0 0 0 0 0 0 0 0 0 0 0 0 1 0 0 0
4 0 1 4 1 1 0 0 1 0 0 0 0 0 0 0 0 0 0 0 0 0 0 0 0 0 0 0 0 0 0 0 0 0 0 0 0 0 0 0 0 0 0 0 0 0 0
2 4 1 0 0 0 0 0 0 0 0 0 0 0 0 0 0 0 0 0 0 0 0 0 0 0 0 0 0 0 0 0 0 0 0 0 0 0 0 0 0 0 0 0 0 0 0
2 0 4 2 0 0 0 0 0 0 0 0 0 0 0 0 0 0 0 0 0 0 0 0 0 0 0 0 0 0 0 0 0 0 0 0 1 0 0 0 0 0 0 0 0 0 0
0 3 6 3 1 0 0 0 0 0 0 0 0 0 0 0 0 0 0 0 0 0 0 0 0 0 0 0 0 0 0 0 0 0 0 0 0 0 0 0 0 0 0 0 0 0 0
0 0 3 3 1 0 0 0 0 0 0 0 0 0 0 0 0 0 0 0 0 0 0 0 0 0 0 0 0 0 0 0 0 0 0 0 0 0 0 0 0 0 0 0 0 0 0
0 0 0 2 1 2 0 0 0 0 0 0 0 0 0 0 0 0 0 0 0 0 0 0 0 0 0 0 0 0 0 0 0 0 0 0 0 0 0 0 0 0 0 0 0 0 0
0 0 0 0 1 1 0 0 0 0 0 0 0 0 0 0 0 0 0 0 0 0 0 0 0 0 0 0 0 0 0 0 0 0 0 0 0 0 0 0 0 0 0 0 0 0 0
0 0 0 0 0 0 0 0 0 0 0 0 0 0 0 0 0 0 0 0 0 0 0 0 0 0 0 0 0 0 0 0 0 0 0 0 0 0 0 0 0 0 0 0 0 0 0
1 0 0 0 0 0 0 0 0 0 0 0 0 0 0 0 0 0 0 0 0 0 0 0 0 0 0 0 0 0 0 0 0 0 0 0 0 0 0 0 0 0 0 0 0 0 0
5 2 0 0 0 0 0 0 0 0 0 0 0 0 0 0 0 0 0 0 0 0 0 0 0 0 0 0 0 0 0 0 0 0 0 0 0 0 0 0 0 0 0 0 0 0 0
0 4 1 0 0 0 0 0 0 0 0 0 0 0 0 0 0 0 0 0 0 0 0 0 0 0 0 0 0 0 0 0 0 0 0 0 0 0 0 0 0 0 0 0 0 0 0
0 0 1 0 0 0 0 0 0 0 0 0 0 0 0 0 0 0 0 0 0 0 0 0 0 0 0 0 0 0 0 0 0 0 0 0 0 0 0 0 0 0 0 0 0 0 0
0 0 0 0 0 0 0 0 0 0 0 0 0 0 0 0 0 0 0 0 0 0 0 0 0 0 0 0 0 0 0 0 0 0 0 0 0 0 0 0 0 0 0 0 0 0 0
0 0 0 0 0 0 0 0 0 0 0 0 0 0 0 0 0 0 0 0 0 0 0 0 0 0 0 0 0 0 0 0 0 0 0 0 0 0 0 0 0 0 0 0 0 0 0

GFSGBSN_con_mlcape_108.txt.gz
CAPE
33 22 12 16 22 171 33 27 56 62 59 41 42 17 9 3 15 21 18 13 0 0 0 54 54 0 0 0 2 0 0 0 0 0 0 0 0 0 0 0 0 0 0 0 0 0 0
21 14 8 6 14 4 0 22 39 101 124 81 81 45 62 15 0 6 26 4 14 0 0 82 32 1 0 0 2 0 0 0 0 0 0 0 0 0 0 0 0 0 0 0 0 0 0
20 18 7 6 9 18 89 98 101 103 80 68 76 102 74 24 0 18 20 0 7 1 61 84 1 7 0 0 0 0 0 0 0 0 0 0 0 0 0 0 0 0 0 0 0 0 0
19 11 10 6 12 29 75 117 92 93 133 118 89 95 49 55 9 35 0 0 1 18 15 67 25 2 0 0 0 0 0 0 0 0 0 0 0 0 0 0 0 0 0 0 0 0 0
20 32 15 12 13 8 3 0 12 93 120 117 92 8 18 49 24 6 0 0 5 4 29 25 0 3 3 8 0 0 0 0 0 0 0 0 0 0 0 0 0 0 0 0 0 0 0
19 25 19 14 9 8 3 0 0 0 2 3 17 28 27 20 1 135 0 30 24 39 0 0 0 0 2 0 0 0 0 0 0 0 0 0 0 0 0 0 0 0 0 0 0 0 0
10 35 29 20 25 9 9 5 3 0 0 1 25 29 19 31 6 28 47 15 4 0 0 1 1 0 0 0 0 0 0 0 0 0 0 0 0 0 0 0 0 0 0 0 0 0 0
2 11 24 23 25 7 20 13 7 6 17 0 0 0 4 30 24 30 1 1 2 2 3 1 0 0 0 0 0 0 0 0 0 0 0 0 0 0 0 0 0 0 0 0 0 0 0
1 0 5 6 9 12 13 15 23 27 29 22 2 0 0 5 0 0 0 0 4 0 0 2 0 0 0 0 0 0 0 0 0 0 0 0 0 0 0 0 0 0 0 0 0 0 0
12 1 0 0 2 12 18 18 8 7 16 16 7 0 0 0 0 0 0 0 0 0 0 0 1 0 0 0 0 0 0 0 0 0 0 0 0 0 0 0 0 0 0 0 0 0 0
16 12 13 5 0 0 1 10 9 5 2 10 3 0 0 0 0 1 0 0 0 0 0 0 0 0 0 0 0 0 0 0 0 0 0 0 0 0 0 0 0 0 0 0 1 2 2
7 7 2 5 7 6 8 2 4 0 0 0 0 0 0 0 0 0 0 0 0 0 0 0 0 0 0 0 0 0 0 0 0 0 0 0 0 0 0 0 0 0 0 2 1 0 0
2 7 9 4 5 4 2 1 0 1 0 0 0 0 0 0 0 0 0 0 0 1 0 0 0 0 0 0 0 0 0 0 0 0 0 0 0 0 0 0 0 0 1 0 0 0 0
7 4 7 9 6 3 4 2 1 0 0 0 0 0 0 0 0 0 0 0 0 2 2 0 0 0 1 0 0 0 0 0 0 0 0 0 0 0 0 0 0 0 0 0 0 0 0
1 4 3 5 4 2 2 1 1 0 0 0 0 0 0 0 0 0 0 0 1 0 0 0 0 0 0 0 0 0 0 0 0 0 0 0 0 0 0 0 0 0 0 1 0 2 1
0 3 2 4 3 1 0 1 0 0 0 0 0 0 0 0 0 0 0 0 0 0 0 0 0 0 0 0 0 0 0 0 0 0 0 0 0 0 0 0 0 0 0 0 3 0 0
1 0 3 1 1 0 0 0 0 0 0 0 0 0 0 0 0 0 0 0 0 0 0 0 0 0 0 0 0 0 0 0 0 0 0 0 0 0 0 0 0 0 1 0 0 0 0
0 2 2 0 2 0 0 0 0 0 0 0 0 0 0 0 0 0 0 0 0 0 0 0 0 0 0 0 0 0 0 0 0 0 0 0 0 0 0 0 0 0 0 0 0 0 0
0 0 2 2 1 0 0 0 0 0 0 0 0 0 0 0 0 0 0 0 0 0 0 0 0 0 0 0 0 0 0 0 0 0 0 0 0 0 0 0 0 0 0 0 0 0 0
0 0 0 1 1 0 0 0 0 0 0 0 0 0 0 0 0 0 0 0 0 0 0 0 0 0 0 0 0 0 0 0 0 0 0 0 0 0 0 0 0 0 0 0 0 0 0
0 0 0 0 0 1 0 0 0 0 0 0 0 0 0 0 0 0 0 0 0 0 0 0 0 0 0 0 0 0 0 0 0 0 0 0 0 0 0 0 0 0 0 0 0 0 0
0 0 0 0 0 0 0 0 0 0 0 0 0 0 0 0 0 0 0 0 0 0 0 0 0 0 0 0 0 0 0 0 0 0 0 0 0 0 0 0 0 0 0 0 0 0 0
0 0 0 0 0 0 0 0 0 0 0 0 0 0 0 0 0 0 0 0 0 0 0 0 0 0 0 0 0 0 0 0 0 0 0 0 0 0 0 0 0 0 0 0 0 0 0
0 2 0 0 0 0 0 0 0 0 0 0 0 0 0 0 0 0 0 0 0 0 0 0 0 0 0 0 0 0 0 0 0 0 0 0 0 0 0 0 0 0 0 0 0 0 0
0 0 1 0 0 0 0 0 0 0 0 0 0 0 0 0 0 0 0 0 0 0 0 0 0 0 0 0 0 0 0 0 0 0 0 0 0 1 0 0 0 0 0 0 0 0 0
0 0 0 0 0 0 0 0 0 0 0 0 0 0 0 0 0 0 0 0 0 0 0 0 0 0 0 0 0 0 0 0 0 0 0 0 0 0 0 0 0 0 0 0 0 0 0
0 0 0 0 0 0 0 0 0 0 0 0 0 0 0 0 0 0 0 0 0 0 0 0 0 0 0 0 0 0 0 0 0 0 0 0 1 0 0 0 0 0 0 0 0 0 0
0 0 0 0 0 0 0 0 0 0 0 0 0 0 0 0 0 0 0 0 0 0 0 0 0 0 0 0 0 0 0 0 0 0 0 0 0 0 0 0 0 0 0 0 0 0 0
1 1 0 0 0 0 0 0 0 0 0 0 0 0 0 0 0 0 0 0 0 0 0 0 0 0 0 0 0 0 0 0 0 0 0 0 0 0 0 0 0 0 0 0 0 0 0

GFSGBSN_con_mlcape_111.txt.gz
CAPE
5 3 10 10 7 7 5 2 68 86 69 26 0 2 8 46 36 5 0 0 0 0 0 79 1 0 0 2 1 0 0 0 0 0 0 0 0 0 0 0 0 0 0 0 0 0 0
7 4 14 14 16 43 80 97 115 101 75 47 15 0 30 15 0 24 0 0 0 0 0 49 1 0 1 0 0 0 0 0 0 0 0 0 0 0 0 0 0 0 0 0 0 0 0
14 4 29 13 21 16 33 70 110 83 38 24 38 30 56 0 24 7 9 0 0 0 0 24 22 0 0 0 0 0 0 0 0 0 0 0 0 0 0 0 0 0 0 0 0 0 0
8 23 37 13 18 14 17 26 49 61 108 92 51 47 78 38 0 0 0 0 4 26 100 33 0 0 0 0 0 0 0 0 0 0 0 0 0 0 0 0 0 0 0 0 0 0 0
15 27 39 20 20 29 10 20 19 8 14 29 22 33 28 27 3 0 0 0 20 26 59 15 0 0 0 0 0 0 0 0 0 0 0 0 0 0 0 0 0 0 0 0 0 0 0
12 20 28 36 33 23 21 10 10 10 4 21 5 3 1 0 0 0 0 23 36 15 1 0 0 0 0 0 0 0 0 0 0 0 0 0 0 0 0 0 0 0 0 0 0 0 0
6 2 9 9 24 20 25 18 23 30 2 2 0 0 12 47 101 14 19 5 0 0 8 5 1 0 1 0 0 0 0 0 0 0 0 0 0 0 0 0 0 0 0 0 0 0 0
11 3 0 2 4 13 23 28 29 23 33 0 0 14 12 36 4 2 0 1 3 0 2 3 0 1 2 0 0 0 0 0 0 0 0 0 0 0 0 0 0 0 0 0 0 0 0
27 24 10 6 7 5 7 20 28 27 14 2 0 0 5 12 12 3 0 2 11 3 1 6 2 0 0 0 0 0 0 0 0 0 0 0 0 0 0 0 0 0 0 0 0 0 0
4 6 10 5 20 20 18 22 20 22 21 1 0 0 0 0 3 1 0 0 2 2 0 0 1 0 0 0 0 0 0 0 0 0 0 0 0 0 0 0 0 0 0 0 0 0 0
3 6 7 7 4 6 8 8 18 27 3 0 0 0 0 0 0 3 0 1 0 2 0 0 1 0 0 0 0 0 0 0 0 0 0 0 0 0 0 0 0 0 0 0 1 0 0
2 3 2 4 2 3 2 8 2 0 0 0 0 0 0 0 0 0 0 0 0 0 0 2 2 0 0 0 0 0 0 0 0 0 0 0 0 0 0 0 0 0 0 0 2 0 0
4 4 4 3 3 7 7 1 4 0 0 0 0 0 0 0 0 0 0 0 0 0 0 0 1 0 0 0 0 0 0 0 0 0 0 0 0 0 0 0 0 0 0 0 0 0 0
5 2 3 4 1 0 4 4 1 2 0 0 0 0 0 0 0 0 0 0 0 0 1 0 0 0 0 0 0 0 0 0 0 0 0 0 0 0 0 0 0 0 0 0 0 0 0
2 4 5 1 5 0 0 1 1 2 0 0 0 0 0 0 0 0 0 0 2 0 0 0 0 0 0 0 0 0 0 0 0 0 0 0 0 0 0 0 0 2 0 1 0 2 0
1 5 6 1 3 2 1 0 0 0 0 0 0 0 0 0 0 0 0 0 0 0 0 0 0 0 0 0 0 0 0 0 0 0 0 0 0 0 0 0 0 1 0 0 1 0 0
0 0 3 3 2 0 0 0 0 0 0 0 0 0 0 0 0 0 0 0 0 0 0 0 0 0 0 0 0 0 0 0 0 0 0 0 0 0 0 0 0 0 0 0 0 0 0
1 0 0 1 0 1 0 0 0 0 0 0 0 0 0 0 0 0 0 0 0 0 0 0 0 0 0 0 0 0 0 0 0 0 0 0 0 0 0 0 0 0 0 0 0 0 0
0 1 0 0 0 0 0 0 0 0 0 0 0 0 0 0 0 0 0 0 0 0 0 0 0 0 0 0 0 0 0 0 0 0 0 0 0 0 0 0 0 0 0 0 0 0 0
0 0 0 0 0 0 0 0 0 0 0 0 0 0 0 0 0 0 0 0 0 0 0 0 0 0 0 0 0 0 0 0 0 0 0 0 0 0 0 0 0 0 0 0 1 0 0
0 0 0 0 0 0 0 0 0 0 0 0 0 0 0 0 0 0 0 0 0 0 0 0 0 0 0 0 0 0 0 0 0 0 0 0 0 0 0 0 0 0 0 0 0 0 0
0 1 0 0 0 0 0 0 0 0 0 0 0 0 0 0 0 0 0 0 0 0 0 0 0 0 0 0 0 0 0 0 0 0 0 1 0 0 0 0 0 0 0 0 0 0 0
0 0 0 0 0 0 0 0 0 0 0 0 0 0 0 0 0 0 0 0 0 0 0 0 0 0 0 0 0 0 0 0 0 0 0 0 0 0 0 0 0 0 0 0 0 0 0
0 0 0 0 0 0 0 0 0 0 0 0 0 0 0 0 0 0 0 0 0 0 0 0 0 0 0 0 0 0 0 0 0 0 0 0 1 2 0 0 0 0 0 0 0 0 0
0 0 0 0 0 0 0 0 0 0 0 0 0 0 0 0 0 0 0 0 0 0 0 0 0 0 0 0 0 0 0 0 0 0 0 0 0 0 0 0 0 0 0 0 0 0 0
0 0 0 0 0 0 0 0 0 0 0 0 0 0 0 0 0 0 0 0 0 0 0 0 0 0 0 0 0 0 0 0 0 0 0 0 0 0 0 0 0 0 0 0 0 0 0
0 0 0 0 0 0 0 0 0 0 0 0 0 0 0 0 0 0 0 0 0 0 0 0 0 0 0 0 0 0 0 0 0 0 0 0 0 0 0 1 0 0 0 0 0 0 0
1 0 0 0 0 0 0 0 0 0 0 0 0 0 0 0 0 0 0 0 0 0 0 0 0 0 0 0 0 0 0 0 0 0 0 0 0 0 0 0 0 0 0 0 0 0 0
2 1 1 0 0 0 0 0 0 0 0 0 0 0 0 0 0 0 0 0 0 0 0 0 0 0 0 0 0 0 0 0 0 0 0 0 0 0 0 0 0 0 0 0 0 0 0

GFSGBSN_con_mlcape_114.txt.gz
CAPE
9 18 17 8 27 33 42 84 70 73 69 58 22 43 81 97 21 0 0 0 0 0 0 52 1 0 1 0 0 0 0 0 0 0 0 0 0 0 0 0 0 0 0 0 0 0 0
7 13 8 19 27 26 29 53 129 81 74 64 29 28 4 10 21 0 0 1 0 0 83 7 0 2 0 0 0 0 0 0 0 0 0 0 0 0 0 0 0 0 0 0 0 0 0
6 22 16 29 31 26 15 12 15 64 49 21 0 1 0 0 14 4 1 0 0 0 87 31 23 0 0 0 0 0 0 0 0 0 0 0 0 0 0 0 0 0 0 0 0 0 0
13 18 20 27 38 29 25 8 12 7 37 53 49 31 21 11 6 5 0 0 30 48 23 70 10 0 0 0 0 0 0 0 0 0 0 0 0 0 0 0 0 0 0 0 0 0 0
8 10 12 7 7 21 36 38 14 12 45 54 52 58 0 18 6 0 0 12 0 31 4 0 0 0 0 0 0 0 0 0 0 0 0 0 0 0 0 0 0 0 0 0 0 0 0
6 6 9 13 15 28 36 41 48 29 19 9 69 57 61 5 0 0 27 3 0 2 0 0 0 0 0 0 0 0 0 0 0 0 0 0 0 0 0 0 0 0 0 0 0 0 0
23 18 13 11 3 12 41 40 33 31 7 19 43 93 215 35 0 20 1 0 0 0 3 4 0 0 0 0 0 0 0 0 0 0 0 0 0 0 0 0 0 0 0 0 0 0 0
7 12 12 24 31 30 36 33 28 39 21 0 18 19 13 14 22 0 0 0 1 0 1 7 1 0 0 0 0 0 0 0 0 0 0 0 0 0 0 0 0 0 0 0 0 0 0
7 10 4 12 19 16 26 33 13 17 9 0 0 2 3 2 0 3 0 1 1 0 0 1 4 1 0 0 0 0 0 0 0 0 0 0 0 0 0 0 0 0 0 0 0 0 0
2 4 2 6 5 13 14 16 17 0 0 0 0 0 0 0 0 0 0 0 0 0 0 1 1 0 0 0 0 0 0 0 0 0 0 0 0 0 0 0 0 0 0 0 0 0 0
9 4 4 12 10 5 6 4 12 3 0 0 0 0 0 0 0 0 0 0 0 0 0 0 0 0 0 0 0 0 0 0 0 0 0 0 0 0 0 0 0 0 0 0 0 0 0
4 2 4 5 10 4 6 4 3 0 0 0 0 0 0 0 0 0 0 0 0 0 0 0 0 0 0 0 0 0 0 0 0 0 0 0 0 0 0 0 0 0 0 0 0 0 0
1 1 2 2 3 4 5 3 0 0 0 0 0 0 0 0 0 0 0 0 0 0 0 0 0 0 0 0 0 0 0 0 0 0 0 0 0 0 0 0 0 0 0 0 0 0 0
3 6 2 3 4 4 4 3 1 0 0 0 0 0 0 0 0 0 0 0 0 0 0 0 0 0 0 0 0 0 0 0 0 0 0 0 0 0 0 0 0 0 0 0 0 0 0
2 3 4 4 2 3 2 3 1 0 0 0 0 0 0 0 0 0 0 0 0 0 0 0 0 0 0 0 0 0 0 0 0 0 0 0 0 0 0 0 0 0 0 0 0 0 0
2 1 1 1 2 1 1 0 0 0 0 0 0 0 0 0 0 0 0 0 0 0 0 0 0 0 0 0 0 0 0 0 0 0 0 0 0 0 0 0 0 0 0 0 0 0 0
2 1 0 0 0 0 0 0 0 0 0 0 0 0 0 0 0 0 0 0 0 0 0 0 0 0 0 0 0 0 0 0 0 0 0 0 0 0 0 0 0 0 0 0 0 0 0
0 1 0 0 0 0 0 0 0 0 0 0 0 0 0 0 0 0 0 0 0 0 0 0 0 0 0 0 0 0 0 0 0 0 0 0 0 0 0 0 0 0 0 0 0 0 0
0 0 0 0 0 0 0 0 0 0 0 0 0 0 0 0 0 0 0 0 0 0 0 0 0 0 0 0 0 0 0 0 0 0 0 0 0 0 0 0 0 0 0 0 0 0 0
0 0 0 0 0 0 0 0 0 0 0 0 0 0 0 0 0 0 0 0 0 0 0 0 0 0 0 0 0 0 0 0 0 0 0 0 0 0 0 0 0 0 0 0 0 0 0
0 1 0 0 0 0 0 0 0 0 0 0 0 0 0 0 0 0 0 0 0 0 0 0 0 0 0 0 0 0 0 0 0 0 0 0 0 0 0 0 0 0 0 0 0 0 0
0 0 0 0 0 0 0 0 0 0 0 0 0 0 0 0 0 0 0 0 0 0 0 0 0 0 0 0 0 0 0 0 0 0 0 0 0 0 0 0 0 0 0 0 0 0 0
0 0 0 0 0 0 0 0 0 0 0 0 0 0 0 0 0 0 0 0 0 0 0 0 0 0 0 0 0 0 0 0 0 0 0 0 0 0 0 0 0 0 0 0 0 0 0
0 0 0 0 0 0 0 0 0 0 0 0 0 0 0 0 0 0 0 0 0 0 0 0 0 0 0 0 0 0 0 0 0 0 0 0 0 0 0 0 0 0 0 0 0 0 0
0 0 0 0 0 0 0 0 0 0 0 0 0 0 0 0 0 0 0 0 0 0 0 0 0 0 0 0 0 0 0 0 0 0 0 0 0 0 0 0 0 0 0 0 0 0 0
0 0 0 0 0 0 0 0 0 0 0 0 0 0 0 0 0 0 0 0 0 0 0 0 0 0 0 0 0 0 0 0 0 0 0 0 0 0 0 0 0 0 0 0 0 0 0
1 1 0 0 0 0 0 0 0 0 0 0 0 0 0 0 0 0 0 0 0 0 0 0 0 0 0 0 0 0 0 0 0 0 0 0 0 0 0 0 0 0 0 0 0 0 0
0 1 2 1 0 0 0 0 0 0 0 0 0 0 0 0 0 0 0 0 0 0 0 0 0 0 0 0 0 0 0 0 0 0 0 0 0 0 1 0 0 0 0 0 0 0 0
0 1 2 2 3 0 0 0 0 0 0 0 0 0 0 0 0 0 0 0 0 0 0 0 0 0 0 0 0 0 0 0 0 0 0 0 0 0 0 0 0 0 0 0 0 0 0

GFSGBSN_con_mlcape_117.txt.gz
CAPE
10 15 21 8 2 5 25 64 90 55 37 25 67 137 112 92 23 2 2 1 0 18 78 16 0 0 0 0 0 0 0 0 0 0 0 0 0 0 0 0 0 0 0 0 0 0 0
22 14 20 24 18 8 5 4 45 34 8 5 3 0 12 23 8 0 0 10 0 245 104 18 0 0 0 0 0 0 0 0 0 0 0 0 0 0 0 0 0 0 0 0 0 0 0
17 7 8 18 37 38 19 2 1 50 40 7 10 1 3 38 11 1 3 41 0 208 60 27 0 0 0 0 0 0 0 0 0 0 0 0 0 0 0 0 0 0 0 0 0 0 0
12 9 9 33 48 54 63 6 1 42 45 61 26 1 5 1 0 0 29 98 103 134 75 10 0 0 0 0 0 0 0 0 0 0 0 0 0 0 0 0 0 0 0 0 0 0 0
32 31 17 18 45 46 63 26 14 6 4 49 37 0 6 4 0 8 89 136 112 59 52 0 0 0 0 0 0 0 0 0 0 0 0 0 0 0 0 0 0 0 0 0 0 0 0
12 19 19 36 51 44 44 35 10 0 18 38 105 15 26 0 1 31 16 2 2 1 0 0 0 0 0 0 0 0 0 0 0 0 0 0 0 0 0 0 0 0 0 0 0 0 0
23 24 30 27 28 43 22 34 18 2 10 29 178 30 19 29 4 1 0 0 0 0 0 0 0 0 0 0 0 0 0 0 0 0 0 0 0 0 0 0 0 0 0 0 0 0 0
12 17 23 24 20 24 20 8 4 1 0 15 8 26 22 5 0 0 0 0 0 0 3 0 0 0 0 0 0 0 0 0 0 0 0 0 0 0 0 0 0 0 0 0 0 0 0
9 6 24 22 18 13 13 17 4 0 0 0 0 0 0 0 0 0 0 0 0 0 1 0 0 0 0 0 0 0 0 0 0 0 0 0 0 0 0 0 0 0 0 0 0 0 0
8 3 8 14 13 10 5 2 1 0 0 0 0 0 0 0 0 0 0 0 0 0 0 0 0 0 0 0 0 0 0 0 0 0 0 0 0 0 0 0 0 0 0 0 0 0 0
5 6 3 5 8 5 3 2 0 0 0 0 0 0 0 0 0 0 0 0 0 0 0 0 0 0 0 0 0 0 0 0 0 0 0 0 0 0 0 0 0 0 0 0 0 0 0
1 2 1 1 1 1 1 3 1 0 0 0 0 0 0 0 0 0 0 0 0 0 0 0 0 0 0 0 0 0 0 0 0 0 0 0 0 0 0 0 0 0 0 0 0 0 0
4 2 0 0 0 3 4 3 0 0 0 0 0 0 0 0 0 0 0 0 0 0 0 0 0 0 0 0 0 0 0 0 0 0 0 0 0 0 0 0 0 0 0 0 0 0 0
1 5 3 3 2 3 2 2 2 0 0 0 0 0 0 0 0 0 0 0 0 0 0 0 0 0 0 0 0 0 0 0 0 0 0 0 0 0 0 0 0 0 0 0 0 0 0
1 0 3 3 1 1 2 2 1 0 0 0 0 0 0 0 0 0 0 0 0 0 0 0 0 0 0 0 0 0 0 0 0 0 0 0 0 0 0 0 0 0 0 0 0 0 0
3 1 0 0 0 0 0 0 1 0 0 0 0 0 0 0 0 0 0 0 0 0 0 0 0 0 0 0 0 0 0 0 0 0 0 0 0 0 0 0 0 0 0 0 0 0 0
2 3 0 0 0 0 0 0 0 0 0 0 0 0 0 0 0 0 0 0 0 0 0 0 0 0 0 0 0 0 0 0 0 0 0 0 0 0 0 0 0 0 0 0 0 0 0
0 1 1 0 0 0 0 0 0 0 0 0 0 0 0 0 0 0 0 0 0 0 0 0 0 0 0 0 0 0 0 0 0 0 0 0 0 0 0 0 0 0 0 0 0 0 0
0 0 0 0 0 0 0 0 0 0 0 0 0 0 0 0 0 0 0 0 0 0 0 0 0 0 0 0 0 0 0 0 0 0 0 0 0 0 0 0 0 0 0 0 0 0 0
1 0 0 0 0 0 0 0 0 0 0 0 0 0 0 0 0 0 0 0 0 0 0 0 0 0 0 0 0 0 0 0 0 0 0 0 0 0 0 0 0 0 0 0 0 0 0
0 0 0 0 0 0 0 0 0 0 0 0 0 0 0 0 0 0 0 0 0 0 0 0 0 0 0 0 0 0 0 0 0 0 0 0 0 0 0 0 0 0 0 0 0 0 0
0 0 0 0 0 0 0 0 0 0 0 0 0 0 0 0 0 0 0 0 0 0 0 0 0 0 0 0 0 0 0 0 0 0 0 0 0 0 0 0 0 0 0 0 0 0 0
0 0 0 0 0 0 0 0 0 0 0 0 0 0 0 0 0 0 0 0 0 0 0 0 0 0 0 0 0 0 0 0 0 0 0 0 0 0 0 0 0 0 0 0 0 0 0
0 0 0 0 0 0 0 0 0 0 0 0 0 0 0 0 0 0 0 0 0 0 0 0 0 0 0 0 0 0 0 0 0 0 0 0 0 0 0 0 0 0 0 0 0 0 0
1 1 1 0 0 0 0 0 0 0 0 0 0 0 0 0 0 0 0 0 0 0 0 0 0 0 0 0 0 0 0 0 0 0 0 0 0 0 0 0 0 0 0 0 0 0 0
0 0 1 0 0 0 0 0 0 0 0 0 0 0 0 0 0 0 0 0 0 0 0 0 0 0 0 0 0 0 0 0 0 0 0 0 0 0 0 0 0 0 0 0 0 0 0
0 0 1 2 0 0 0 0 0 0 0 0 0 0 0 0 0 0 0 0 0 0 0 0 0 0 0 0 0 0 0 0 0 0 0 0 0 0 0 0 0 0 0 0 0 0 0
0 1 1 1 2 1 0 0 0 0 0 0 0 0 0 0 0 0 0 0 0 0 0 0 0 0 0 0 0 0 0 0 0 0 0 0 0 0 0 0 0 0 0 0 0 0 0
0 0 1 2 1 1 5 0 0 0 0 0 0 0 0 0 0 0 0 0 0 0 0 0 0 0 0 0 0 0 0 0 0 0 0 0 0 0 0 0 0 0 0 0 0 0 0